<?xml version="1.0" encoding="UTF-8" standalone="no" ?>
<gpx xmlns="http://www.topografix.com/GPX/1/1" xmlns:xsi="http://www.w3.org/2001/XMLSchema-instance" xsi:schemaLocation="http://www.topografix.com/GPX/1/1 http://www.topografix.com/GPX/1/1/gpx.xsd" version="1.1" creator="VisuGPX - https://www.visugpx.com">
  <metadata>
    <name>parcours pour une nocture</name>
    <desc><![CDATA[Parcours pour une sortie nocture roulant]]></desc>
  </metadata>
  <trk>
    <name><![CDATA[2012-05-07T11:14:09Z]]></name>
    <trkseg>
      <trkpt lat="50.3309" lon="3.41344">
        <ele>34.744873</ele>
        <time>2012-05-07T11:14:10Z</time>
      </trkpt>
      <trkpt lat="50.33086" lon="3.41345">
        <ele>37.6286621</ele>
        <time>2012-05-07T11:14:12Z</time>
      </trkpt>
      <trkpt lat="50.33079" lon="3.41345">
        <ele>39.5512695</ele>
        <time>2012-05-07T11:14:15Z</time>
      </trkpt>
      <trkpt lat="50.33076" lon="3.41329">
        <ele>39.0706787</ele>
        <time>2012-05-07T11:14:20Z</time>
      </trkpt>
      <trkpt lat="50.33076" lon="3.41325">
        <ele>39.0706787</ele>
        <time>2012-05-07T11:14:21Z</time>
      </trkpt>
      <trkpt lat="50.33072" lon="3.41293">
        <ele>34.2641602</ele>
        <time>2012-05-07T11:14:27Z</time>
      </trkpt>
      <trkpt lat="50.3306" lon="3.41253">
        <ele>35.7060547</ele>
        <time>2012-05-07T11:14:33Z</time>
      </trkpt>
      <trkpt lat="50.33048" lon="3.41205">
        <ele>36.1867676</ele>
        <time>2012-05-07T11:14:40Z</time>
      </trkpt>
      <trkpt lat="50.33034" lon="3.41147">
        <ele>31.8607178</ele>
        <time>2012-05-07T11:14:48Z</time>
      </trkpt>
      <trkpt lat="50.33032" lon="3.4114">
        <ele>31.380127</ele>
        <time>2012-05-07T11:14:49Z</time>
      </trkpt>
      <trkpt lat="50.33029" lon="3.41126">
        <ele>30.4188232</ele>
        <time>2012-05-07T11:14:51Z</time>
      </trkpt>
      <trkpt lat="50.33011" lon="3.41066">
        <ele>29.4575195</ele>
        <time>2012-05-07T11:14:59Z</time>
      </trkpt>
      <trkpt lat="50.32993" lon="3.41007">
        <ele>28.4962158</ele>
        <time>2012-05-07T11:15:06Z</time>
      </trkpt>
      <trkpt lat="50.32982" lon="3.40946">
        <ele>28.0155029</ele>
        <time>2012-05-07T11:15:14Z</time>
      </trkpt>
      <trkpt lat="50.32979" lon="3.4093">
        <ele>27.0543213</ele>
        <time>2012-05-07T11:15:16Z</time>
      </trkpt>
      <trkpt lat="50.32968" lon="3.40878">
        <ele>29.9381104</ele>
        <time>2012-05-07T11:15:23Z</time>
      </trkpt>
      <trkpt lat="50.3296" lon="3.40824">
        <ele>29.4575195</ele>
        <time>2012-05-07T11:15:29Z</time>
      </trkpt>
      <trkpt lat="50.32955" lon="3.40791">
        <ele>29.9381104</ele>
        <time>2012-05-07T11:15:33Z</time>
      </trkpt>
      <trkpt lat="50.32947" lon="3.40731">
        <ele>32.8222656</ele>
        <time>2012-05-07T11:15:40Z</time>
      </trkpt>
      <trkpt lat="50.32944" lon="3.40716">
        <ele>33.7834473</ele>
        <time>2012-05-07T11:15:42Z</time>
      </trkpt>
      <trkpt lat="50.32937" lon="3.40695">
        <ele>36.6674805</ele>
        <time>2012-05-07T11:15:45Z</time>
      </trkpt>
      <trkpt lat="50.32933" lon="3.40662">
        <ele>37.1480713</ele>
        <time>2012-05-07T11:15:49Z</time>
      </trkpt>
      <trkpt lat="50.32925" lon="3.40622">
        <ele>40.5128174</ele>
        <time>2012-05-07T11:15:54Z</time>
      </trkpt>
      <trkpt lat="50.32923" lon="3.4057">
        <ele>41.473999</ele>
        <time>2012-05-07T11:16:01Z</time>
      </trkpt>
      <trkpt lat="50.32923" lon="3.40566">
        <ele>41.9547119</ele>
        <time>2012-05-07T11:16:02Z</time>
      </trkpt>
      <trkpt lat="50.32914" lon="3.40552">
        <ele>44.838623</ele>
        <time>2012-05-07T11:16:07Z</time>
      </trkpt>
      <trkpt lat="50.32903" lon="3.40556">
        <ele>50.1259766</ele>
        <time>2012-05-07T11:16:10Z</time>
      </trkpt>
      <trkpt lat="50.32873" lon="3.40571">
        <ele>55.8937988</ele>
        <time>2012-05-07T11:16:17Z</time>
      </trkpt>
      <trkpt lat="50.32859" lon="3.40576">
        <ele>56.8551025</ele>
        <time>2012-05-07T11:16:20Z</time>
      </trkpt>
      <trkpt lat="50.32821" lon="3.40593">
        <ele>60.2197266</ele>
        <time>2012-05-07T11:16:28Z</time>
      </trkpt>
      <trkpt lat="50.32787" lon="3.40618">
        <ele>60.7003174</ele>
        <time>2012-05-07T11:16:35Z</time>
      </trkpt>
      <trkpt lat="50.32746" lon="3.40667">
        <ele>60.7003174</ele>
        <time>2012-05-07T11:16:44Z</time>
      </trkpt>
      <trkpt lat="50.32699" lon="3.40722">
        <ele>62.142334</ele>
        <time>2012-05-07T11:16:54Z</time>
      </trkpt>
      <trkpt lat="50.32661" lon="3.40767">
        <ele>61.6617432</ele>
        <time>2012-05-07T11:17:02Z</time>
      </trkpt>
      <trkpt lat="50.32632" lon="3.40801">
        <ele>61.1810303</ele>
        <time>2012-05-07T11:17:08Z</time>
      </trkpt>
      <trkpt lat="50.32608" lon="3.40825">
        <ele>59.2584229</ele>
        <time>2012-05-07T11:17:13Z</time>
      </trkpt>
      <trkpt lat="50.32588" lon="3.40842">
        <ele>57.3358154</ele>
        <time>2012-05-07T11:17:17Z</time>
      </trkpt>
      <trkpt lat="50.32536" lon="3.40872">
        <ele>58.77771</ele>
        <time>2012-05-07T11:17:27Z</time>
      </trkpt>
      <trkpt lat="50.32521" lon="3.40877">
        <ele>56.8551025</ele>
        <time>2012-05-07T11:17:30Z</time>
      </trkpt>
      <trkpt lat="50.32487" lon="3.40887">
        <ele>62.142334</ele>
        <time>2012-05-07T11:17:37Z</time>
      </trkpt>
      <trkpt lat="50.32451" lon="3.40895">
        <ele>68.871582</ele>
        <time>2012-05-07T11:17:45Z</time>
      </trkpt>
      <trkpt lat="50.32405" lon="3.409">
        <ele>74.1588135</ele>
        <time>2012-05-07T11:17:55Z</time>
      </trkpt>
      <trkpt lat="50.32367" lon="3.40905">
        <ele>76.5621338</ele>
        <time>2012-05-07T11:18:03Z</time>
      </trkpt>
      <trkpt lat="50.32321" lon="3.40912">
        <ele>80.8881836</ele>
        <time>2012-05-07T11:18:12Z</time>
      </trkpt>
      <trkpt lat="50.32276" lon="3.40917">
        <ele>81.8493652</ele>
        <time>2012-05-07T11:18:21Z</time>
      </trkpt>
      <trkpt lat="50.32225" lon="3.40922">
        <ele>81.8493652</ele>
        <time>2012-05-07T11:18:31Z</time>
      </trkpt>
      <trkpt lat="50.32197" lon="3.40923">
        <ele>77.0428467</ele>
        <time>2012-05-07T11:18:37Z</time>
      </trkpt>
      <trkpt lat="50.32192" lon="3.40929">
        <ele>71.2749023</ele>
        <time>2012-05-07T11:18:40Z</time>
      </trkpt>
      <trkpt lat="50.32201" lon="3.40945">
        <ele>67.9102783</ele>
        <time>2012-05-07T11:18:43Z</time>
      </trkpt>
      <trkpt lat="50.32221" lon="3.40943">
        <ele>59.2584229</ele>
        <time>2012-05-07T11:18:47Z</time>
      </trkpt>
      <trkpt lat="50.32228" lon="3.4096">
        <ele>56.3745117</ele>
        <time>2012-05-07T11:18:50Z</time>
      </trkpt>
      <trkpt lat="50.32233" lon="3.41017">
        <ele>44.3580322</ele>
        <time>2012-05-07T11:18:58Z</time>
      </trkpt>
      <trkpt lat="50.32234" lon="3.41067">
        <ele>45.3192139</ele>
        <time>2012-05-07T11:19:04Z</time>
      </trkpt>
      <trkpt lat="50.32237" lon="3.41117">
        <ele>41.473999</ele>
        <time>2012-05-07T11:19:10Z</time>
      </trkpt>
      <trkpt lat="50.32239" lon="3.4115">
        <ele>40.0321045</ele>
        <time>2012-05-07T11:19:14Z</time>
      </trkpt>
      <trkpt lat="50.32244" lon="3.41191">
        <ele>38.5900879</ele>
        <time>2012-05-07T11:19:19Z</time>
      </trkpt>
      <trkpt lat="50.3225" lon="3.41231">
        <ele>35.7060547</ele>
        <time>2012-05-07T11:19:24Z</time>
      </trkpt>
      <trkpt lat="50.32254" lon="3.41263">
        <ele>32.3415527</ele>
        <time>2012-05-07T11:19:28Z</time>
      </trkpt>
      <trkpt lat="50.32254" lon="3.41298">
        <ele>30.4188232</ele>
        <time>2012-05-07T11:19:32Z</time>
      </trkpt>
      <trkpt lat="50.32256" lon="3.41325">
        <ele>29.9381104</ele>
        <time>2012-05-07T11:19:35Z</time>
      </trkpt>
      <trkpt lat="50.3226" lon="3.4138">
        <ele>27.0543213</ele>
        <time>2012-05-07T11:19:42Z</time>
      </trkpt>
      <trkpt lat="50.32261" lon="3.41425">
        <ele>29.4575195</ele>
        <time>2012-05-07T11:19:49Z</time>
      </trkpt>
      <trkpt lat="50.32263" lon="3.41437">
        <ele>30.4188232</ele>
        <time>2012-05-07T11:19:51Z</time>
      </trkpt>
      <trkpt lat="50.32264" lon="3.41458">
        <ele>31.8607178</ele>
        <time>2012-05-07T11:19:54Z</time>
      </trkpt>
      <trkpt lat="50.32266" lon="3.41471">
        <ele>32.3415527</ele>
        <time>2012-05-07T11:19:56Z</time>
      </trkpt>
      <trkpt lat="50.32265" lon="3.41484">
        <ele>30.4188232</ele>
        <time>2012-05-07T11:19:58Z</time>
      </trkpt>
      <trkpt lat="50.32269" lon="3.41531">
        <ele>28.9769287</ele>
        <time>2012-05-07T11:20:04Z</time>
      </trkpt>
      <trkpt lat="50.32272" lon="3.41575">
        <ele>30.4188232</ele>
        <time>2012-05-07T11:20:10Z</time>
      </trkpt>
      <trkpt lat="50.32273" lon="3.41597">
        <ele>30.4188232</ele>
        <time>2012-05-07T11:20:13Z</time>
      </trkpt>
      <trkpt lat="50.32273" lon="3.41611">
        <ele>31.380127</ele>
        <time>2012-05-07T11:20:15Z</time>
      </trkpt>
      <trkpt lat="50.32274" lon="3.41645">
        <ele>28.0155029</ele>
        <time>2012-05-07T11:20:20Z</time>
      </trkpt>
      <trkpt lat="50.32276" lon="3.41695">
        <ele>23.6895752</ele>
        <time>2012-05-07T11:20:27Z</time>
      </trkpt>
      <trkpt lat="50.3228" lon="3.41747">
        <ele>25.1317139</ele>
        <time>2012-05-07T11:20:34Z</time>
      </trkpt>
      <trkpt lat="50.32283" lon="3.41776">
        <ele>26.5736084</ele>
        <time>2012-05-07T11:20:38Z</time>
      </trkpt>
      <trkpt lat="50.32283" lon="3.41796">
        <ele>26.5736084</ele>
        <time>2012-05-07T11:20:41Z</time>
      </trkpt>
      <trkpt lat="50.32284" lon="3.41825">
        <ele>28.9769287</ele>
        <time>2012-05-07T11:20:45Z</time>
      </trkpt>
      <trkpt lat="50.32286" lon="3.41849">
        <ele>29.9381104</ele>
        <time>2012-05-07T11:20:48Z</time>
      </trkpt>
      <trkpt lat="50.32289" lon="3.41898">
        <ele>28.4962158</ele>
        <time>2012-05-07T11:20:54Z</time>
      </trkpt>
      <trkpt lat="50.3229" lon="3.41915">
        <ele>29.4575195</ele>
        <time>2012-05-07T11:20:56Z</time>
      </trkpt>
      <trkpt lat="50.32294" lon="3.4196">
        <ele>31.8607178</ele>
        <time>2012-05-07T11:21:02Z</time>
      </trkpt>
      <trkpt lat="50.32297" lon="3.42015">
        <ele>33.3028564</ele>
        <time>2012-05-07T11:21:09Z</time>
      </trkpt>
      <trkpt lat="50.32298" lon="3.42056">
        <ele>33.3028564</ele>
        <time>2012-05-07T11:21:14Z</time>
      </trkpt>
      <trkpt lat="50.32302" lon="3.42127">
        <ele>35.2254639</ele>
        <time>2012-05-07T11:21:22Z</time>
      </trkpt>
      <trkpt lat="50.32305" lon="3.42189">
        <ele>35.2254639</ele>
        <time>2012-05-07T11:21:29Z</time>
      </trkpt>
      <trkpt lat="50.32305" lon="3.42198">
        <ele>35.2254639</ele>
        <time>2012-05-07T11:21:30Z</time>
      </trkpt>
      <trkpt lat="50.32306" lon="3.42231">
        <ele>35.2254639</ele>
        <time>2012-05-07T11:21:34Z</time>
      </trkpt>
      <trkpt lat="50.3231" lon="3.42292">
        <ele>31.380127</ele>
        <time>2012-05-07T11:21:42Z</time>
      </trkpt>
      <trkpt lat="50.32313" lon="3.42356">
        <ele>32.8222656</ele>
        <time>2012-05-07T11:21:50Z</time>
      </trkpt>
      <trkpt lat="50.32313" lon="3.42364">
        <ele>32.3415527</ele>
        <time>2012-05-07T11:21:51Z</time>
      </trkpt>
      <trkpt lat="50.32318" lon="3.42407">
        <ele>31.380127</ele>
        <time>2012-05-07T11:21:57Z</time>
      </trkpt>
      <trkpt lat="50.32321" lon="3.42444">
        <ele>33.7834473</ele>
        <time>2012-05-07T11:22:02Z</time>
      </trkpt>
      <trkpt lat="50.32324" lon="3.42495">
        <ele>30.8995361</ele>
        <time>2012-05-07T11:22:09Z</time>
      </trkpt>
      <trkpt lat="50.32324" lon="3.42518">
        <ele>30.8995361</ele>
        <time>2012-05-07T11:22:12Z</time>
      </trkpt>
      <trkpt lat="50.32327" lon="3.42543">
        <ele>33.3028564</ele>
        <time>2012-05-07T11:22:15Z</time>
      </trkpt>
      <trkpt lat="50.32342" lon="3.42585">
        <ele>34.2641602</ele>
        <time>2012-05-07T11:22:20Z</time>
      </trkpt>
      <trkpt lat="50.32355" lon="3.42614">
        <ele>34.744873</ele>
        <time>2012-05-07T11:22:24Z</time>
      </trkpt>
      <trkpt lat="50.3235" lon="3.42654">
        <ele>33.7834473</ele>
        <time>2012-05-07T11:22:29Z</time>
      </trkpt>
      <trkpt lat="50.32335" lon="3.42698">
        <ele>35.2254639</ele>
        <time>2012-05-07T11:22:35Z</time>
      </trkpt>
      <trkpt lat="50.32332" lon="3.42764">
        <ele>34.2641602</ele>
        <time>2012-05-07T11:22:43Z</time>
      </trkpt>
      <trkpt lat="50.32328" lon="3.42818">
        <ele>32.3415527</ele>
        <time>2012-05-07T11:22:49Z</time>
      </trkpt>
      <trkpt lat="50.32333" lon="3.42839">
        <ele>32.3415527</ele>
        <time>2012-05-07T11:22:52Z</time>
      </trkpt>
      <trkpt lat="50.32339" lon="3.42861">
        <ele>33.3028564</ele>
        <time>2012-05-07T11:22:55Z</time>
      </trkpt>
      <trkpt lat="50.32328" lon="3.42903">
        <ele>28.0155029</ele>
        <time>2012-05-07T11:22:59Z</time>
      </trkpt>
      <trkpt lat="50.32326" lon="3.42923">
        <ele>28.0155029</ele>
        <time>2012-05-07T11:23:01Z</time>
      </trkpt>
      <trkpt lat="50.32316" lon="3.42962">
        <ele>28.9769287</ele>
        <time>2012-05-07T11:23:05Z</time>
      </trkpt>
      <trkpt lat="50.32303" lon="3.42984">
        <ele>27.5349121</ele>
        <time>2012-05-07T11:23:08Z</time>
      </trkpt>
      <trkpt lat="50.3229" lon="3.43026">
        <ele>28.4962158</ele>
        <time>2012-05-07T11:23:12Z</time>
      </trkpt>
      <trkpt lat="50.32286" lon="3.4308">
        <ele>31.8607178</ele>
        <time>2012-05-07T11:23:18Z</time>
      </trkpt>
      <trkpt lat="50.32281" lon="3.43126">
        <ele>31.8607178</ele>
        <time>2012-05-07T11:23:23Z</time>
      </trkpt>
      <trkpt lat="50.32285" lon="3.43176">
        <ele>30.4188232</ele>
        <time>2012-05-07T11:23:28Z</time>
      </trkpt>
      <trkpt lat="50.32287" lon="3.43195">
        <ele>28.9769287</ele>
        <time>2012-05-07T11:23:30Z</time>
      </trkpt>
      <trkpt lat="50.32285" lon="3.43239">
        <ele>31.8607178</ele>
        <time>2012-05-07T11:23:35Z</time>
      </trkpt>
      <trkpt lat="50.32284" lon="3.43248">
        <ele>31.8607178</ele>
        <time>2012-05-07T11:23:36Z</time>
      </trkpt>
      <trkpt lat="50.32268" lon="3.43273">
        <ele>31.380127</ele>
        <time>2012-05-07T11:23:40Z</time>
      </trkpt>
      <trkpt lat="50.32262" lon="3.43287">
        <ele>29.9381104</ele>
        <time>2012-05-07T11:23:42Z</time>
      </trkpt>
      <trkpt lat="50.32253" lon="3.43318">
        <ele>29.4575195</ele>
        <time>2012-05-07T11:23:46Z</time>
      </trkpt>
      <trkpt lat="50.32245" lon="3.43352">
        <ele>31.380127</ele>
        <time>2012-05-07T11:23:50Z</time>
      </trkpt>
      <trkpt lat="50.32234" lon="3.43375">
        <ele>31.380127</ele>
        <time>2012-05-07T11:23:53Z</time>
      </trkpt>
      <trkpt lat="50.32214" lon="3.4342">
        <ele>30.8995361</ele>
        <time>2012-05-07T11:23:59Z</time>
      </trkpt>
      <trkpt lat="50.32207" lon="3.43443">
        <ele>30.4188232</ele>
        <time>2012-05-07T11:24:02Z</time>
      </trkpt>
      <trkpt lat="50.32201" lon="3.43461">
        <ele>31.380127</ele>
        <time>2012-05-07T11:24:04Z</time>
      </trkpt>
      <trkpt lat="50.32196" lon="3.43475">
        <ele>31.380127</ele>
        <time>2012-05-07T11:24:06Z</time>
      </trkpt>
      <trkpt lat="50.32176" lon="3.4351">
        <ele>32.3415527</ele>
        <time>2012-05-07T11:24:11Z</time>
      </trkpt>
      <trkpt lat="50.32144" lon="3.43552">
        <ele>32.8222656</ele>
        <time>2012-05-07T11:24:19Z</time>
      </trkpt>
      <trkpt lat="50.32118" lon="3.43587">
        <ele>33.7834473</ele>
        <time>2012-05-07T11:24:25Z</time>
      </trkpt>
      <trkpt lat="50.32092" lon="3.43619">
        <ele>34.2641602</ele>
        <time>2012-05-07T11:24:31Z</time>
      </trkpt>
      <trkpt lat="50.32084" lon="3.4363">
        <ele>33.7834473</ele>
        <time>2012-05-07T11:24:33Z</time>
      </trkpt>
      <trkpt lat="50.32067" lon="3.43648">
        <ele>31.8607178</ele>
        <time>2012-05-07T11:24:37Z</time>
      </trkpt>
      <trkpt lat="50.32046" lon="3.43664">
        <ele>29.9381104</ele>
        <time>2012-05-07T11:24:41Z</time>
      </trkpt>
      <trkpt lat="50.32015" lon="3.4369">
        <ele>26.5736084</ele>
        <time>2012-05-07T11:24:47Z</time>
      </trkpt>
      <trkpt lat="50.32011" lon="3.43693">
        <ele>26.5736084</ele>
        <time>2012-05-07T11:24:48Z</time>
      </trkpt>
      <trkpt lat="50.31981" lon="3.4372">
        <ele>27.0543213</ele>
        <time>2012-05-07T11:24:54Z</time>
      </trkpt>
      <trkpt lat="50.31977" lon="3.43726">
        <ele>28.0155029</ele>
        <time>2012-05-07T11:24:55Z</time>
      </trkpt>
      <trkpt lat="50.3195" lon="3.43774">
        <ele>26.5736084</ele>
        <time>2012-05-07T11:25:02Z</time>
      </trkpt>
      <trkpt lat="50.31946" lon="3.43781">
        <ele>26.0928955</ele>
        <time>2012-05-07T11:25:03Z</time>
      </trkpt>
      <trkpt lat="50.31926" lon="3.43835">
        <ele>32.8222656</ele>
        <time>2012-05-07T11:25:10Z</time>
      </trkpt>
      <trkpt lat="50.31906" lon="3.43879">
        <ele>34.744873</ele>
        <time>2012-05-07T11:25:16Z</time>
      </trkpt>
      <trkpt lat="50.31888" lon="3.43914">
        <ele>30.4188232</ele>
        <time>2012-05-07T11:25:21Z</time>
      </trkpt>
      <trkpt lat="50.31877" lon="3.43945">
        <ele>29.9381104</ele>
        <time>2012-05-07T11:25:25Z</time>
      </trkpt>
      <trkpt lat="50.31875" lon="3.43952">
        <ele>29.9381104</ele>
        <time>2012-05-07T11:25:26Z</time>
      </trkpt>
      <trkpt lat="50.31868" lon="3.43973">
        <ele>31.8607178</ele>
        <time>2012-05-07T11:25:29Z</time>
      </trkpt>
      <trkpt lat="50.31854" lon="3.44009">
        <ele>29.9381104</ele>
        <time>2012-05-07T11:25:34Z</time>
      </trkpt>
      <trkpt lat="50.31845" lon="3.44032">
        <ele>31.380127</ele>
        <time>2012-05-07T11:25:37Z</time>
      </trkpt>
      <trkpt lat="50.31831" lon="3.44055">
        <ele>29.9381104</ele>
        <time>2012-05-07T11:25:41Z</time>
      </trkpt>
      <trkpt lat="50.31819" lon="3.44082">
        <ele>26.0928955</ele>
        <time>2012-05-07T11:25:45Z</time>
      </trkpt>
      <trkpt lat="50.31798" lon="3.44113">
        <ele>25.1317139</ele>
        <time>2012-05-07T11:25:50Z</time>
      </trkpt>
      <trkpt lat="50.3177" lon="3.44146">
        <ele>24.651001</ele>
        <time>2012-05-07T11:25:56Z</time>
      </trkpt>
      <trkpt lat="50.31749" lon="3.44156">
        <ele>25.1317139</ele>
        <time>2012-05-07T11:26:00Z</time>
      </trkpt>
      <trkpt lat="50.31744" lon="3.44153">
        <ele>25.6123047</ele>
        <time>2012-05-07T11:26:01Z</time>
      </trkpt>
      <trkpt lat="50.31711" lon="3.4412">
        <ele>27.5349121</ele>
        <time>2012-05-07T11:26:08Z</time>
      </trkpt>
      <trkpt lat="50.31671" lon="3.44078">
        <ele>29.4575195</ele>
        <time>2012-05-07T11:26:16Z</time>
      </trkpt>
      <trkpt lat="50.31632" lon="3.44038">
        <ele>30.8995361</ele>
        <time>2012-05-07T11:26:24Z</time>
      </trkpt>
      <trkpt lat="50.31582" lon="3.4399">
        <ele>31.380127</ele>
        <time>2012-05-07T11:26:34Z</time>
      </trkpt>
      <trkpt lat="50.31542" lon="3.4395">
        <ele>33.3028564</ele>
        <time>2012-05-07T11:26:42Z</time>
      </trkpt>
      <trkpt lat="50.31508" lon="3.43918">
        <ele>33.7834473</ele>
        <time>2012-05-07T11:26:49Z</time>
      </trkpt>
      <trkpt lat="50.31486" lon="3.43896">
        <ele>34.2641602</ele>
        <time>2012-05-07T11:26:55Z</time>
      </trkpt>
      <trkpt lat="50.31472" lon="3.43895">
        <ele>35.2254639</ele>
        <time>2012-05-07T11:26:59Z</time>
      </trkpt>
      <trkpt lat="50.31463" lon="3.43901">
        <ele>35.2254639</ele>
        <time>2012-05-07T11:27:04Z</time>
      </trkpt>
      <trkpt lat="50.31452" lon="3.43907">
        <ele>35.2254639</ele>
        <time>2012-05-07T11:27:09Z</time>
      </trkpt>
      <trkpt lat="50.31431" lon="3.43916">
        <ele>35.7060547</ele>
        <time>2012-05-07T11:27:14Z</time>
      </trkpt>
      <trkpt lat="50.31389" lon="3.43924">
        <ele>33.3028564</ele>
        <time>2012-05-07T11:27:22Z</time>
      </trkpt>
      <trkpt lat="50.31346" lon="3.43936">
        <ele>32.8222656</ele>
        <time>2012-05-07T11:27:30Z</time>
      </trkpt>
      <trkpt lat="50.3134" lon="3.43938">
        <ele>32.8222656</ele>
        <time>2012-05-07T11:27:31Z</time>
      </trkpt>
      <trkpt lat="50.31313" lon="3.43968">
        <ele>30.8995361</ele>
        <time>2012-05-07T11:27:37Z</time>
      </trkpt>
      <trkpt lat="50.31268" lon="3.44028">
        <ele>29.4575195</ele>
        <time>2012-05-07T11:27:47Z</time>
      </trkpt>
      <trkpt lat="50.31214" lon="3.44102">
        <ele>28.4962158</ele>
        <time>2012-05-07T11:27:59Z</time>
      </trkpt>
      <trkpt lat="50.31174" lon="3.44156">
        <ele>29.4575195</ele>
        <time>2012-05-07T11:28:08Z</time>
      </trkpt>
      <trkpt lat="50.31137" lon="3.44207">
        <ele>33.3028564</ele>
        <time>2012-05-07T11:28:17Z</time>
      </trkpt>
      <trkpt lat="50.31103" lon="3.44249">
        <ele>35.7060547</ele>
        <time>2012-05-07T11:28:25Z</time>
      </trkpt>
      <trkpt lat="50.31071" lon="3.44285">
        <ele>34.744873</ele>
        <time>2012-05-07T11:28:32Z</time>
      </trkpt>
      <trkpt lat="50.31024" lon="3.44341">
        <ele>33.7834473</ele>
        <time>2012-05-07T11:28:41Z</time>
      </trkpt>
      <trkpt lat="50.31004" lon="3.44369">
        <ele>32.8222656</ele>
        <time>2012-05-07T11:28:45Z</time>
      </trkpt>
      <trkpt lat="50.30999" lon="3.44405">
        <ele>31.380127</ele>
        <time>2012-05-07T11:28:49Z</time>
      </trkpt>
      <trkpt lat="50.31004" lon="3.44423">
        <ele>30.8995361</ele>
        <time>2012-05-07T11:28:51Z</time>
      </trkpt>
      <trkpt lat="50.31011" lon="3.4444">
        <ele>30.4188232</ele>
        <time>2012-05-07T11:28:53Z</time>
      </trkpt>
      <trkpt lat="50.31014" lon="3.44478">
        <ele>29.9381104</ele>
        <time>2012-05-07T11:28:57Z</time>
      </trkpt>
      <trkpt lat="50.31002" lon="3.4455">
        <ele>32.8222656</ele>
        <time>2012-05-07T11:29:05Z</time>
      </trkpt>
      <trkpt lat="50.3099" lon="3.44609">
        <ele>33.7834473</ele>
        <time>2012-05-07T11:29:12Z</time>
      </trkpt>
      <trkpt lat="50.30975" lon="3.44663">
        <ele>33.7834473</ele>
        <time>2012-05-07T11:29:18Z</time>
      </trkpt>
      <trkpt lat="50.30955" lon="3.4474">
        <ele>36.1867676</ele>
        <time>2012-05-07T11:29:27Z</time>
      </trkpt>
      <trkpt lat="50.30945" lon="3.44772">
        <ele>37.1480713</ele>
        <time>2012-05-07T11:29:32Z</time>
      </trkpt>
      <trkpt lat="50.30942" lon="3.44788">
        <ele>36.1867676</ele>
        <time>2012-05-07T11:29:35Z</time>
      </trkpt>
      <trkpt lat="50.30934" lon="3.44811">
        <ele>37.1480713</ele>
        <time>2012-05-07T11:29:41Z</time>
      </trkpt>
      <trkpt lat="50.30919" lon="3.44854">
        <ele>33.3028564</ele>
        <time>2012-05-07T11:29:47Z</time>
      </trkpt>
      <trkpt lat="50.30899" lon="3.44908">
        <ele>36.6674805</ele>
        <time>2012-05-07T11:29:54Z</time>
      </trkpt>
      <trkpt lat="50.30885" lon="3.4496">
        <ele>36.6674805</ele>
        <time>2012-05-07T11:30:00Z</time>
      </trkpt>
      <trkpt lat="50.30858" lon="3.45049">
        <ele>36.6674805</ele>
        <time>2012-05-07T11:30:10Z</time>
      </trkpt>
      <trkpt lat="50.30855" lon="3.45058">
        <ele>36.6674805</ele>
        <time>2012-05-07T11:30:11Z</time>
      </trkpt>
      <trkpt lat="50.30831" lon="3.45101">
        <ele>35.7060547</ele>
        <time>2012-05-07T11:30:17Z</time>
      </trkpt>
      <trkpt lat="50.30792" lon="3.45163">
        <ele>36.6674805</ele>
        <time>2012-05-07T11:30:26Z</time>
      </trkpt>
      <trkpt lat="50.30779" lon="3.45183">
        <ele>37.1480713</ele>
        <time>2012-05-07T11:30:29Z</time>
      </trkpt>
      <trkpt lat="50.3076" lon="3.45209">
        <ele>36.6674805</ele>
        <time>2012-05-07T11:30:34Z</time>
      </trkpt>
      <trkpt lat="50.30758" lon="3.45231">
        <ele>38.109375</ele>
        <time>2012-05-07T11:30:38Z</time>
      </trkpt>
      <trkpt lat="50.30772" lon="3.45245">
        <ele>39.0706787</ele>
        <time>2012-05-07T11:30:41Z</time>
      </trkpt>
      <trkpt lat="50.30781" lon="3.45254">
        <ele>39.5512695</ele>
        <time>2012-05-07T11:30:43Z</time>
      </trkpt>
      <trkpt lat="50.30818" lon="3.45285">
        <ele>43.8773193</ele>
        <time>2012-05-07T11:30:49Z</time>
      </trkpt>
      <trkpt lat="50.30831" lon="3.45303">
        <ele>44.3580322</ele>
        <time>2012-05-07T11:30:52Z</time>
      </trkpt>
      <trkpt lat="50.30857" lon="3.45363">
        <ele>39.0706787</ele>
        <time>2012-05-07T11:31:00Z</time>
      </trkpt>
      <trkpt lat="50.30881" lon="3.45419">
        <ele>36.1867676</ele>
        <time>2012-05-07T11:31:07Z</time>
      </trkpt>
      <trkpt lat="50.30914" lon="3.4549">
        <ele>32.8222656</ele>
        <time>2012-05-07T11:31:16Z</time>
      </trkpt>
      <trkpt lat="50.30941" lon="3.45546">
        <ele>31.8607178</ele>
        <time>2012-05-07T11:31:23Z</time>
      </trkpt>
      <trkpt lat="50.30975" lon="3.4563">
        <ele>28.9769287</ele>
        <time>2012-05-07T11:31:33Z</time>
      </trkpt>
      <trkpt lat="50.31015" lon="3.45706">
        <ele>27.0543213</ele>
        <time>2012-05-07T11:31:43Z</time>
      </trkpt>
      <trkpt lat="50.31028" lon="3.45727">
        <ele>27.0543213</ele>
        <time>2012-05-07T11:31:46Z</time>
      </trkpt>
      <trkpt lat="50.31064" lon="3.45771">
        <ele>27.5349121</ele>
        <time>2012-05-07T11:31:53Z</time>
      </trkpt>
      <trkpt lat="50.31096" lon="3.45809">
        <ele>28.4962158</ele>
        <time>2012-05-07T11:31:59Z</time>
      </trkpt>
      <trkpt lat="50.31101" lon="3.45817">
        <ele>28.4962158</ele>
        <time>2012-05-07T11:32:00Z</time>
      </trkpt>
      <trkpt lat="50.31127" lon="3.45841">
        <ele>28.4962158</ele>
        <time>2012-05-07T11:32:05Z</time>
      </trkpt>
      <trkpt lat="50.31136" lon="3.45849">
        <ele>28.4962158</ele>
        <time>2012-05-07T11:32:07Z</time>
      </trkpt>
      <trkpt lat="50.31164" lon="3.45873">
        <ele>30.4188232</ele>
        <time>2012-05-07T11:32:13Z</time>
      </trkpt>
      <trkpt lat="50.31169" lon="3.45877">
        <ele>30.4188232</ele>
        <time>2012-05-07T11:32:14Z</time>
      </trkpt>
      <trkpt lat="50.31182" lon="3.45891">
        <ele>31.380127</ele>
        <time>2012-05-07T11:32:17Z</time>
      </trkpt>
      <trkpt lat="50.31193" lon="3.45902">
        <ele>31.380127</ele>
        <time>2012-05-07T11:32:20Z</time>
      </trkpt>
      <trkpt lat="50.31199" lon="3.45923">
        <ele>30.8995361</ele>
        <time>2012-05-07T11:32:24Z</time>
      </trkpt>
      <trkpt lat="50.312" lon="3.45958">
        <ele>30.4188232</ele>
        <time>2012-05-07T11:32:29Z</time>
      </trkpt>
      <trkpt lat="50.312" lon="3.46033">
        <ele>28.0155029</ele>
        <time>2012-05-07T11:32:38Z</time>
      </trkpt>
      <trkpt lat="50.312" lon="3.46056">
        <ele>29.4575195</ele>
        <time>2012-05-07T11:32:41Z</time>
      </trkpt>
      <trkpt lat="50.31194" lon="3.46072">
        <ele>29.9381104</ele>
        <time>2012-05-07T11:32:45Z</time>
      </trkpt>
      <trkpt lat="50.31176" lon="3.46091">
        <ele>29.4575195</ele>
        <time>2012-05-07T11:32:51Z</time>
      </trkpt>
      <trkpt lat="50.31168" lon="3.46107">
        <ele>28.4962158</ele>
        <time>2012-05-07T11:32:54Z</time>
      </trkpt>
      <trkpt lat="50.31175" lon="3.4613">
        <ele>28.9769287</ele>
        <time>2012-05-07T11:32:58Z</time>
      </trkpt>
      <trkpt lat="50.312" lon="3.46171">
        <ele>28.0155029</ele>
        <time>2012-05-07T11:33:04Z</time>
      </trkpt>
      <trkpt lat="50.31207" lon="3.46211">
        <ele>25.6123047</ele>
        <time>2012-05-07T11:33:09Z</time>
      </trkpt>
      <trkpt lat="50.31207" lon="3.46218">
        <ele>25.6123047</ele>
        <time>2012-05-07T11:33:10Z</time>
      </trkpt>
      <trkpt lat="50.3121" lon="3.46254">
        <ele>26.0928955</ele>
        <time>2012-05-07T11:33:15Z</time>
      </trkpt>
      <trkpt lat="50.31212" lon="3.46289">
        <ele>28.4962158</ele>
        <time>2012-05-07T11:33:20Z</time>
      </trkpt>
      <trkpt lat="50.31212" lon="3.46298">
        <ele>28.0155029</ele>
        <time>2012-05-07T11:33:21Z</time>
      </trkpt>
      <trkpt lat="50.31214" lon="3.46321">
        <ele>28.0155029</ele>
        <time>2012-05-07T11:33:24Z</time>
      </trkpt>
      <trkpt lat="50.31218" lon="3.46351">
        <ele>27.5349121</ele>
        <time>2012-05-07T11:33:29Z</time>
      </trkpt>
      <trkpt lat="50.3122" lon="3.46407">
        <ele>28.0155029</ele>
        <time>2012-05-07T11:33:36Z</time>
      </trkpt>
      <trkpt lat="50.31223" lon="3.46431">
        <ele>28.4962158</ele>
        <time>2012-05-07T11:33:39Z</time>
      </trkpt>
      <trkpt lat="50.31223" lon="3.46469">
        <ele>26.0928955</ele>
        <time>2012-05-07T11:33:44Z</time>
      </trkpt>
      <trkpt lat="50.31227" lon="3.46537">
        <ele>26.0928955</ele>
        <time>2012-05-07T11:33:52Z</time>
      </trkpt>
      <trkpt lat="50.3123" lon="3.46615">
        <ele>28.4962158</ele>
        <time>2012-05-07T11:34:01Z</time>
      </trkpt>
      <trkpt lat="50.31232" lon="3.46675">
        <ele>29.9381104</ele>
        <time>2012-05-07T11:34:08Z</time>
      </trkpt>
      <trkpt lat="50.3124" lon="3.46735">
        <ele>30.8995361</ele>
        <time>2012-05-07T11:34:15Z</time>
      </trkpt>
      <trkpt lat="50.31248" lon="3.46787">
        <ele>30.4188232</ele>
        <time>2012-05-07T11:34:21Z</time>
      </trkpt>
      <trkpt lat="50.31255" lon="3.46838">
        <ele>29.9381104</ele>
        <time>2012-05-07T11:34:27Z</time>
      </trkpt>
      <trkpt lat="50.31271" lon="3.46914">
        <ele>28.4962158</ele>
        <time>2012-05-07T11:34:36Z</time>
      </trkpt>
      <trkpt lat="50.31284" lon="3.46978">
        <ele>28.0155029</ele>
        <time>2012-05-07T11:34:43Z</time>
      </trkpt>
      <trkpt lat="50.31298" lon="3.4704">
        <ele>28.0155029</ele>
        <time>2012-05-07T11:34:50Z</time>
      </trkpt>
      <trkpt lat="50.31305" lon="3.47074">
        <ele>28.9769287</ele>
        <time>2012-05-07T11:34:54Z</time>
      </trkpt>
      <trkpt lat="50.31313" lon="3.47096">
        <ele>29.9381104</ele>
        <time>2012-05-07T11:34:57Z</time>
      </trkpt>
      <trkpt lat="50.31332" lon="3.47139">
        <ele>31.380127</ele>
        <time>2012-05-07T11:35:04Z</time>
      </trkpt>
      <trkpt lat="50.31335" lon="3.47145">
        <ele>31.380127</ele>
        <time>2012-05-07T11:35:05Z</time>
      </trkpt>
      <trkpt lat="50.31362" lon="3.47198">
        <ele>31.8607178</ele>
        <time>2012-05-07T11:35:13Z</time>
      </trkpt>
      <trkpt lat="50.31387" lon="3.47257">
        <ele>31.8607178</ele>
        <time>2012-05-07T11:35:21Z</time>
      </trkpt>
      <trkpt lat="50.31412" lon="3.47297">
        <ele>31.380127</ele>
        <time>2012-05-07T11:35:27Z</time>
      </trkpt>
      <trkpt lat="50.31445" lon="3.47354">
        <ele>30.4188232</ele>
        <time>2012-05-07T11:35:35Z</time>
      </trkpt>
      <trkpt lat="50.31471" lon="3.47422">
        <ele>29.4575195</ele>
        <time>2012-05-07T11:35:43Z</time>
      </trkpt>
      <trkpt lat="50.31497" lon="3.47483">
        <ele>29.4575195</ele>
        <time>2012-05-07T11:35:50Z</time>
      </trkpt>
      <trkpt lat="50.31523" lon="3.47541">
        <ele>29.4575195</ele>
        <time>2012-05-07T11:35:57Z</time>
      </trkpt>
      <trkpt lat="50.31556" lon="3.47612">
        <ele>30.4188232</ele>
        <time>2012-05-07T11:36:06Z</time>
      </trkpt>
      <trkpt lat="50.3159" lon="3.47686">
        <ele>28.4962158</ele>
        <time>2012-05-07T11:36:15Z</time>
      </trkpt>
      <trkpt lat="50.31614" lon="3.47748">
        <ele>27.5349121</ele>
        <time>2012-05-07T11:36:22Z</time>
      </trkpt>
      <trkpt lat="50.3164" lon="3.47811">
        <ele>27.5349121</ele>
        <time>2012-05-07T11:36:29Z</time>
      </trkpt>
      <trkpt lat="50.3167" lon="3.47874">
        <ele>27.5349121</ele>
        <time>2012-05-07T11:36:37Z</time>
      </trkpt>
      <trkpt lat="50.31706" lon="3.47954">
        <ele>27.5349121</ele>
        <time>2012-05-07T11:36:47Z</time>
      </trkpt>
      <trkpt lat="50.31736" lon="3.48018">
        <ele>28.4962158</ele>
        <time>2012-05-07T11:36:55Z</time>
      </trkpt>
      <trkpt lat="50.31756" lon="3.48061">
        <ele>28.4962158</ele>
        <time>2012-05-07T11:37:01Z</time>
      </trkpt>
      <trkpt lat="50.31789" lon="3.48132">
        <ele>28.9769287</ele>
        <time>2012-05-07T11:37:10Z</time>
      </trkpt>
      <trkpt lat="50.31803" lon="3.48158">
        <ele>29.9381104</ele>
        <time>2012-05-07T11:37:14Z</time>
      </trkpt>
      <trkpt lat="50.31806" lon="3.48184">
        <ele>28.9769287</ele>
        <time>2012-05-07T11:37:18Z</time>
      </trkpt>
      <trkpt lat="50.31801" lon="3.48189">
        <ele>28.9769287</ele>
        <time>2012-05-07T11:37:19Z</time>
      </trkpt>
      <trkpt lat="50.31759" lon="3.48235">
        <ele>28.9769287</ele>
        <time>2012-05-07T11:37:27Z</time>
      </trkpt>
      <trkpt lat="50.31711" lon="3.48292">
        <ele>33.7834473</ele>
        <time>2012-05-07T11:37:36Z</time>
      </trkpt>
      <trkpt lat="50.31677" lon="3.48325">
        <ele>35.7060547</ele>
        <time>2012-05-07T11:37:42Z</time>
      </trkpt>
      <trkpt lat="50.31628" lon="3.48378">
        <ele>35.2254639</ele>
        <time>2012-05-07T11:37:51Z</time>
      </trkpt>
      <trkpt lat="50.31603" lon="3.48404">
        <ele>33.7834473</ele>
        <time>2012-05-07T11:37:57Z</time>
      </trkpt>
      <trkpt lat="50.31585" lon="3.48415">
        <ele>34.2641602</ele>
        <time>2012-05-07T11:38:02Z</time>
      </trkpt>
      <trkpt lat="50.31567" lon="3.48431">
        <ele>34.744873</ele>
        <time>2012-05-07T11:38:06Z</time>
      </trkpt>
      <trkpt lat="50.31545" lon="3.48437">
        <ele>34.744873</ele>
        <time>2012-05-07T11:38:10Z</time>
      </trkpt>
      <trkpt lat="50.31491" lon="3.48428">
        <ele>35.2254639</ele>
        <time>2012-05-07T11:38:19Z</time>
      </trkpt>
      <trkpt lat="50.31446" lon="3.48415">
        <ele>35.2254639</ele>
        <time>2012-05-07T11:38:27Z</time>
      </trkpt>
      <trkpt lat="50.31413" lon="3.48412">
        <ele>34.744873</ele>
        <time>2012-05-07T11:38:33Z</time>
      </trkpt>
      <trkpt lat="50.31358" lon="3.48416">
        <ele>32.8222656</ele>
        <time>2012-05-07T11:38:43Z</time>
      </trkpt>
      <trkpt lat="50.31295" lon="3.4842">
        <ele>30.8995361</ele>
        <time>2012-05-07T11:38:54Z</time>
      </trkpt>
      <trkpt lat="50.31244" lon="3.48425">
        <ele>29.9381104</ele>
        <time>2012-05-07T11:39:03Z</time>
      </trkpt>
      <trkpt lat="50.31193" lon="3.48432">
        <ele>28.4962158</ele>
        <time>2012-05-07T11:39:12Z</time>
      </trkpt>
      <trkpt lat="50.31143" lon="3.48438">
        <ele>28.0155029</ele>
        <time>2012-05-07T11:39:21Z</time>
      </trkpt>
      <trkpt lat="50.31092" lon="3.48443">
        <ele>28.4962158</ele>
        <time>2012-05-07T11:39:30Z</time>
      </trkpt>
      <trkpt lat="50.3104" lon="3.48442">
        <ele>28.4962158</ele>
        <time>2012-05-07T11:39:39Z</time>
      </trkpt>
      <trkpt lat="50.31" lon="3.48436">
        <ele>28.4962158</ele>
        <time>2012-05-07T11:39:46Z</time>
      </trkpt>
      <trkpt lat="50.30978" lon="3.48438">
        <ele>28.4962158</ele>
        <time>2012-05-07T11:39:50Z</time>
      </trkpt>
      <trkpt lat="50.30953" lon="3.48431">
        <ele>30.4188232</ele>
        <time>2012-05-07T11:39:55Z</time>
      </trkpt>
      <trkpt lat="50.30931" lon="3.48425">
        <ele>29.9381104</ele>
        <time>2012-05-07T11:39:59Z</time>
      </trkpt>
      <trkpt lat="50.30904" lon="3.48435">
        <ele>30.8995361</ele>
        <time>2012-05-07T11:40:04Z</time>
      </trkpt>
      <trkpt lat="50.30895" lon="3.48442">
        <ele>31.380127</ele>
        <time>2012-05-07T11:40:06Z</time>
      </trkpt>
      <trkpt lat="50.30887" lon="3.4845">
        <ele>30.8995361</ele>
        <time>2012-05-07T11:40:08Z</time>
      </trkpt>
      <trkpt lat="50.30879" lon="3.48457">
        <ele>30.4188232</ele>
        <time>2012-05-07T11:40:10Z</time>
      </trkpt>
      <trkpt lat="50.30867" lon="3.48486">
        <ele>32.8222656</ele>
        <time>2012-05-07T11:40:14Z</time>
      </trkpt>
      <trkpt lat="50.30864" lon="3.48494">
        <ele>33.3028564</ele>
        <time>2012-05-07T11:40:15Z</time>
      </trkpt>
      <trkpt lat="50.30842" lon="3.48532">
        <ele>32.8222656</ele>
        <time>2012-05-07T11:40:21Z</time>
      </trkpt>
      <trkpt lat="50.30824" lon="3.48559">
        <ele>31.8607178</ele>
        <time>2012-05-07T11:40:26Z</time>
      </trkpt>
      <trkpt lat="50.30809" lon="3.48576">
        <ele>31.8607178</ele>
        <time>2012-05-07T11:40:30Z</time>
      </trkpt>
      <trkpt lat="50.30785" lon="3.48605">
        <ele>31.8607178</ele>
        <time>2012-05-07T11:40:37Z</time>
      </trkpt>
      <trkpt lat="50.30775" lon="3.48628">
        <ele>34.744873</ele>
        <time>2012-05-07T11:40:41Z</time>
      </trkpt>
      <trkpt lat="50.30758" lon="3.4868">
        <ele>35.7060547</ele>
        <time>2012-05-07T11:40:49Z</time>
      </trkpt>
      <trkpt lat="50.30745" lon="3.48725">
        <ele>37.1480713</ele>
        <time>2012-05-07T11:40:56Z</time>
      </trkpt>
      <trkpt lat="50.30733" lon="3.48767">
        <ele>38.5900879</ele>
        <time>2012-05-07T11:41:03Z</time>
      </trkpt>
      <trkpt lat="50.30721" lon="3.48809">
        <ele>39.0706787</ele>
        <time>2012-05-07T11:41:10Z</time>
      </trkpt>
      <trkpt lat="50.30719" lon="3.48816">
        <ele>38.5900879</ele>
        <time>2012-05-07T11:41:11Z</time>
      </trkpt>
      <trkpt lat="50.30714" lon="3.48832">
        <ele>38.5900879</ele>
        <time>2012-05-07T11:41:14Z</time>
      </trkpt>
      <trkpt lat="50.30704" lon="3.48844">
        <ele>41.473999</ele>
        <time>2012-05-07T11:41:19Z</time>
      </trkpt>
      <trkpt lat="50.30698" lon="3.48833">
        <ele>43.3966064</ele>
        <time>2012-05-07T11:41:23Z</time>
      </trkpt>
      <trkpt lat="50.30696" lon="3.48832">
        <ele>43.8773193</ele>
        <time>2012-05-07T11:41:24Z</time>
      </trkpt>
      <trkpt lat="50.30681" lon="3.48841">
        <ele>45.3192139</ele>
        <time>2012-05-07T11:41:31Z</time>
      </trkpt>
      <trkpt lat="50.30666" lon="3.48845">
        <ele>46.2806396</ele>
        <time>2012-05-07T11:41:36Z</time>
      </trkpt>
      <trkpt lat="50.30654" lon="3.4885">
        <ele>47.7225342</ele>
        <time>2012-05-07T11:41:40Z</time>
      </trkpt>
      <trkpt lat="50.30646" lon="3.48865">
        <ele>49.1645508</ele>
        <time>2012-05-07T11:41:45Z</time>
      </trkpt>
      <trkpt lat="50.30632" lon="3.48875">
        <ele>51.0871582</ele>
        <time>2012-05-07T11:41:52Z</time>
      </trkpt>
      <trkpt lat="50.30619" lon="3.48886">
        <ele>53.4904785</ele>
        <time>2012-05-07T11:41:59Z</time>
      </trkpt>
      <trkpt lat="50.30618" lon="3.48889">
        <ele>53.9711914</ele>
        <time>2012-05-07T11:42:00Z</time>
      </trkpt>
      <trkpt lat="50.30618" lon="3.48911">
        <ele>53.9711914</ele>
        <time>2012-05-07T11:42:06Z</time>
      </trkpt>
      <trkpt lat="50.30617" lon="3.48912">
        <ele>53.9711914</ele>
        <time>2012-05-07T11:42:09Z</time>
      </trkpt>
      <trkpt lat="50.30618" lon="3.48924">
        <ele>53.4904785</ele>
        <time>2012-05-07T11:42:31Z</time>
      </trkpt>
      <trkpt lat="50.30611" lon="3.48932">
        <ele>53.4904785</ele>
        <time>2012-05-07T11:42:34Z</time>
      </trkpt>
      <trkpt lat="50.30589" lon="3.48944">
        <ele>55.4130859</ele>
        <time>2012-05-07T11:42:41Z</time>
      </trkpt>
      <trkpt lat="50.30563" lon="3.48953">
        <ele>56.3745117</ele>
        <time>2012-05-07T11:42:49Z</time>
      </trkpt>
      <trkpt lat="50.30535" lon="3.48951">
        <ele>57.3358154</ele>
        <time>2012-05-07T11:42:57Z</time>
      </trkpt>
      <trkpt lat="50.30517" lon="3.4895">
        <ele>58.2971191</ele>
        <time>2012-05-07T11:43:02Z</time>
      </trkpt>
      <trkpt lat="50.30489" lon="3.48956">
        <ele>59.2584229</ele>
        <time>2012-05-07T11:43:10Z</time>
      </trkpt>
      <trkpt lat="50.30458" lon="3.48966">
        <ele>59.7391357</ele>
        <time>2012-05-07T11:43:19Z</time>
      </trkpt>
      <trkpt lat="50.30453" lon="3.48973">
        <ele>59.7391357</ele>
        <time>2012-05-07T11:43:21Z</time>
      </trkpt>
      <trkpt lat="50.30457" lon="3.48995">
        <ele>58.77771</ele>
        <time>2012-05-07T11:43:25Z</time>
      </trkpt>
      <trkpt lat="50.30471" lon="3.49033">
        <ele>56.3745117</ele>
        <time>2012-05-07T11:43:32Z</time>
      </trkpt>
      <trkpt lat="50.30482" lon="3.49056">
        <ele>56.3745117</ele>
        <time>2012-05-07T11:43:37Z</time>
      </trkpt>
      <trkpt lat="50.30498" lon="3.4909">
        <ele>55.8937988</ele>
        <time>2012-05-07T11:43:44Z</time>
      </trkpt>
      <trkpt lat="50.30513" lon="3.49121">
        <ele>54.932373</ele>
        <time>2012-05-07T11:43:50Z</time>
      </trkpt>
      <trkpt lat="50.3051" lon="3.49142">
        <ele>55.8937988</ele>
        <time>2012-05-07T11:43:54Z</time>
      </trkpt>
      <trkpt lat="50.30506" lon="3.49146">
        <ele>55.8937988</ele>
        <time>2012-05-07T11:43:55Z</time>
      </trkpt>
      <trkpt lat="50.3049" lon="3.49166">
        <ele>56.3745117</ele>
        <time>2012-05-07T11:44:00Z</time>
      </trkpt>
      <trkpt lat="50.3048" lon="3.4919">
        <ele>57.8165283</ele>
        <time>2012-05-07T11:44:05Z</time>
      </trkpt>
      <trkpt lat="50.30481" lon="3.49195">
        <ele>58.2971191</ele>
        <time>2012-05-07T11:44:06Z</time>
      </trkpt>
      <trkpt lat="50.30483" lon="3.49206">
        <ele>57.8165283</ele>
        <time>2012-05-07T11:44:08Z</time>
      </trkpt>
      <trkpt lat="50.30479" lon="3.49225">
        <ele>58.2971191</ele>
        <time>2012-05-07T11:44:12Z</time>
      </trkpt>
      <trkpt lat="50.30472" lon="3.49245">
        <ele>59.2584229</ele>
        <time>2012-05-07T11:44:19Z</time>
      </trkpt>
      <trkpt lat="50.30464" lon="3.49276">
        <ele>60.7003174</ele>
        <time>2012-05-07T11:44:25Z</time>
      </trkpt>
      <trkpt lat="50.3045" lon="3.49325">
        <ele>61.1810303</ele>
        <time>2012-05-07T11:44:34Z</time>
      </trkpt>
      <trkpt lat="50.30437" lon="3.49364">
        <ele>62.142334</ele>
        <time>2012-05-07T11:44:41Z</time>
      </trkpt>
      <trkpt lat="50.30425" lon="3.49397">
        <ele>64.0650635</ele>
        <time>2012-05-07T11:44:48Z</time>
      </trkpt>
      <trkpt lat="50.30416" lon="3.49424">
        <ele>65.5070801</ele>
        <time>2012-05-07T11:44:55Z</time>
      </trkpt>
      <trkpt lat="50.30406" lon="3.49459">
        <ele>66.4682617</ele>
        <time>2012-05-07T11:45:03Z</time>
      </trkpt>
      <trkpt lat="50.3039" lon="3.49512">
        <ele>65.9876709</ele>
        <time>2012-05-07T11:45:12Z</time>
      </trkpt>
      <trkpt lat="50.30388" lon="3.49519">
        <ele>65.9876709</ele>
        <time>2012-05-07T11:45:13Z</time>
      </trkpt>
      <trkpt lat="50.30373" lon="3.49565">
        <ele>64.5456543</ele>
        <time>2012-05-07T11:45:19Z</time>
      </trkpt>
      <trkpt lat="50.30351" lon="3.49636">
        <ele>62.6229248</ele>
        <time>2012-05-07T11:45:27Z</time>
      </trkpt>
      <trkpt lat="50.30327" lon="3.49709">
        <ele>59.7391357</ele>
        <time>2012-05-07T11:45:35Z</time>
      </trkpt>
      <trkpt lat="50.30306" lon="3.49728">
        <ele>59.2584229</ele>
        <time>2012-05-07T11:45:39Z</time>
      </trkpt>
      <trkpt lat="50.30265" lon="3.49724">
        <ele>61.6617432</ele>
        <time>2012-05-07T11:45:47Z</time>
      </trkpt>
      <trkpt lat="50.30249" lon="3.4974">
        <ele>62.142334</ele>
        <time>2012-05-07T11:45:51Z</time>
      </trkpt>
      <trkpt lat="50.30229" lon="3.49799">
        <ele>64.0650635</ele>
        <time>2012-05-07T11:46:00Z</time>
      </trkpt>
      <trkpt lat="50.30212" lon="3.49848">
        <ele>66.9489746</ele>
        <time>2012-05-07T11:46:08Z</time>
      </trkpt>
      <trkpt lat="50.30195" lon="3.49894">
        <ele>68.871582</ele>
        <time>2012-05-07T11:46:17Z</time>
      </trkpt>
      <trkpt lat="50.30185" lon="3.49923">
        <ele>69.8328857</ele>
        <time>2012-05-07T11:46:23Z</time>
      </trkpt>
      <trkpt lat="50.30172" lon="3.49958">
        <ele>71.2749023</ele>
        <time>2012-05-07T11:46:30Z</time>
      </trkpt>
      <trkpt lat="50.3016" lon="3.49995">
        <ele>72.2362061</ele>
        <time>2012-05-07T11:46:37Z</time>
      </trkpt>
      <trkpt lat="50.30148" lon="3.50039">
        <ele>73.6782227</ele>
        <time>2012-05-07T11:46:45Z</time>
      </trkpt>
      <trkpt lat="50.30136" lon="3.50081">
        <ele>74.6395264</ele>
        <time>2012-05-07T11:46:53Z</time>
      </trkpt>
      <trkpt lat="50.30124" lon="3.50125">
        <ele>73.6782227</ele>
        <time>2012-05-07T11:47:00Z</time>
      </trkpt>
      <trkpt lat="50.30113" lon="3.50175">
        <ele>70.3134766</ele>
        <time>2012-05-07T11:47:05Z</time>
      </trkpt>
      <trkpt lat="50.30094" lon="3.50263">
        <ele>65.9876709</ele>
        <time>2012-05-07T11:47:12Z</time>
      </trkpt>
      <trkpt lat="50.30088" lon="3.50298">
        <ele>65.9876709</ele>
        <time>2012-05-07T11:47:15Z</time>
      </trkpt>
      <trkpt lat="50.30072" lon="3.50347">
        <ele>66.4682617</ele>
        <time>2012-05-07T11:47:21Z</time>
      </trkpt>
      <trkpt lat="50.30069" lon="3.50354">
        <ele>66.9489746</ele>
        <time>2012-05-07T11:47:22Z</time>
      </trkpt>
      <trkpt lat="50.30065" lon="3.50367">
        <ele>67.4296875</ele>
        <time>2012-05-07T11:47:24Z</time>
      </trkpt>
      <trkpt lat="50.30058" lon="3.50388">
        <ele>68.3908691</ele>
        <time>2012-05-07T11:47:28Z</time>
      </trkpt>
      <trkpt lat="50.30055" lon="3.50396">
        <ele>68.871582</ele>
        <time>2012-05-07T11:47:30Z</time>
      </trkpt>
      <trkpt lat="50.30048" lon="3.50414">
        <ele>69.8328857</ele>
        <time>2012-05-07T11:47:37Z</time>
      </trkpt>
      <trkpt lat="50.30042" lon="3.50429">
        <ele>71.2749023</ele>
        <time>2012-05-07T11:47:45Z</time>
      </trkpt>
      <trkpt lat="50.30035" lon="3.50449">
        <ele>72.2362061</ele>
        <time>2012-05-07T11:47:51Z</time>
      </trkpt>
      <trkpt lat="50.30029" lon="3.50468">
        <ele>73.1976318</ele>
        <time>2012-05-07T11:47:56Z</time>
      </trkpt>
      <trkpt lat="50.30013" lon="3.50513">
        <ele>74.1588135</ele>
        <time>2012-05-07T11:48:08Z</time>
      </trkpt>
      <trkpt lat="50.30002" lon="3.50542">
        <ele>75.1202393</ele>
        <time>2012-05-07T11:48:16Z</time>
      </trkpt>
      <trkpt lat="50.29989" lon="3.50579">
        <ele>76.0814209</ele>
        <time>2012-05-07T11:48:25Z</time>
      </trkpt>
      <trkpt lat="50.29978" lon="3.50611">
        <ele>77.0428467</ele>
        <time>2012-05-07T11:48:33Z</time>
      </trkpt>
      <trkpt lat="50.29961" lon="3.50657">
        <ele>78.0040283</ele>
        <time>2012-05-07T11:48:44Z</time>
      </trkpt>
      <trkpt lat="50.2995" lon="3.50688">
        <ele>78.4847412</ele>
        <time>2012-05-07T11:48:52Z</time>
      </trkpt>
      <trkpt lat="50.29941" lon="3.5071">
        <ele>78.4847412</ele>
        <time>2012-05-07T11:48:58Z</time>
      </trkpt>
      <trkpt lat="50.29925" lon="3.50755">
        <ele>79.9266357</ele>
        <time>2012-05-07T11:49:09Z</time>
      </trkpt>
      <trkpt lat="50.29913" lon="3.50787">
        <ele>80.4074707</ele>
        <time>2012-05-07T11:49:17Z</time>
      </trkpt>
      <trkpt lat="50.299" lon="3.50821">
        <ele>80.4074707</ele>
        <time>2012-05-07T11:49:25Z</time>
      </trkpt>
      <trkpt lat="50.29888" lon="3.50856">
        <ele>81.3687744</ele>
        <time>2012-05-07T11:49:33Z</time>
      </trkpt>
      <trkpt lat="50.29871" lon="3.50903">
        <ele>82.3300781</ele>
        <time>2012-05-07T11:49:42Z</time>
      </trkpt>
      <trkpt lat="50.2985" lon="3.50961">
        <ele>82.810791</ele>
        <time>2012-05-07T11:49:53Z</time>
      </trkpt>
      <trkpt lat="50.29833" lon="3.5101">
        <ele>83.2913818</ele>
        <time>2012-05-07T11:50:02Z</time>
      </trkpt>
      <trkpt lat="50.29808" lon="3.5108">
        <ele>83.7719727</ele>
        <time>2012-05-07T11:50:14Z</time>
      </trkpt>
      <trkpt lat="50.29784" lon="3.51152">
        <ele>83.7719727</ele>
        <time>2012-05-07T11:50:26Z</time>
      </trkpt>
      <trkpt lat="50.29764" lon="3.51207">
        <ele>84.2526855</ele>
        <time>2012-05-07T11:50:35Z</time>
      </trkpt>
      <trkpt lat="50.29741" lon="3.51271">
        <ele>83.2913818</ele>
        <time>2012-05-07T11:50:45Z</time>
      </trkpt>
      <trkpt lat="50.29726" lon="3.51317">
        <ele>81.8493652</ele>
        <time>2012-05-07T11:50:52Z</time>
      </trkpt>
      <trkpt lat="50.2971" lon="3.51329">
        <ele>81.8493652</ele>
        <time>2012-05-07T11:50:56Z</time>
      </trkpt>
      <trkpt lat="50.29698" lon="3.51311">
        <ele>82.3300781</ele>
        <time>2012-05-07T11:51:00Z</time>
      </trkpt>
      <trkpt lat="50.29666" lon="3.51281">
        <ele>84.7333984</ele>
        <time>2012-05-07T11:51:10Z</time>
      </trkpt>
      <trkpt lat="50.29643" lon="3.51266">
        <ele>86.175293</ele>
        <time>2012-05-07T11:51:17Z</time>
      </trkpt>
      <trkpt lat="50.29621" lon="3.5126">
        <ele>87.1365967</ele>
        <time>2012-05-07T11:51:23Z</time>
      </trkpt>
      <trkpt lat="50.29597" lon="3.51254">
        <ele>88.0980225</ele>
        <time>2012-05-07T11:51:29Z</time>
      </trkpt>
      <trkpt lat="50.29556" lon="3.51254">
        <ele>90.0206299</ele>
        <time>2012-05-07T11:51:39Z</time>
      </trkpt>
      <trkpt lat="50.29544" lon="3.51254">
        <ele>90.0206299</ele>
        <time>2012-05-07T11:51:42Z</time>
      </trkpt>
      <trkpt lat="50.29528" lon="3.51252">
        <ele>90.5013428</ele>
        <time>2012-05-07T11:51:46Z</time>
      </trkpt>
      <trkpt lat="50.29495" lon="3.51244">
        <ele>91.4625244</ele>
        <time>2012-05-07T11:51:54Z</time>
      </trkpt>
      <trkpt lat="50.29485" lon="3.51257">
        <ele>92.4239502</ele>
        <time>2012-05-07T11:51:58Z</time>
      </trkpt>
      <trkpt lat="50.29483" lon="3.51273">
        <ele>91.9432373</ele>
        <time>2012-05-07T11:52:01Z</time>
      </trkpt>
      <trkpt lat="50.2948" lon="3.51309">
        <ele>91.4625244</ele>
        <time>2012-05-07T11:52:09Z</time>
      </trkpt>
      <trkpt lat="50.29477" lon="3.51318">
        <ele>91.4625244</ele>
        <time>2012-05-07T11:52:12Z</time>
      </trkpt>
      <trkpt lat="50.29475" lon="3.51328">
        <ele>91.4625244</ele>
        <time>2012-05-07T11:52:17Z</time>
      </trkpt>
      <trkpt lat="50.29465" lon="3.51327">
        <ele>90.9819336</ele>
        <time>2012-05-07T11:52:22Z</time>
      </trkpt>
      <trkpt lat="50.29436" lon="3.51316">
        <ele>90.9819336</ele>
        <time>2012-05-07T11:52:33Z</time>
      </trkpt>
      <trkpt lat="50.29434" lon="3.51315">
        <ele>90.9819336</ele>
        <time>2012-05-07T11:52:34Z</time>
      </trkpt>
      <trkpt lat="50.29432" lon="3.51324">
        <ele>90.5013428</ele>
        <time>2012-05-07T11:52:40Z</time>
      </trkpt>
      <trkpt lat="50.29431" lon="3.51326">
        <ele>90.0206299</ele>
        <time>2012-05-07T11:52:41Z</time>
      </trkpt>
      <trkpt lat="50.29431" lon="3.51328">
        <ele>89.539917</ele>
        <time>2012-05-07T11:52:44Z</time>
      </trkpt>
      <trkpt lat="50.29433" lon="3.5132">
        <ele>92.4239502</ele>
        <time>2012-05-07T11:52:54Z</time>
      </trkpt>
      <trkpt lat="50.29442" lon="3.51324">
        <ele>91.4625244</ele>
        <time>2012-05-07T11:52:59Z</time>
      </trkpt>
      <trkpt lat="50.29458" lon="3.51331">
        <ele>90.5013428</ele>
        <time>2012-05-07T11:53:05Z</time>
      </trkpt>
      <trkpt lat="50.29472" lon="3.51331">
        <ele>89.539917</ele>
        <time>2012-05-07T11:53:10Z</time>
      </trkpt>
      <trkpt lat="50.2948" lon="3.51314">
        <ele>90.9819336</ele>
        <time>2012-05-07T11:53:15Z</time>
      </trkpt>
      <trkpt lat="50.29484" lon="3.51279">
        <ele>92.904541</ele>
        <time>2012-05-07T11:53:22Z</time>
      </trkpt>
      <trkpt lat="50.29482" lon="3.51248">
        <ele>94.3465576</ele>
        <time>2012-05-07T11:53:28Z</time>
      </trkpt>
      <trkpt lat="50.29479" lon="3.51245">
        <ele>94.8271484</ele>
        <time>2012-05-07T11:53:29Z</time>
      </trkpt>
      <trkpt lat="50.29472" lon="3.51242">
        <ele>94.3465576</ele>
        <time>2012-05-07T11:53:32Z</time>
      </trkpt>
      <trkpt lat="50.29457" lon="3.51229">
        <ele>94.3465576</ele>
        <time>2012-05-07T11:53:37Z</time>
      </trkpt>
      <trkpt lat="50.2943" lon="3.51212">
        <ele>96.7498779</ele>
        <time>2012-05-07T11:53:44Z</time>
      </trkpt>
      <trkpt lat="50.29427" lon="3.5121">
        <ele>97.2304688</ele>
        <time>2012-05-07T11:53:45Z</time>
      </trkpt>
      <trkpt lat="50.29404" lon="3.5121">
        <ele>96.7498779</ele>
        <time>2012-05-07T11:53:50Z</time>
      </trkpt>
      <trkpt lat="50.29349" lon="3.51215">
        <ele>96.7498779</ele>
        <time>2012-05-07T11:54:02Z</time>
      </trkpt>
      <trkpt lat="50.29311" lon="3.51213">
        <ele>97.2304688</ele>
        <time>2012-05-07T11:54:10Z</time>
      </trkpt>
      <trkpt lat="50.29265" lon="3.51212">
        <ele>97.2304688</ele>
        <time>2012-05-07T11:54:19Z</time>
      </trkpt>
      <trkpt lat="50.29254" lon="3.51212">
        <ele>97.2304688</ele>
        <time>2012-05-07T11:54:21Z</time>
      </trkpt>
      <trkpt lat="50.29229" lon="3.51213">
        <ele>97.2304688</ele>
        <time>2012-05-07T11:54:26Z</time>
      </trkpt>
      <trkpt lat="50.29207" lon="3.51216">
        <ele>97.2304688</ele>
        <time>2012-05-07T11:54:31Z</time>
      </trkpt>
      <trkpt lat="50.29199" lon="3.51229">
        <ele>97.2304688</ele>
        <time>2012-05-07T11:54:35Z</time>
      </trkpt>
      <trkpt lat="50.29195" lon="3.51285">
        <ele>96.7498779</ele>
        <time>2012-05-07T11:54:43Z</time>
      </trkpt>
      <trkpt lat="50.29189" lon="3.51344">
        <ele>96.2692871</ele>
        <time>2012-05-07T11:54:51Z</time>
      </trkpt>
      <trkpt lat="50.29183" lon="3.51396">
        <ele>97.2304688</ele>
        <time>2012-05-07T11:54:58Z</time>
      </trkpt>
      <trkpt lat="50.29172" lon="3.51405">
        <ele>96.2692871</ele>
        <time>2012-05-07T11:55:02Z</time>
      </trkpt>
      <trkpt lat="50.29167" lon="3.51403">
        <ele>96.2692871</ele>
        <time>2012-05-07T11:55:03Z</time>
      </trkpt>
      <trkpt lat="50.29125" lon="3.51391">
        <ele>96.2692871</ele>
        <time>2012-05-07T11:55:12Z</time>
      </trkpt>
      <trkpt lat="50.29076" lon="3.51379">
        <ele>96.2692871</ele>
        <time>2012-05-07T11:55:22Z</time>
      </trkpt>
      <trkpt lat="50.29031" lon="3.51366">
        <ele>96.7498779</ele>
        <time>2012-05-07T11:55:31Z</time>
      </trkpt>
      <trkpt lat="50.2902" lon="3.51364">
        <ele>97.2304688</ele>
        <time>2012-05-07T11:55:33Z</time>
      </trkpt>
      <trkpt lat="50.29005" lon="3.51382">
        <ele>97.7111816</ele>
        <time>2012-05-07T11:55:37Z</time>
      </trkpt>
      <trkpt lat="50.29003" lon="3.51393">
        <ele>97.7111816</ele>
        <time>2012-05-07T11:55:38Z</time>
      </trkpt>
      <trkpt lat="50.28997" lon="3.51428">
        <ele>96.2692871</ele>
        <time>2012-05-07T11:55:42Z</time>
      </trkpt>
      <trkpt lat="50.28978" lon="3.51492">
        <ele>93.8658447</ele>
        <time>2012-05-07T11:55:50Z</time>
      </trkpt>
      <trkpt lat="50.28961" lon="3.5155">
        <ele>91.9432373</ele>
        <time>2012-05-07T11:55:57Z</time>
      </trkpt>
      <trkpt lat="50.28963" lon="3.51588">
        <ele>91.4625244</ele>
        <time>2012-05-07T11:56:01Z</time>
      </trkpt>
      <trkpt lat="50.28978" lon="3.51655">
        <ele>90.9819336</ele>
        <time>2012-05-07T11:56:08Z</time>
      </trkpt>
      <trkpt lat="50.2899" lon="3.51717">
        <ele>89.0593262</ele>
        <time>2012-05-07T11:56:14Z</time>
      </trkpt>
      <trkpt lat="50.29006" lon="3.51801">
        <ele>85.2139893</ele>
        <time>2012-05-07T11:56:21Z</time>
      </trkpt>
      <trkpt lat="50.29015" lon="3.51851">
        <ele>82.810791</ele>
        <time>2012-05-07T11:56:25Z</time>
      </trkpt>
      <trkpt lat="50.29018" lon="3.51902">
        <ele>80.4074707</ele>
        <time>2012-05-07T11:56:29Z</time>
      </trkpt>
      <trkpt lat="50.29009" lon="3.51962">
        <ele>79.4460449</ele>
        <time>2012-05-07T11:56:34Z</time>
      </trkpt>
      <trkpt lat="50.28985" lon="3.52037">
        <ele>78.9654541</ele>
        <time>2012-05-07T11:56:41Z</time>
      </trkpt>
      <trkpt lat="50.28959" lon="3.52115">
        <ele>79.4460449</ele>
        <time>2012-05-07T11:56:49Z</time>
      </trkpt>
      <trkpt lat="50.2894" lon="3.52178">
        <ele>80.8881836</ele>
        <time>2012-05-07T11:56:56Z</time>
      </trkpt>
      <trkpt lat="50.28926" lon="3.52238">
        <ele>81.8493652</ele>
        <time>2012-05-07T11:57:03Z</time>
      </trkpt>
      <trkpt lat="50.28908" lon="3.52324">
        <ele>83.2913818</ele>
        <time>2012-05-07T11:57:13Z</time>
      </trkpt>
      <trkpt lat="50.28896" lon="3.52393">
        <ele>84.2526855</ele>
        <time>2012-05-07T11:57:21Z</time>
      </trkpt>
      <trkpt lat="50.28886" lon="3.52478">
        <ele>85.6945801</ele>
        <time>2012-05-07T11:57:31Z</time>
      </trkpt>
      <trkpt lat="50.28877" lon="3.52547">
        <ele>88.5787354</ele>
        <time>2012-05-07T11:57:40Z</time>
      </trkpt>
      <trkpt lat="50.28873" lon="3.52589">
        <ele>90.5013428</ele>
        <time>2012-05-07T11:57:46Z</time>
      </trkpt>
      <trkpt lat="50.28859" lon="3.52645">
        <ele>91.4625244</ele>
        <time>2012-05-07T11:57:55Z</time>
      </trkpt>
      <trkpt lat="50.28843" lon="3.527">
        <ele>93.3851318</ele>
        <time>2012-05-07T11:58:05Z</time>
      </trkpt>
      <trkpt lat="50.28835" lon="3.52742">
        <ele>92.904541</ele>
        <time>2012-05-07T11:58:12Z</time>
      </trkpt>
      <trkpt lat="50.28834" lon="3.52771">
        <ele>92.4239502</ele>
        <time>2012-05-07T11:58:17Z</time>
      </trkpt>
      <trkpt lat="50.28824" lon="3.52828">
        <ele>93.3851318</ele>
        <time>2012-05-07T11:58:27Z</time>
      </trkpt>
      <trkpt lat="50.28817" lon="3.52871">
        <ele>93.8658447</ele>
        <time>2012-05-07T11:58:35Z</time>
      </trkpt>
      <trkpt lat="50.2881" lon="3.52898">
        <ele>94.8271484</ele>
        <time>2012-05-07T11:58:40Z</time>
      </trkpt>
      <trkpt lat="50.28806" lon="3.52921">
        <ele>94.8271484</ele>
        <time>2012-05-07T11:58:45Z</time>
      </trkpt>
      <trkpt lat="50.2878" lon="3.52928">
        <ele>95.3077393</ele>
        <time>2012-05-07T11:58:52Z</time>
      </trkpt>
      <trkpt lat="50.28756" lon="3.52935">
        <ele>94.8271484</ele>
        <time>2012-05-07T11:58:57Z</time>
      </trkpt>
      <trkpt lat="50.28718" lon="3.52949">
        <ele>93.3851318</ele>
        <time>2012-05-07T11:59:04Z</time>
      </trkpt>
      <trkpt lat="50.28674" lon="3.52968">
        <ele>91.9432373</ele>
        <time>2012-05-07T11:59:12Z</time>
      </trkpt>
      <trkpt lat="50.28629" lon="3.5299">
        <ele>89.539917</ele>
        <time>2012-05-07T11:59:20Z</time>
      </trkpt>
      <trkpt lat="50.28568" lon="3.53019">
        <ele>88.5787354</ele>
        <time>2012-05-07T11:59:31Z</time>
      </trkpt>
      <trkpt lat="50.28503" lon="3.53049">
        <ele>87.6171875</ele>
        <time>2012-05-07T11:59:43Z</time>
      </trkpt>
      <trkpt lat="50.28434" lon="3.53082">
        <ele>87.6171875</ele>
        <time>2012-05-07T11:59:56Z</time>
      </trkpt>
      <trkpt lat="50.28408" lon="3.53094">
        <ele>87.6171875</ele>
        <time>2012-05-07T12:00:02Z</time>
      </trkpt>
      <trkpt lat="50.28395" lon="3.531">
        <ele>87.6171875</ele>
        <time>2012-05-07T12:00:07Z</time>
      </trkpt>
      <trkpt lat="50.28376" lon="3.53109">
        <ele>88.0980225</ele>
        <time>2012-05-07T12:00:13Z</time>
      </trkpt>
      <trkpt lat="50.28335" lon="3.53127">
        <ele>88.5787354</ele>
        <time>2012-05-07T12:00:23Z</time>
      </trkpt>
      <trkpt lat="50.28296" lon="3.53144">
        <ele>88.5787354</ele>
        <time>2012-05-07T12:00:32Z</time>
      </trkpt>
      <trkpt lat="50.28249" lon="3.5316">
        <ele>89.0593262</ele>
        <time>2012-05-07T12:00:43Z</time>
      </trkpt>
      <trkpt lat="50.28206" lon="3.53174">
        <ele>89.539917</ele>
        <time>2012-05-07T12:00:53Z</time>
      </trkpt>
      <trkpt lat="50.28162" lon="3.53188">
        <ele>90.0206299</ele>
        <time>2012-05-07T12:01:03Z</time>
      </trkpt>
      <trkpt lat="50.28144" lon="3.53194">
        <ele>90.5013428</ele>
        <time>2012-05-07T12:01:07Z</time>
      </trkpt>
      <trkpt lat="50.28101" lon="3.53208">
        <ele>91.4625244</ele>
        <time>2012-05-07T12:01:17Z</time>
      </trkpt>
      <trkpt lat="50.28067" lon="3.53219">
        <ele>92.4239502</ele>
        <time>2012-05-07T12:01:25Z</time>
      </trkpt>
      <trkpt lat="50.28033" lon="3.53229">
        <ele>93.8658447</ele>
        <time>2012-05-07T12:01:33Z</time>
      </trkpt>
      <trkpt lat="50.27994" lon="3.53243">
        <ele>94.3465576</ele>
        <time>2012-05-07T12:01:42Z</time>
      </trkpt>
      <trkpt lat="50.27955" lon="3.53259">
        <ele>93.8658447</ele>
        <time>2012-05-07T12:01:51Z</time>
      </trkpt>
      <trkpt lat="50.27911" lon="3.53276">
        <ele>93.8658447</ele>
        <time>2012-05-07T12:02:00Z</time>
      </trkpt>
      <trkpt lat="50.27881" lon="3.53288">
        <ele>93.8658447</ele>
        <time>2012-05-07T12:02:06Z</time>
      </trkpt>
      <trkpt lat="50.27872" lon="3.53294">
        <ele>93.8658447</ele>
        <time>2012-05-07T12:02:08Z</time>
      </trkpt>
      <trkpt lat="50.27853" lon="3.533">
        <ele>94.3465576</ele>
        <time>2012-05-07T12:02:12Z</time>
      </trkpt>
      <trkpt lat="50.2781" lon="3.53317">
        <ele>94.8271484</ele>
        <time>2012-05-07T12:02:21Z</time>
      </trkpt>
      <trkpt lat="50.27777" lon="3.53331">
        <ele>94.8271484</ele>
        <time>2012-05-07T12:02:28Z</time>
      </trkpt>
      <trkpt lat="50.27722" lon="3.53353">
        <ele>95.7884521</ele>
        <time>2012-05-07T12:02:40Z</time>
      </trkpt>
      <trkpt lat="50.27663" lon="3.53376">
        <ele>97.2304688</ele>
        <time>2012-05-07T12:02:53Z</time>
      </trkpt>
      <trkpt lat="50.27646" lon="3.53385">
        <ele>98.1918945</ele>
        <time>2012-05-07T12:02:57Z</time>
      </trkpt>
      <trkpt lat="50.27632" lon="3.534">
        <ele>98.6724854</ele>
        <time>2012-05-07T12:03:02Z</time>
      </trkpt>
      <trkpt lat="50.27626" lon="3.53402">
        <ele>98.6724854</ele>
        <time>2012-05-07T12:03:04Z</time>
      </trkpt>
      <trkpt lat="50.27605" lon="3.53401">
        <ele>98.1918945</ele>
        <time>2012-05-07T12:03:09Z</time>
      </trkpt>
      <trkpt lat="50.27577" lon="3.53412">
        <ele>97.7111816</ele>
        <time>2012-05-07T12:03:15Z</time>
      </trkpt>
      <trkpt lat="50.27538" lon="3.53425">
        <ele>97.2304688</ele>
        <time>2012-05-07T12:03:22Z</time>
      </trkpt>
      <trkpt lat="50.27488" lon="3.5345">
        <ele>96.2692871</ele>
        <time>2012-05-07T12:03:30Z</time>
      </trkpt>
      <trkpt lat="50.27482" lon="3.53454">
        <ele>96.2692871</ele>
        <time>2012-05-07T12:03:31Z</time>
      </trkpt>
      <trkpt lat="50.27445" lon="3.53472">
        <ele>96.2692871</ele>
        <time>2012-05-07T12:03:37Z</time>
      </trkpt>
      <trkpt lat="50.27416" lon="3.53486">
        <ele>96.2692871</ele>
        <time>2012-05-07T12:03:42Z</time>
      </trkpt>
      <trkpt lat="50.27359" lon="3.53516">
        <ele>95.7884521</ele>
        <time>2012-05-07T12:03:52Z</time>
      </trkpt>
      <trkpt lat="50.2733" lon="3.53528">
        <ele>95.3077393</ele>
        <time>2012-05-07T12:03:57Z</time>
      </trkpt>
      <trkpt lat="50.27291" lon="3.53528">
        <ele>94.3465576</ele>
        <time>2012-05-07T12:04:04Z</time>
      </trkpt>
      <trkpt lat="50.27285" lon="3.53527">
        <ele>94.3465576</ele>
        <time>2012-05-07T12:04:05Z</time>
      </trkpt>
      <trkpt lat="50.27248" lon="3.53513">
        <ele>94.3465576</ele>
        <time>2012-05-07T12:04:12Z</time>
      </trkpt>
      <trkpt lat="50.27237" lon="3.5351">
        <ele>93.3851318</ele>
        <time>2012-05-07T12:04:14Z</time>
      </trkpt>
      <trkpt lat="50.27175" lon="3.53501">
        <ele>90.0206299</ele>
        <time>2012-05-07T12:04:25Z</time>
      </trkpt>
      <trkpt lat="50.27134" lon="3.53498">
        <ele>88.5787354</ele>
        <time>2012-05-07T12:04:32Z</time>
      </trkpt>
      <trkpt lat="50.27086" lon="3.53494">
        <ele>86.6560059</ele>
        <time>2012-05-07T12:04:39Z</time>
      </trkpt>
      <trkpt lat="50.27024" lon="3.53488">
        <ele>85.2139893</ele>
        <time>2012-05-07T12:04:48Z</time>
      </trkpt>
      <trkpt lat="50.26963" lon="3.53483">
        <ele>85.2139893</ele>
        <time>2012-05-07T12:04:58Z</time>
      </trkpt>
      <trkpt lat="50.269" lon="3.53478">
        <ele>85.6945801</ele>
        <time>2012-05-07T12:05:09Z</time>
      </trkpt>
      <trkpt lat="50.26865" lon="3.53474">
        <ele>86.175293</ele>
        <time>2012-05-07T12:05:16Z</time>
      </trkpt>
      <trkpt lat="50.26813" lon="3.53471">
        <ele>87.1365967</ele>
        <time>2012-05-07T12:05:27Z</time>
      </trkpt>
      <trkpt lat="50.26795" lon="3.53468">
        <ele>87.6171875</ele>
        <time>2012-05-07T12:05:31Z</time>
      </trkpt>
      <trkpt lat="50.26758" lon="3.53456">
        <ele>88.0980225</ele>
        <time>2012-05-07T12:05:40Z</time>
      </trkpt>
      <trkpt lat="50.26732" lon="3.53446">
        <ele>89.539917</ele>
        <time>2012-05-07T12:05:47Z</time>
      </trkpt>
      <trkpt lat="50.26706" lon="3.53436">
        <ele>90.9819336</ele>
        <time>2012-05-07T12:05:54Z</time>
      </trkpt>
      <trkpt lat="50.26671" lon="3.53424">
        <ele>91.9432373</ele>
        <time>2012-05-07T12:06:03Z</time>
      </trkpt>
      <trkpt lat="50.26632" lon="3.53414">
        <ele>91.9432373</ele>
        <time>2012-05-07T12:06:12Z</time>
      </trkpt>
      <trkpt lat="50.26592" lon="3.53404">
        <ele>91.9432373</ele>
        <time>2012-05-07T12:06:21Z</time>
      </trkpt>
      <trkpt lat="50.26583" lon="3.53402">
        <ele>91.9432373</ele>
        <time>2012-05-07T12:06:23Z</time>
      </trkpt>
      <trkpt lat="50.2654" lon="3.5339">
        <ele>91.9432373</ele>
        <time>2012-05-07T12:06:33Z</time>
      </trkpt>
      <trkpt lat="50.26486" lon="3.53375">
        <ele>92.4239502</ele>
        <time>2012-05-07T12:06:45Z</time>
      </trkpt>
      <trkpt lat="50.26437" lon="3.53362">
        <ele>93.3851318</ele>
        <time>2012-05-07T12:06:56Z</time>
      </trkpt>
      <trkpt lat="50.26391" lon="3.5335">
        <ele>94.3465576</ele>
        <time>2012-05-07T12:07:07Z</time>
      </trkpt>
      <trkpt lat="50.26345" lon="3.53338">
        <ele>95.7884521</ele>
        <time>2012-05-07T12:07:18Z</time>
      </trkpt>
      <trkpt lat="50.26325" lon="3.53332">
        <ele>97.2304688</ele>
        <time>2012-05-07T12:07:23Z</time>
      </trkpt>
      <trkpt lat="50.26298" lon="3.5332">
        <ele>99.1530762</ele>
        <time>2012-05-07T12:07:31Z</time>
      </trkpt>
      <trkpt lat="50.26275" lon="3.53311">
        <ele>100.114502</ele>
        <time>2012-05-07T12:07:37Z</time>
      </trkpt>
      <trkpt lat="50.26245" lon="3.53301">
        <ele>100.114502</ele>
        <time>2012-05-07T12:07:45Z</time>
      </trkpt>
      <trkpt lat="50.26215" lon="3.53297">
        <ele>101.0756836</ele>
        <time>2012-05-07T12:07:53Z</time>
      </trkpt>
      <trkpt lat="50.26193" lon="3.53294">
        <ele>100.5950928</ele>
        <time>2012-05-07T12:07:59Z</time>
      </trkpt>
      <trkpt lat="50.26189" lon="3.53295">
        <ele>101.0756836</ele>
        <time>2012-05-07T12:08:00Z</time>
      </trkpt>
      <trkpt lat="50.26185" lon="3.5331">
        <ele>101.0756836</ele>
        <time>2012-05-07T12:08:04Z</time>
      </trkpt>
      <trkpt lat="50.26191" lon="3.53331">
        <ele>100.5950928</ele>
        <time>2012-05-07T12:08:09Z</time>
      </trkpt>
      <trkpt lat="50.26199" lon="3.5336">
        <ele>98.6724854</ele>
        <time>2012-05-07T12:08:14Z</time>
      </trkpt>
      <trkpt lat="50.26213" lon="3.53409">
        <ele>96.7498779</ele>
        <time>2012-05-07T12:08:21Z</time>
      </trkpt>
      <trkpt lat="50.26227" lon="3.53464">
        <ele>92.904541</ele>
        <time>2012-05-07T12:08:27Z</time>
      </trkpt>
      <trkpt lat="50.26245" lon="3.53535">
        <ele>87.6171875</ele>
        <time>2012-05-07T12:08:34Z</time>
      </trkpt>
      <trkpt lat="50.2627" lon="3.53622">
        <ele>84.7333984</ele>
        <time>2012-05-07T12:08:43Z</time>
      </trkpt>
      <trkpt lat="50.26293" lon="3.53706">
        <ele>80.8881836</ele>
        <time>2012-05-07T12:08:52Z</time>
      </trkpt>
      <trkpt lat="50.2631" lon="3.53763">
        <ele>79.9266357</ele>
        <time>2012-05-07T12:08:59Z</time>
      </trkpt>
      <trkpt lat="50.26326" lon="3.53816">
        <ele>80.8881836</ele>
        <time>2012-05-07T12:09:06Z</time>
      </trkpt>
      <trkpt lat="50.26338" lon="3.53857">
        <ele>81.3687744</ele>
        <time>2012-05-07T12:09:12Z</time>
      </trkpt>
      <trkpt lat="50.26345" lon="3.53881">
        <ele>81.3687744</ele>
        <time>2012-05-07T12:09:16Z</time>
      </trkpt>
      <trkpt lat="50.26362" lon="3.53934">
        <ele>82.3300781</ele>
        <time>2012-05-07T12:09:24Z</time>
      </trkpt>
      <trkpt lat="50.26379" lon="3.53979">
        <ele>82.810791</ele>
        <time>2012-05-07T12:09:30Z</time>
      </trkpt>
      <trkpt lat="50.26396" lon="3.54029">
        <ele>81.3687744</ele>
        <time>2012-05-07T12:09:36Z</time>
      </trkpt>
      <trkpt lat="50.26414" lon="3.5409">
        <ele>79.4460449</ele>
        <time>2012-05-07T12:09:42Z</time>
      </trkpt>
      <trkpt lat="50.26432" lon="3.54174">
        <ele>78.4847412</ele>
        <time>2012-05-07T12:09:49Z</time>
      </trkpt>
      <trkpt lat="50.26456" lon="3.5431">
        <ele>79.4460449</ele>
        <time>2012-05-07T12:10:00Z</time>
      </trkpt>
      <trkpt lat="50.26474" lon="3.54425">
        <ele>79.9266357</ele>
        <time>2012-05-07T12:10:10Z</time>
      </trkpt>
      <trkpt lat="50.26482" lon="3.54497">
        <ele>79.9266357</ele>
        <time>2012-05-07T12:10:17Z</time>
      </trkpt>
      <trkpt lat="50.26492" lon="3.54572">
        <ele>79.9266357</ele>
        <time>2012-05-07T12:10:25Z</time>
      </trkpt>
      <trkpt lat="50.26505" lon="3.5463">
        <ele>80.4074707</ele>
        <time>2012-05-07T12:10:32Z</time>
      </trkpt>
      <trkpt lat="50.26519" lon="3.54699">
        <ele>80.4074707</ele>
        <time>2012-05-07T12:10:41Z</time>
      </trkpt>
      <trkpt lat="50.26534" lon="3.54777">
        <ele>79.9266357</ele>
        <time>2012-05-07T12:10:51Z</time>
      </trkpt>
      <trkpt lat="50.26546" lon="3.54838">
        <ele>80.8881836</ele>
        <time>2012-05-07T12:10:59Z</time>
      </trkpt>
      <trkpt lat="50.26558" lon="3.54898">
        <ele>81.8493652</ele>
        <time>2012-05-07T12:11:07Z</time>
      </trkpt>
      <trkpt lat="50.26567" lon="3.54939">
        <ele>82.810791</ele>
        <time>2012-05-07T12:11:13Z</time>
      </trkpt>
      <trkpt lat="50.26576" lon="3.54984">
        <ele>83.7719727</ele>
        <time>2012-05-07T12:11:20Z</time>
      </trkpt>
      <trkpt lat="50.26591" lon="3.55056">
        <ele>85.6945801</ele>
        <time>2012-05-07T12:11:31Z</time>
      </trkpt>
      <trkpt lat="50.26606" lon="3.55126">
        <ele>88.0980225</ele>
        <time>2012-05-07T12:11:42Z</time>
      </trkpt>
      <trkpt lat="50.2661" lon="3.55145">
        <ele>88.5787354</ele>
        <time>2012-05-07T12:11:45Z</time>
      </trkpt>
      <trkpt lat="50.26619" lon="3.55184">
        <ele>90.0206299</ele>
        <time>2012-05-07T12:11:51Z</time>
      </trkpt>
      <trkpt lat="50.2663" lon="3.55236">
        <ele>91.4625244</ele>
        <time>2012-05-07T12:11:59Z</time>
      </trkpt>
      <trkpt lat="50.26638" lon="3.55276">
        <ele>92.4239502</ele>
        <time>2012-05-07T12:12:05Z</time>
      </trkpt>
      <trkpt lat="50.26649" lon="3.55337">
        <ele>92.904541</ele>
        <time>2012-05-07T12:12:14Z</time>
      </trkpt>
      <trkpt lat="50.26665" lon="3.55414">
        <ele>93.8658447</ele>
        <time>2012-05-07T12:12:25Z</time>
      </trkpt>
      <trkpt lat="50.26678" lon="3.55479">
        <ele>93.8658447</ele>
        <time>2012-05-07T12:12:34Z</time>
      </trkpt>
      <trkpt lat="50.26689" lon="3.55535">
        <ele>94.3465576</ele>
        <time>2012-05-07T12:12:42Z</time>
      </trkpt>
      <trkpt lat="50.26699" lon="3.5559">
        <ele>94.3465576</ele>
        <time>2012-05-07T12:12:50Z</time>
      </trkpt>
      <trkpt lat="50.26713" lon="3.55662">
        <ele>94.3465576</ele>
        <time>2012-05-07T12:12:59Z</time>
      </trkpt>
      <trkpt lat="50.26722" lon="3.55715">
        <ele>93.3851318</ele>
        <time>2012-05-07T12:13:05Z</time>
      </trkpt>
      <trkpt lat="50.26738" lon="3.55796">
        <ele>95.3077393</ele>
        <time>2012-05-07T12:13:14Z</time>
      </trkpt>
      <trkpt lat="50.26754" lon="3.55876">
        <ele>96.2692871</ele>
        <time>2012-05-07T12:13:22Z</time>
      </trkpt>
      <trkpt lat="50.26772" lon="3.55966">
        <ele>96.2692871</ele>
        <time>2012-05-07T12:13:31Z</time>
      </trkpt>
      <trkpt lat="50.2678" lon="3.56006">
        <ele>96.2692871</ele>
        <time>2012-05-07T12:13:36Z</time>
      </trkpt>
      <trkpt lat="50.26781" lon="3.56012">
        <ele>96.2692871</ele>
        <time>2012-05-07T12:13:37Z</time>
      </trkpt>
      <trkpt lat="50.26784" lon="3.56022">
        <ele>96.2692871</ele>
        <time>2012-05-07T12:13:40Z</time>
      </trkpt>
      <trkpt lat="50.26785" lon="3.56023">
        <ele>96.2692871</ele>
        <time>2012-05-07T12:13:43Z</time>
      </trkpt>
      <trkpt lat="50.26795" lon="3.56033">
        <ele>103.9597168</ele>
        <time>2012-05-07T12:19:51Z</time>
      </trkpt>
      <trkpt lat="50.26797" lon="3.56048">
        <ele>103.4790039</ele>
        <time>2012-05-07T12:19:54Z</time>
      </trkpt>
      <trkpt lat="50.26806" lon="3.561">
        <ele>101.0756836</ele>
        <time>2012-05-07T12:20:04Z</time>
      </trkpt>
      <trkpt lat="50.26815" lon="3.5614">
        <ele>99.6337891</ele>
        <time>2012-05-07T12:20:10Z</time>
      </trkpt>
      <trkpt lat="50.26819" lon="3.5617">
        <ele>99.1530762</ele>
        <time>2012-05-07T12:20:14Z</time>
      </trkpt>
      <trkpt lat="50.26833" lon="3.56234">
        <ele>98.1918945</ele>
        <time>2012-05-07T12:20:22Z</time>
      </trkpt>
      <trkpt lat="50.26847" lon="3.563">
        <ele>97.7111816</ele>
        <time>2012-05-07T12:20:30Z</time>
      </trkpt>
      <trkpt lat="50.26865" lon="3.56383">
        <ele>98.1918945</ele>
        <time>2012-05-07T12:20:40Z</time>
      </trkpt>
      <trkpt lat="50.26882" lon="3.56457">
        <ele>98.1918945</ele>
        <time>2012-05-07T12:20:49Z</time>
      </trkpt>
      <trkpt lat="50.269" lon="3.56539">
        <ele>99.6337891</ele>
        <time>2012-05-07T12:20:59Z</time>
      </trkpt>
      <trkpt lat="50.26911" lon="3.56592">
        <ele>100.5950928</ele>
        <time>2012-05-07T12:21:06Z</time>
      </trkpt>
      <trkpt lat="50.26924" lon="3.56658">
        <ele>101.5563965</ele>
        <time>2012-05-07T12:21:15Z</time>
      </trkpt>
      <trkpt lat="50.26939" lon="3.56724">
        <ele>102.0371094</ele>
        <time>2012-05-07T12:21:24Z</time>
      </trkpt>
      <trkpt lat="50.26954" lon="3.56782">
        <ele>102.5177002</ele>
        <time>2012-05-07T12:21:32Z</time>
      </trkpt>
      <trkpt lat="50.26968" lon="3.5684">
        <ele>100.5950928</ele>
        <time>2012-05-07T12:21:39Z</time>
      </trkpt>
      <trkpt lat="50.2698" lon="3.56904">
        <ele>98.6724854</ele>
        <time>2012-05-07T12:21:45Z</time>
      </trkpt>
      <trkpt lat="50.26992" lon="3.56978">
        <ele>97.2304688</ele>
        <time>2012-05-07T12:21:52Z</time>
      </trkpt>
      <trkpt lat="50.27" lon="3.57037">
        <ele>96.7498779</ele>
        <time>2012-05-07T12:21:58Z</time>
      </trkpt>
      <trkpt lat="50.27012" lon="3.57099">
        <ele>97.7111816</ele>
        <time>2012-05-07T12:22:05Z</time>
      </trkpt>
      <trkpt lat="50.27028" lon="3.57175">
        <ele>97.2304688</ele>
        <time>2012-05-07T12:22:14Z</time>
      </trkpt>
      <trkpt lat="50.27033" lon="3.57198">
        <ele>96.7498779</ele>
        <time>2012-05-07T12:22:17Z</time>
      </trkpt>
      <trkpt lat="50.27039" lon="3.57227">
        <ele>96.2692871</ele>
        <time>2012-05-07T12:22:21Z</time>
      </trkpt>
      <trkpt lat="50.27042" lon="3.57256">
        <ele>96.7498779</ele>
        <time>2012-05-07T12:22:26Z</time>
      </trkpt>
      <trkpt lat="50.27052" lon="3.57306">
        <ele>98.6724854</ele>
        <time>2012-05-07T12:22:36Z</time>
      </trkpt>
      <trkpt lat="50.27063" lon="3.5736">
        <ele>100.5950928</ele>
        <time>2012-05-07T12:22:46Z</time>
      </trkpt>
      <trkpt lat="50.27075" lon="3.57414">
        <ele>102.998291</ele>
        <time>2012-05-07T12:22:57Z</time>
      </trkpt>
      <trkpt lat="50.27079" lon="3.5744">
        <ele>103.9597168</ele>
        <time>2012-05-07T12:23:05Z</time>
      </trkpt>
      <trkpt lat="50.27083" lon="3.57457">
        <ele>104.4404297</ele>
        <time>2012-05-07T12:23:11Z</time>
      </trkpt>
      <trkpt lat="50.27092" lon="3.57497">
        <ele>106.8436279</ele>
        <time>2012-05-07T12:23:21Z</time>
      </trkpt>
      <trkpt lat="50.27097" lon="3.57522">
        <ele>107.3243408</ele>
        <time>2012-05-07T12:23:27Z</time>
      </trkpt>
      <trkpt lat="50.27102" lon="3.57548">
        <ele>106.8436279</ele>
        <time>2012-05-07T12:23:34Z</time>
      </trkpt>
      <trkpt lat="50.27109" lon="3.57585">
        <ele>105.4017334</ele>
        <time>2012-05-07T12:23:41Z</time>
      </trkpt>
      <trkpt lat="50.27118" lon="3.57637">
        <ele>102.998291</ele>
        <time>2012-05-07T12:23:47Z</time>
      </trkpt>
      <trkpt lat="50.27128" lon="3.5769">
        <ele>102.5177002</ele>
        <time>2012-05-07T12:23:52Z</time>
      </trkpt>
      <trkpt lat="50.27142" lon="3.57765">
        <ele>101.5563965</ele>
        <time>2012-05-07T12:23:59Z</time>
      </trkpt>
      <trkpt lat="50.27161" lon="3.57861">
        <ele>101.0756836</ele>
        <time>2012-05-07T12:24:08Z</time>
      </trkpt>
      <trkpt lat="50.27178" lon="3.57939">
        <ele>100.5950928</ele>
        <time>2012-05-07T12:24:16Z</time>
      </trkpt>
      <trkpt lat="50.27191" lon="3.57993">
        <ele>100.114502</ele>
        <time>2012-05-07T12:24:22Z</time>
      </trkpt>
      <trkpt lat="50.27206" lon="3.58064">
        <ele>99.1530762</ele>
        <time>2012-05-07T12:24:30Z</time>
      </trkpt>
      <trkpt lat="50.27211" lon="3.58098">
        <ele>98.6724854</ele>
        <time>2012-05-07T12:24:34Z</time>
      </trkpt>
      <trkpt lat="50.27217" lon="3.58129">
        <ele>98.6724854</ele>
        <time>2012-05-07T12:24:40Z</time>
      </trkpt>
      <trkpt lat="50.27218" lon="3.58146">
        <ele>97.7111816</ele>
        <time>2012-05-07T12:24:46Z</time>
      </trkpt>
      <trkpt lat="50.2722" lon="3.58165">
        <ele>97.2304688</ele>
        <time>2012-05-07T12:24:51Z</time>
      </trkpt>
      <trkpt lat="50.2722" lon="3.58188">
        <ele>97.7111816</ele>
        <time>2012-05-07T12:24:56Z</time>
      </trkpt>
      <trkpt lat="50.27221" lon="3.58219">
        <ele>98.1918945</ele>
        <time>2012-05-07T12:25:02Z</time>
      </trkpt>
      <trkpt lat="50.27224" lon="3.58237">
        <ele>98.1918945</ele>
        <time>2012-05-07T12:25:06Z</time>
      </trkpt>
      <trkpt lat="50.27238" lon="3.58245">
        <ele>99.1530762</ele>
        <time>2012-05-07T12:25:11Z</time>
      </trkpt>
      <trkpt lat="50.27252" lon="3.58267">
        <ele>95.3077393</ele>
        <time>2012-05-07T12:25:15Z</time>
      </trkpt>
      <trkpt lat="50.27265" lon="3.58309">
        <ele>91.9432373</ele>
        <time>2012-05-07T12:25:21Z</time>
      </trkpt>
      <trkpt lat="50.27275" lon="3.5836">
        <ele>91.4625244</ele>
        <time>2012-05-07T12:25:27Z</time>
      </trkpt>
      <trkpt lat="50.27287" lon="3.58433">
        <ele>90.9819336</ele>
        <time>2012-05-07T12:25:36Z</time>
      </trkpt>
      <trkpt lat="50.27297" lon="3.58494">
        <ele>90.9819336</ele>
        <time>2012-05-07T12:25:44Z</time>
      </trkpt>
      <trkpt lat="50.27305" lon="3.58546">
        <ele>90.9819336</ele>
        <time>2012-05-07T12:25:51Z</time>
      </trkpt>
      <trkpt lat="50.2732" lon="3.5861">
        <ele>94.8271484</ele>
        <time>2012-05-07T12:26:00Z</time>
      </trkpt>
      <trkpt lat="50.27329" lon="3.58651">
        <ele>95.7884521</ele>
        <time>2012-05-07T12:26:06Z</time>
      </trkpt>
      <trkpt lat="50.27339" lon="3.58697">
        <ele>97.2304688</ele>
        <time>2012-05-07T12:26:13Z</time>
      </trkpt>
      <trkpt lat="50.27341" lon="3.58716">
        <ele>97.7111816</ele>
        <time>2012-05-07T12:26:16Z</time>
      </trkpt>
      <trkpt lat="50.27351" lon="3.58765">
        <ele>98.1918945</ele>
        <time>2012-05-07T12:26:24Z</time>
      </trkpt>
      <trkpt lat="50.27358" lon="3.58808">
        <ele>96.7498779</ele>
        <time>2012-05-07T12:26:30Z</time>
      </trkpt>
      <trkpt lat="50.27365" lon="3.5884">
        <ele>96.2692871</ele>
        <time>2012-05-07T12:26:35Z</time>
      </trkpt>
      <trkpt lat="50.2737" lon="3.58862">
        <ele>97.7111816</ele>
        <time>2012-05-07T12:26:39Z</time>
      </trkpt>
      <trkpt lat="50.27373" lon="3.58882">
        <ele>98.6724854</ele>
        <time>2012-05-07T12:26:43Z</time>
      </trkpt>
      <trkpt lat="50.2738" lon="3.58914">
        <ele>100.5950928</ele>
        <time>2012-05-07T12:26:48Z</time>
      </trkpt>
      <trkpt lat="50.27386" lon="3.58931">
        <ele>100.114502</ele>
        <time>2012-05-07T12:26:51Z</time>
      </trkpt>
      <trkpt lat="50.27394" lon="3.58969">
        <ele>98.1918945</ele>
        <time>2012-05-07T12:26:56Z</time>
      </trkpt>
      <trkpt lat="50.27407" lon="3.59025">
        <ele>97.2304688</ele>
        <time>2012-05-07T12:27:02Z</time>
      </trkpt>
      <trkpt lat="50.27415" lon="3.59063">
        <ele>95.3077393</ele>
        <time>2012-05-07T12:27:06Z</time>
      </trkpt>
      <trkpt lat="50.27429" lon="3.59123">
        <ele>93.3851318</ele>
        <time>2012-05-07T12:27:13Z</time>
      </trkpt>
      <trkpt lat="50.27437" lon="3.59155">
        <ele>93.3851318</ele>
        <time>2012-05-07T12:27:17Z</time>
      </trkpt>
      <trkpt lat="50.27441" lon="3.59173">
        <ele>93.3851318</ele>
        <time>2012-05-07T12:27:20Z</time>
      </trkpt>
      <trkpt lat="50.27444" lon="3.59205">
        <ele>93.8658447</ele>
        <time>2012-05-07T12:27:25Z</time>
      </trkpt>
      <trkpt lat="50.2745" lon="3.59232">
        <ele>94.3465576</ele>
        <time>2012-05-07T12:27:29Z</time>
      </trkpt>
      <trkpt lat="50.27457" lon="3.5926">
        <ele>94.3465576</ele>
        <time>2012-05-07T12:27:35Z</time>
      </trkpt>
      <trkpt lat="50.2746" lon="3.59276">
        <ele>94.3465576</ele>
        <time>2012-05-07T12:27:39Z</time>
      </trkpt>
      <trkpt lat="50.27466" lon="3.59306">
        <ele>94.3465576</ele>
        <time>2012-05-07T12:27:47Z</time>
      </trkpt>
      <trkpt lat="50.27469" lon="3.59329">
        <ele>94.8271484</ele>
        <time>2012-05-07T12:27:52Z</time>
      </trkpt>
      <trkpt lat="50.27474" lon="3.59356">
        <ele>95.7884521</ele>
        <time>2012-05-07T12:27:58Z</time>
      </trkpt>
      <trkpt lat="50.27481" lon="3.59388">
        <ele>97.7111816</ele>
        <time>2012-05-07T12:28:05Z</time>
      </trkpt>
      <trkpt lat="50.27484" lon="3.59404">
        <ele>99.1530762</ele>
        <time>2012-05-07T12:28:09Z</time>
      </trkpt>
      <trkpt lat="50.27489" lon="3.59425">
        <ele>103.4790039</ele>
        <time>2012-05-07T12:28:14Z</time>
      </trkpt>
      <trkpt lat="50.27494" lon="3.59449">
        <ele>103.4790039</ele>
        <time>2012-05-07T12:28:19Z</time>
      </trkpt>
      <trkpt lat="50.27501" lon="3.5948">
        <ele>104.9210205</ele>
        <time>2012-05-07T12:28:24Z</time>
      </trkpt>
      <trkpt lat="50.27506" lon="3.59499">
        <ele>105.4017334</ele>
        <time>2012-05-07T12:28:27Z</time>
      </trkpt>
      <trkpt lat="50.27512" lon="3.59519">
        <ele>104.9210205</ele>
        <time>2012-05-07T12:28:30Z</time>
      </trkpt>
      <trkpt lat="50.27516" lon="3.59533">
        <ele>104.9210205</ele>
        <time>2012-05-07T12:28:32Z</time>
      </trkpt>
      <trkpt lat="50.27522" lon="3.59569">
        <ele>103.4790039</ele>
        <time>2012-05-07T12:28:37Z</time>
      </trkpt>
      <trkpt lat="50.27528" lon="3.59604">
        <ele>101.5563965</ele>
        <time>2012-05-07T12:28:42Z</time>
      </trkpt>
      <trkpt lat="50.27529" lon="3.59618">
        <ele>100.5950928</ele>
        <time>2012-05-07T12:28:44Z</time>
      </trkpt>
      <trkpt lat="50.27532" lon="3.59631">
        <ele>100.5950928</ele>
        <time>2012-05-07T12:28:46Z</time>
      </trkpt>
      <trkpt lat="50.27541" lon="3.59695">
        <ele>97.7111816</ele>
        <time>2012-05-07T12:28:55Z</time>
      </trkpt>
      <trkpt lat="50.27546" lon="3.59722">
        <ele>96.7498779</ele>
        <time>2012-05-07T12:28:59Z</time>
      </trkpt>
      <trkpt lat="50.27551" lon="3.59755">
        <ele>96.7498779</ele>
        <time>2012-05-07T12:29:04Z</time>
      </trkpt>
      <trkpt lat="50.27555" lon="3.59781">
        <ele>96.2692871</ele>
        <time>2012-05-07T12:29:08Z</time>
      </trkpt>
      <trkpt lat="50.27565" lon="3.59825">
        <ele>93.8658447</ele>
        <time>2012-05-07T12:29:15Z</time>
      </trkpt>
      <trkpt lat="50.27565" lon="3.59852">
        <ele>95.3077393</ele>
        <time>2012-05-07T12:29:19Z</time>
      </trkpt>
      <trkpt lat="50.27556" lon="3.59863">
        <ele>96.2692871</ele>
        <time>2012-05-07T12:29:22Z</time>
      </trkpt>
      <trkpt lat="50.27527" lon="3.59887">
        <ele>103.4790039</ele>
        <time>2012-05-07T12:29:30Z</time>
      </trkpt>
      <trkpt lat="50.27491" lon="3.59915">
        <ele>103.4790039</ele>
        <time>2012-05-07T12:29:38Z</time>
      </trkpt>
      <trkpt lat="50.27477" lon="3.59927">
        <ele>102.5177002</ele>
        <time>2012-05-07T12:29:41Z</time>
      </trkpt>
      <trkpt lat="50.27456" lon="3.59966">
        <ele>101.5563965</ele>
        <time>2012-05-07T12:29:47Z</time>
      </trkpt>
      <trkpt lat="50.27444" lon="3.59994">
        <ele>101.0756836</ele>
        <time>2012-05-07T12:29:51Z</time>
      </trkpt>
      <trkpt lat="50.2743" lon="3.60013">
        <ele>101.0756836</ele>
        <time>2012-05-07T12:29:55Z</time>
      </trkpt>
      <trkpt lat="50.27419" lon="3.6003">
        <ele>101.5563965</ele>
        <time>2012-05-07T12:29:59Z</time>
      </trkpt>
      <trkpt lat="50.27399" lon="3.6005">
        <ele>102.0371094</ele>
        <time>2012-05-07T12:30:05Z</time>
      </trkpt>
      <trkpt lat="50.2737" lon="3.60083">
        <ele>102.998291</ele>
        <time>2012-05-07T12:30:13Z</time>
      </trkpt>
      <trkpt lat="50.27344" lon="3.60113">
        <ele>103.4790039</ele>
        <time>2012-05-07T12:30:20Z</time>
      </trkpt>
      <trkpt lat="50.27314" lon="3.60145">
        <ele>102.5177002</ele>
        <time>2012-05-07T12:30:28Z</time>
      </trkpt>
      <trkpt lat="50.27293" lon="3.60168">
        <ele>102.5177002</ele>
        <time>2012-05-07T12:30:34Z</time>
      </trkpt>
      <trkpt lat="50.27273" lon="3.60187">
        <ele>103.4790039</ele>
        <time>2012-05-07T12:30:41Z</time>
      </trkpt>
      <trkpt lat="50.27251" lon="3.60206">
        <ele>103.4790039</ele>
        <time>2012-05-07T12:30:48Z</time>
      </trkpt>
      <trkpt lat="50.27237" lon="3.60218">
        <ele>104.4404297</ele>
        <time>2012-05-07T12:30:53Z</time>
      </trkpt>
      <trkpt lat="50.27226" lon="3.60229">
        <ele>105.4017334</ele>
        <time>2012-05-07T12:30:58Z</time>
      </trkpt>
      <trkpt lat="50.27211" lon="3.60246">
        <ele>105.4017334</ele>
        <time>2012-05-07T12:31:03Z</time>
      </trkpt>
      <trkpt lat="50.2718" lon="3.60282">
        <ele>106.3630371</ele>
        <time>2012-05-07T12:31:13Z</time>
      </trkpt>
      <trkpt lat="50.27153" lon="3.60316">
        <ele>106.8436279</ele>
        <time>2012-05-07T12:31:22Z</time>
      </trkpt>
      <trkpt lat="50.27135" lon="3.60343">
        <ele>106.3630371</ele>
        <time>2012-05-07T12:31:29Z</time>
      </trkpt>
      <trkpt lat="50.27116" lon="3.60376">
        <ele>107.3243408</ele>
        <time>2012-05-07T12:31:37Z</time>
      </trkpt>
      <trkpt lat="50.27099" lon="3.60402">
        <ele>106.8436279</ele>
        <time>2012-05-07T12:31:44Z</time>
      </trkpt>
      <trkpt lat="50.27077" lon="3.60438">
        <ele>107.3243408</ele>
        <time>2012-05-07T12:31:54Z</time>
      </trkpt>
      <trkpt lat="50.27065" lon="3.60457">
        <ele>107.8050537</ele>
        <time>2012-05-07T12:32:00Z</time>
      </trkpt>
      <trkpt lat="50.27046" lon="3.60486">
        <ele>107.3243408</ele>
        <time>2012-05-07T12:32:08Z</time>
      </trkpt>
      <trkpt lat="50.27019" lon="3.60529">
        <ele>105.4017334</ele>
        <time>2012-05-07T12:32:19Z</time>
      </trkpt>
      <trkpt lat="50.26995" lon="3.60566">
        <ele>104.4404297</ele>
        <time>2012-05-07T12:32:28Z</time>
      </trkpt>
      <trkpt lat="50.26967" lon="3.60604">
        <ele>104.4404297</ele>
        <time>2012-05-07T12:32:38Z</time>
      </trkpt>
      <trkpt lat="50.26944" lon="3.60636">
        <ele>105.4017334</ele>
        <time>2012-05-07T12:32:47Z</time>
      </trkpt>
      <trkpt lat="50.26942" lon="3.60643">
        <ele>105.8824463</ele>
        <time>2012-05-07T12:32:50Z</time>
      </trkpt>
      <trkpt lat="50.26933" lon="3.60652">
        <ele>106.8436279</ele>
        <time>2012-05-07T12:32:57Z</time>
      </trkpt>
      <trkpt lat="50.26922" lon="3.60667">
        <ele>106.8436279</ele>
        <time>2012-05-07T12:33:04Z</time>
      </trkpt>
      <trkpt lat="50.26912" lon="3.6068">
        <ele>106.8436279</ele>
        <time>2012-05-07T12:33:11Z</time>
      </trkpt>
      <trkpt lat="50.26904" lon="3.60691">
        <ele>106.8436279</ele>
        <time>2012-05-07T12:33:18Z</time>
      </trkpt>
      <trkpt lat="50.26892" lon="3.60708">
        <ele>106.8436279</ele>
        <time>2012-05-07T12:33:24Z</time>
      </trkpt>
      <trkpt lat="50.26875" lon="3.60733">
        <ele>107.3243408</ele>
        <time>2012-05-07T12:33:31Z</time>
      </trkpt>
      <trkpt lat="50.26846" lon="3.60772">
        <ele>108.2856445</ele>
        <time>2012-05-07T12:33:41Z</time>
      </trkpt>
      <trkpt lat="50.26824" lon="3.60805">
        <ele>109.2469482</ele>
        <time>2012-05-07T12:33:49Z</time>
      </trkpt>
      <trkpt lat="50.26801" lon="3.60834">
        <ele>108.2856445</ele>
        <time>2012-05-07T12:33:56Z</time>
      </trkpt>
      <trkpt lat="50.2678" lon="3.6086">
        <ele>110.208252</ele>
        <time>2012-05-07T12:34:03Z</time>
      </trkpt>
      <trkpt lat="50.26758" lon="3.60886">
        <ele>110.208252</ele>
        <time>2012-05-07T12:34:10Z</time>
      </trkpt>
      <trkpt lat="50.26732" lon="3.60921">
        <ele>110.208252</ele>
        <time>2012-05-07T12:34:19Z</time>
      </trkpt>
      <trkpt lat="50.26711" lon="3.60956">
        <ele>110.6888428</ele>
        <time>2012-05-07T12:34:27Z</time>
      </trkpt>
      <trkpt lat="50.26693" lon="3.60994">
        <ele>109.2469482</ele>
        <time>2012-05-07T12:34:34Z</time>
      </trkpt>
      <trkpt lat="50.26683" lon="3.61023">
        <ele>108.2856445</ele>
        <time>2012-05-07T12:34:39Z</time>
      </trkpt>
      <trkpt lat="50.26676" lon="3.61046">
        <ele>106.8436279</ele>
        <time>2012-05-07T12:34:43Z</time>
      </trkpt>
      <trkpt lat="50.2666" lon="3.61083">
        <ele>107.3243408</ele>
        <time>2012-05-07T12:34:51Z</time>
      </trkpt>
      <trkpt lat="50.2665" lon="3.61112">
        <ele>107.3243408</ele>
        <time>2012-05-07T12:34:57Z</time>
      </trkpt>
      <trkpt lat="50.26641" lon="3.61133">
        <ele>105.4017334</ele>
        <time>2012-05-07T12:35:04Z</time>
      </trkpt>
      <trkpt lat="50.26637" lon="3.61144">
        <ele>103.9597168</ele>
        <time>2012-05-07T12:35:09Z</time>
      </trkpt>
      <trkpt lat="50.26636" lon="3.61146">
        <ele>103.9597168</ele>
        <time>2012-05-07T12:35:13Z</time>
      </trkpt>
      <trkpt lat="50.26629" lon="3.61174">
        <ele>115.9761963</ele>
        <time>2012-05-07T12:35:39Z</time>
      </trkpt>
      <trkpt lat="50.26624" lon="3.61185">
        <ele>114.0535889</ele>
        <time>2012-05-07T12:35:43Z</time>
      </trkpt>
      <trkpt lat="50.26617" lon="3.61204">
        <ele>111.1695557</ele>
        <time>2012-05-07T12:35:50Z</time>
      </trkpt>
      <trkpt lat="50.26607" lon="3.61229">
        <ele>109.2469482</ele>
        <time>2012-05-07T12:35:57Z</time>
      </trkpt>
      <trkpt lat="50.2659" lon="3.61276">
        <ele>108.7662354</ele>
        <time>2012-05-07T12:36:07Z</time>
      </trkpt>
      <trkpt lat="50.26575" lon="3.61316">
        <ele>107.3243408</ele>
        <time>2012-05-07T12:36:15Z</time>
      </trkpt>
      <trkpt lat="50.26565" lon="3.61346">
        <ele>106.3630371</ele>
        <time>2012-05-07T12:36:22Z</time>
      </trkpt>
      <trkpt lat="50.26554" lon="3.61376">
        <ele>106.3630371</ele>
        <time>2012-05-07T12:36:28Z</time>
      </trkpt>
      <trkpt lat="50.26535" lon="3.61427">
        <ele>103.4790039</ele>
        <time>2012-05-07T12:36:36Z</time>
      </trkpt>
      <trkpt lat="50.26524" lon="3.61453">
        <ele>104.4404297</ele>
        <time>2012-05-07T12:36:41Z</time>
      </trkpt>
      <trkpt lat="50.26511" lon="3.61493">
        <ele>104.4404297</ele>
        <time>2012-05-07T12:36:48Z</time>
      </trkpt>
      <trkpt lat="50.26493" lon="3.61537">
        <ele>103.4790039</ele>
        <time>2012-05-07T12:36:56Z</time>
      </trkpt>
      <trkpt lat="50.26485" lon="3.61559">
        <ele>103.4790039</ele>
        <time>2012-05-07T12:37:00Z</time>
      </trkpt>
      <trkpt lat="50.26465" lon="3.61617">
        <ele>103.9597168</ele>
        <time>2012-05-07T12:37:10Z</time>
      </trkpt>
      <trkpt lat="50.26444" lon="3.61675">
        <ele>102.998291</ele>
        <time>2012-05-07T12:37:18Z</time>
      </trkpt>
      <trkpt lat="50.26426" lon="3.61724">
        <ele>102.0371094</ele>
        <time>2012-05-07T12:37:24Z</time>
      </trkpt>
      <trkpt lat="50.26401" lon="3.61797">
        <ele>102.0371094</ele>
        <time>2012-05-07T12:37:32Z</time>
      </trkpt>
      <trkpt lat="50.26375" lon="3.61877">
        <ele>102.5177002</ele>
        <time>2012-05-07T12:37:40Z</time>
      </trkpt>
      <trkpt lat="50.26342" lon="3.61972">
        <ele>105.4017334</ele>
        <time>2012-05-07T12:37:49Z</time>
      </trkpt>
      <trkpt lat="50.26318" lon="3.62035">
        <ele>103.9597168</ele>
        <time>2012-05-07T12:37:55Z</time>
      </trkpt>
      <trkpt lat="50.26298" lon="3.62089">
        <ele>103.4790039</ele>
        <time>2012-05-07T12:38:01Z</time>
      </trkpt>
      <trkpt lat="50.26279" lon="3.6214">
        <ele>103.4790039</ele>
        <time>2012-05-07T12:38:08Z</time>
      </trkpt>
      <trkpt lat="50.26266" lon="3.6217">
        <ele>104.4404297</ele>
        <time>2012-05-07T12:38:13Z</time>
      </trkpt>
      <trkpt lat="50.26269" lon="3.62187">
        <ele>107.8050537</ele>
        <time>2012-05-07T12:38:17Z</time>
      </trkpt>
      <trkpt lat="50.2628" lon="3.62188">
        <ele>107.8050537</ele>
        <time>2012-05-07T12:38:20Z</time>
      </trkpt>
      <trkpt lat="50.26315" lon="3.62177">
        <ele>107.3243408</ele>
        <time>2012-05-07T12:38:26Z</time>
      </trkpt>
      <trkpt lat="50.26352" lon="3.62172">
        <ele>105.8824463</ele>
        <time>2012-05-07T12:38:31Z</time>
      </trkpt>
      <trkpt lat="50.26386" lon="3.62167">
        <ele>104.4404297</ele>
        <time>2012-05-07T12:38:35Z</time>
      </trkpt>
      <trkpt lat="50.26442" lon="3.62176">
        <ele>101.0756836</ele>
        <time>2012-05-07T12:38:41Z</time>
      </trkpt>
      <trkpt lat="50.26468" lon="3.62197">
        <ele>98.6724854</ele>
        <time>2012-05-07T12:38:44Z</time>
      </trkpt>
      <trkpt lat="50.26475" lon="3.62208">
        <ele>97.7111816</ele>
        <time>2012-05-07T12:38:45Z</time>
      </trkpt>
      <trkpt lat="50.26514" lon="3.62243">
        <ele>95.7884521</ele>
        <time>2012-05-07T12:38:49Z</time>
      </trkpt>
      <trkpt lat="50.26564" lon="3.62274">
        <ele>94.3465576</ele>
        <time>2012-05-07T12:38:54Z</time>
      </trkpt>
      <trkpt lat="50.26602" lon="3.62278">
        <ele>94.3465576</ele>
        <time>2012-05-07T12:38:58Z</time>
      </trkpt>
      <trkpt lat="50.26611" lon="3.62276">
        <ele>94.3465576</ele>
        <time>2012-05-07T12:38:59Z</time>
      </trkpt>
      <trkpt lat="50.26646" lon="3.62256">
        <ele>93.8658447</ele>
        <time>2012-05-07T12:39:04Z</time>
      </trkpt>
      <trkpt lat="50.26648" lon="3.62252">
        <ele>94.3465576</ele>
        <time>2012-05-07T12:39:08Z</time>
      </trkpt>
      <trkpt lat="50.2664" lon="3.62258">
        <ele>94.3465576</ele>
        <time>2012-05-07T12:39:12Z</time>
      </trkpt>
      <trkpt lat="50.26637" lon="3.62259">
        <ele>94.3465576</ele>
        <time>2012-05-07T12:39:13Z</time>
      </trkpt>
      <trkpt lat="50.26613" lon="3.62269">
        <ele>95.3077393</ele>
        <time>2012-05-07T12:39:19Z</time>
      </trkpt>
      <trkpt lat="50.26598" lon="3.62273">
        <ele>96.7498779</ele>
        <time>2012-05-07T12:39:22Z</time>
      </trkpt>
      <trkpt lat="50.2659" lon="3.62288">
        <ele>97.2304688</ele>
        <time>2012-05-07T12:39:25Z</time>
      </trkpt>
      <trkpt lat="50.26598" lon="3.62307">
        <ele>97.7111816</ele>
        <time>2012-05-07T12:39:28Z</time>
      </trkpt>
      <trkpt lat="50.26631" lon="3.62362">
        <ele>99.1530762</ele>
        <time>2012-05-07T12:39:36Z</time>
      </trkpt>
      <trkpt lat="50.26635" lon="3.62368">
        <ele>99.6337891</ele>
        <time>2012-05-07T12:39:37Z</time>
      </trkpt>
      <trkpt lat="50.26657" lon="3.62384">
        <ele>100.114502</ele>
        <time>2012-05-07T12:39:41Z</time>
      </trkpt>
      <trkpt lat="50.26683" lon="3.62391">
        <ele>102.0371094</ele>
        <time>2012-05-07T12:39:46Z</time>
      </trkpt>
      <trkpt lat="50.26706" lon="3.62404">
        <ele>102.998291</ele>
        <time>2012-05-07T12:39:52Z</time>
      </trkpt>
      <trkpt lat="50.26729" lon="3.62435">
        <ele>103.9597168</ele>
        <time>2012-05-07T12:40:01Z</time>
      </trkpt>
      <trkpt lat="50.26743" lon="3.62452">
        <ele>105.8824463</ele>
        <time>2012-05-07T12:40:06Z</time>
      </trkpt>
      <trkpt lat="50.26758" lon="3.62471">
        <ele>106.3630371</ele>
        <time>2012-05-07T12:40:12Z</time>
      </trkpt>
      <trkpt lat="50.26778" lon="3.62496">
        <ele>108.2856445</ele>
        <time>2012-05-07T12:40:20Z</time>
      </trkpt>
      <trkpt lat="50.268" lon="3.6252">
        <ele>111.1695557</ele>
        <time>2012-05-07T12:40:28Z</time>
      </trkpt>
      <trkpt lat="50.2682" lon="3.62541">
        <ele>113.0922852</ele>
        <time>2012-05-07T12:40:35Z</time>
      </trkpt>
      <trkpt lat="50.26846" lon="3.62561">
        <ele>115.0148926</ele>
        <time>2012-05-07T12:40:43Z</time>
      </trkpt>
      <trkpt lat="50.26879" lon="3.62591">
        <ele>115.0148926</ele>
        <time>2012-05-07T12:40:53Z</time>
      </trkpt>
      <trkpt lat="50.26909" lon="3.62621">
        <ele>115.9761963</ele>
        <time>2012-05-07T12:41:02Z</time>
      </trkpt>
      <trkpt lat="50.26937" lon="3.62656">
        <ele>114.0535889</ele>
        <time>2012-05-07T12:41:09Z</time>
      </trkpt>
      <trkpt lat="50.26967" lon="3.627">
        <ele>110.6888428</ele>
        <time>2012-05-07T12:41:15Z</time>
      </trkpt>
      <trkpt lat="50.26996" lon="3.62748">
        <ele>107.3243408</ele>
        <time>2012-05-07T12:41:20Z</time>
      </trkpt>
      <trkpt lat="50.2704" lon="3.62802">
        <ele>103.4790039</ele>
        <time>2012-05-07T12:41:26Z</time>
      </trkpt>
      <trkpt lat="50.27107" lon="3.62872">
        <ele>100.114502</ele>
        <time>2012-05-07T12:41:34Z</time>
      </trkpt>
      <trkpt lat="50.27137" lon="3.6291">
        <ele>98.1918945</ele>
        <time>2012-05-07T12:41:38Z</time>
      </trkpt>
      <trkpt lat="50.2716" lon="3.62946">
        <ele>96.2692871</ele>
        <time>2012-05-07T12:41:43Z</time>
      </trkpt>
      <trkpt lat="50.2717" lon="3.62962">
        <ele>95.7884521</ele>
        <time>2012-05-07T12:41:45Z</time>
      </trkpt>
      <trkpt lat="50.27183" lon="3.62987">
        <ele>94.3465576</ele>
        <time>2012-05-07T12:41:49Z</time>
      </trkpt>
      <trkpt lat="50.27183" lon="3.62993">
        <ele>93.3851318</ele>
        <time>2012-05-07T12:41:52Z</time>
      </trkpt>
      <trkpt lat="50.27187" lon="3.62999">
        <ele>93.8658447</ele>
        <time>2012-05-07T12:41:56Z</time>
      </trkpt>
      <trkpt lat="50.27203" lon="3.63004">
        <ele>93.3851318</ele>
        <time>2012-05-07T12:42:04Z</time>
      </trkpt>
      <trkpt lat="50.27206" lon="3.63007">
        <ele>92.904541</ele>
        <time>2012-05-07T12:42:05Z</time>
      </trkpt>
      <trkpt lat="50.27239" lon="3.63009">
        <ele>90.5013428</ele>
        <time>2012-05-07T12:42:11Z</time>
      </trkpt>
      <trkpt lat="50.27283" lon="3.63009">
        <ele>89.0593262</ele>
        <time>2012-05-07T12:42:17Z</time>
      </trkpt>
      <trkpt lat="50.27335" lon="3.63009">
        <ele>86.6560059</ele>
        <time>2012-05-07T12:42:24Z</time>
      </trkpt>
      <trkpt lat="50.27342" lon="3.63021">
        <ele>85.6945801</ele>
        <time>2012-05-07T12:42:27Z</time>
      </trkpt>
      <trkpt lat="50.27342" lon="3.63029">
        <ele>85.6945801</ele>
        <time>2012-05-07T12:42:28Z</time>
      </trkpt>
      <trkpt lat="50.27343" lon="3.63045">
        <ele>85.2139893</ele>
        <time>2012-05-07T12:42:30Z</time>
      </trkpt>
      <trkpt lat="50.27353" lon="3.63076">
        <ele>84.7333984</ele>
        <time>2012-05-07T12:42:34Z</time>
      </trkpt>
      <trkpt lat="50.2736" lon="3.63089">
        <ele>85.2139893</ele>
        <time>2012-05-07T12:42:36Z</time>
      </trkpt>
      <trkpt lat="50.27365" lon="3.63122">
        <ele>85.2139893</ele>
        <time>2012-05-07T12:42:41Z</time>
      </trkpt>
      <trkpt lat="50.27362" lon="3.63129">
        <ele>84.7333984</ele>
        <time>2012-05-07T12:42:42Z</time>
      </trkpt>
      <trkpt lat="50.27348" lon="3.63176">
        <ele>83.7719727</ele>
        <time>2012-05-07T12:42:49Z</time>
      </trkpt>
      <trkpt lat="50.27333" lon="3.63224">
        <ele>82.810791</ele>
        <time>2012-05-07T12:42:56Z</time>
      </trkpt>
      <trkpt lat="50.2733" lon="3.6323">
        <ele>83.7719727</ele>
        <time>2012-05-07T12:42:57Z</time>
      </trkpt>
      <trkpt lat="50.27315" lon="3.63269">
        <ele>84.7333984</ele>
        <time>2012-05-07T12:43:04Z</time>
      </trkpt>
      <trkpt lat="50.27303" lon="3.633">
        <ele>87.1365967</ele>
        <time>2012-05-07T12:43:11Z</time>
      </trkpt>
      <trkpt lat="50.27293" lon="3.63328">
        <ele>84.2526855</ele>
        <time>2012-05-07T12:43:17Z</time>
      </trkpt>
      <trkpt lat="50.27284" lon="3.63347">
        <ele>84.7333984</ele>
        <time>2012-05-07T12:43:21Z</time>
      </trkpt>
      <trkpt lat="50.27268" lon="3.6338">
        <ele>85.2139893</ele>
        <time>2012-05-07T12:43:27Z</time>
      </trkpt>
      <trkpt lat="50.27244" lon="3.63423">
        <ele>87.1365967</ele>
        <time>2012-05-07T12:43:34Z</time>
      </trkpt>
      <trkpt lat="50.27229" lon="3.6345">
        <ele>85.6945801</ele>
        <time>2012-05-07T12:43:38Z</time>
      </trkpt>
      <trkpt lat="50.27215" lon="3.63498">
        <ele>83.2913818</ele>
        <time>2012-05-07T12:43:44Z</time>
      </trkpt>
      <trkpt lat="50.27205" lon="3.63526">
        <ele>83.2913818</ele>
        <time>2012-05-07T12:43:48Z</time>
      </trkpt>
      <trkpt lat="50.272" lon="3.63542">
        <ele>84.2526855</ele>
        <time>2012-05-07T12:43:51Z</time>
      </trkpt>
      <trkpt lat="50.27211" lon="3.6354">
        <ele>87.6171875</ele>
        <time>2012-05-07T12:43:55Z</time>
      </trkpt>
      <trkpt lat="50.27217" lon="3.63534">
        <ele>89.0593262</ele>
        <time>2012-05-07T12:43:57Z</time>
      </trkpt>
      <trkpt lat="50.27239" lon="3.63514">
        <ele>93.8658447</ele>
        <time>2012-05-07T12:44:04Z</time>
      </trkpt>
      <trkpt lat="50.27258" lon="3.63496">
        <ele>97.2304688</ele>
        <time>2012-05-07T12:44:11Z</time>
      </trkpt>
      <trkpt lat="50.27275" lon="3.63477">
        <ele>101.0756836</ele>
        <time>2012-05-07T12:44:18Z</time>
      </trkpt>
      <trkpt lat="50.27288" lon="3.63466">
        <ele>102.5177002</ele>
        <time>2012-05-07T12:44:23Z</time>
      </trkpt>
      <trkpt lat="50.273" lon="3.63455">
        <ele>103.9597168</ele>
        <time>2012-05-07T12:44:28Z</time>
      </trkpt>
      <trkpt lat="50.27301" lon="3.63466">
        <ele>102.5177002</ele>
        <time>2012-05-07T12:44:32Z</time>
      </trkpt>
      <trkpt lat="50.27289" lon="3.63498">
        <ele>99.6337891</ele>
        <time>2012-05-07T12:44:39Z</time>
      </trkpt>
      <trkpt lat="50.27274" lon="3.63534">
        <ele>97.2304688</ele>
        <time>2012-05-07T12:44:47Z</time>
      </trkpt>
      <trkpt lat="50.27265" lon="3.63554">
        <ele>94.3465576</ele>
        <time>2012-05-07T12:44:53Z</time>
      </trkpt>
      <trkpt lat="50.2727" lon="3.63557">
        <ele>95.7884521</ele>
        <time>2012-05-07T12:44:57Z</time>
      </trkpt>
      <trkpt lat="50.27286" lon="3.63517">
        <ele>97.7111816</ele>
        <time>2012-05-07T12:45:05Z</time>
      </trkpt>
      <trkpt lat="50.27305" lon="3.6347">
        <ele>98.6724854</ele>
        <time>2012-05-07T12:45:13Z</time>
      </trkpt>
      <trkpt lat="50.27319" lon="3.63462">
        <ele>99.1530762</ele>
        <time>2012-05-07T12:45:17Z</time>
      </trkpt>
      <trkpt lat="50.27363" lon="3.63507">
        <ele>106.8436279</ele>
        <time>2012-05-07T12:45:30Z</time>
      </trkpt>
      <trkpt lat="50.27386" lon="3.63541">
        <ele>115.0148926</ele>
        <time>2012-05-07T12:45:38Z</time>
      </trkpt>
      <trkpt lat="50.27408" lon="3.63576">
        <ele>119.3408203</ele>
        <time>2012-05-07T12:45:45Z</time>
      </trkpt>
      <trkpt lat="50.27435" lon="3.63621">
        <ele>123.1861572</ele>
        <time>2012-05-07T12:45:54Z</time>
      </trkpt>
      <trkpt lat="50.27454" lon="3.63651">
        <ele>119.3408203</ele>
        <time>2012-05-07T12:46:00Z</time>
      </trkpt>
      <trkpt lat="50.27467" lon="3.63677">
        <ele>116.9375</ele>
        <time>2012-05-07T12:46:05Z</time>
      </trkpt>
      <trkpt lat="50.27477" lon="3.63697">
        <ele>115.0148926</ele>
        <time>2012-05-07T12:46:09Z</time>
      </trkpt>
      <trkpt lat="50.27485" lon="3.63713">
        <ele>114.0535889</ele>
        <time>2012-05-07T12:46:12Z</time>
      </trkpt>
      <trkpt lat="50.27498" lon="3.63727">
        <ele>116.4567871</ele>
        <time>2012-05-07T12:46:16Z</time>
      </trkpt>
      <trkpt lat="50.27507" lon="3.63742">
        <ele>115.9761963</ele>
        <time>2012-05-07T12:46:19Z</time>
      </trkpt>
      <trkpt lat="50.27525" lon="3.6377">
        <ele>118.3793945</ele>
        <time>2012-05-07T12:46:25Z</time>
      </trkpt>
      <trkpt lat="50.27542" lon="3.63797">
        <ele>123.1861572</ele>
        <time>2012-05-07T12:46:31Z</time>
      </trkpt>
      <trkpt lat="50.27569" lon="3.63852">
        <ele>126.0699463</ele>
        <time>2012-05-07T12:46:41Z</time>
      </trkpt>
      <trkpt lat="50.27592" lon="3.63899">
        <ele>130.3959961</ele>
        <time>2012-05-07T12:46:50Z</time>
      </trkpt>
      <trkpt lat="50.2761" lon="3.6393">
        <ele>131.8378906</ele>
        <time>2012-05-07T12:46:57Z</time>
      </trkpt>
      <trkpt lat="50.27621" lon="3.63935">
        <ele>129.4346924</ele>
        <time>2012-05-07T12:47:01Z</time>
      </trkpt>
      <trkpt lat="50.27627" lon="3.63942">
        <ele>128.4733887</ele>
        <time>2012-05-07T12:47:03Z</time>
      </trkpt>
      <trkpt lat="50.27656" lon="3.63976">
        <ele>128.4733887</ele>
        <time>2012-05-07T12:47:12Z</time>
      </trkpt>
      <trkpt lat="50.27688" lon="3.64014">
        <ele>128.9541016</ele>
        <time>2012-05-07T12:47:22Z</time>
      </trkpt>
      <trkpt lat="50.27718" lon="3.64048">
        <ele>128.4733887</ele>
        <time>2012-05-07T12:47:31Z</time>
      </trkpt>
      <trkpt lat="50.27739" lon="3.64074">
        <ele>128.9541016</ele>
        <time>2012-05-07T12:47:38Z</time>
      </trkpt>
      <trkpt lat="50.2777" lon="3.64112">
        <ele>129.9152832</ele>
        <time>2012-05-07T12:47:48Z</time>
      </trkpt>
      <trkpt lat="50.27788" lon="3.64133">
        <ele>129.9152832</ele>
        <time>2012-05-07T12:47:54Z</time>
      </trkpt>
      <trkpt lat="50.27816" lon="3.64167">
        <ele>131.3572998</ele>
        <time>2012-05-07T12:48:03Z</time>
      </trkpt>
      <trkpt lat="50.27842" lon="3.64201">
        <ele>131.8378906</ele>
        <time>2012-05-07T12:48:12Z</time>
      </trkpt>
      <trkpt lat="50.27864" lon="3.64228">
        <ele>131.3572998</ele>
        <time>2012-05-07T12:48:19Z</time>
      </trkpt>
      <trkpt lat="50.27884" lon="3.64255">
        <ele>129.9152832</ele>
        <time>2012-05-07T12:48:24Z</time>
      </trkpt>
      <trkpt lat="50.27908" lon="3.6429">
        <ele>128.9541016</ele>
        <time>2012-05-07T12:48:29Z</time>
      </trkpt>
      <trkpt lat="50.27955" lon="3.64333">
        <ele>127.5119629</ele>
        <time>2012-05-07T12:48:37Z</time>
      </trkpt>
      <trkpt lat="50.27989" lon="3.64359">
        <ele>126.0699463</ele>
        <time>2012-05-07T12:48:43Z</time>
      </trkpt>
      <trkpt lat="50.28007" lon="3.64371">
        <ele>125.5893555</ele>
        <time>2012-05-07T12:48:46Z</time>
      </trkpt>
      <trkpt lat="50.28031" lon="3.64388">
        <ele>125.5893555</ele>
        <time>2012-05-07T12:48:51Z</time>
      </trkpt>
      <trkpt lat="50.28043" lon="3.64394">
        <ele>125.1087646</ele>
        <time>2012-05-07T12:48:55Z</time>
      </trkpt>
      <trkpt lat="50.28045" lon="3.64396">
        <ele>125.1087646</ele>
        <time>2012-05-07T12:48:56Z</time>
      </trkpt>
      <trkpt lat="50.28059" lon="3.64404">
        <ele>124.6280518</ele>
        <time>2012-05-07T12:49:04Z</time>
      </trkpt>
      <trkpt lat="50.2807" lon="3.64411">
        <ele>125.1087646</ele>
        <time>2012-05-07T12:49:10Z</time>
      </trkpt>
      <trkpt lat="50.28083" lon="3.64421">
        <ele>125.1087646</ele>
        <time>2012-05-07T12:49:17Z</time>
      </trkpt>
      <trkpt lat="50.28093" lon="3.64429">
        <ele>125.5893555</ele>
        <time>2012-05-07T12:49:23Z</time>
      </trkpt>
      <trkpt lat="50.28107" lon="3.64441">
        <ele>125.5893555</ele>
        <time>2012-05-07T12:49:30Z</time>
      </trkpt>
      <trkpt lat="50.28121" lon="3.64451">
        <ele>125.1087646</ele>
        <time>2012-05-07T12:49:37Z</time>
      </trkpt>
      <trkpt lat="50.2814" lon="3.64467">
        <ele>126.0699463</ele>
        <time>2012-05-07T12:49:46Z</time>
      </trkpt>
      <trkpt lat="50.2815" lon="3.64474">
        <ele>126.0699463</ele>
        <time>2012-05-07T12:49:52Z</time>
      </trkpt>
      <trkpt lat="50.28163" lon="3.64485">
        <ele>126.5506592</ele>
        <time>2012-05-07T12:49:59Z</time>
      </trkpt>
      <trkpt lat="50.28177" lon="3.64495">
        <ele>126.5506592</ele>
        <time>2012-05-07T12:50:06Z</time>
      </trkpt>
      <trkpt lat="50.28194" lon="3.64505">
        <ele>127.0313721</ele>
        <time>2012-05-07T12:50:13Z</time>
      </trkpt>
      <trkpt lat="50.28222" lon="3.64525">
        <ele>126.0699463</ele>
        <time>2012-05-07T12:50:23Z</time>
      </trkpt>
      <trkpt lat="50.28255" lon="3.64548">
        <ele>125.5893555</ele>
        <time>2012-05-07T12:50:33Z</time>
      </trkpt>
      <trkpt lat="50.28276" lon="3.64561">
        <ele>125.1087646</ele>
        <time>2012-05-07T12:50:40Z</time>
      </trkpt>
      <trkpt lat="50.28277" lon="3.64561">
        <ele>125.1087646</ele>
        <time>2012-05-07T12:50:43Z</time>
      </trkpt>
      <trkpt lat="50.28286" lon="3.64566">
        <ele>122.2247314</ele>
        <time>2012-05-07T12:51:12Z</time>
      </trkpt>
      <trkpt lat="50.28305" lon="3.64576">
        <ele>121.2635498</ele>
        <time>2012-05-07T12:51:18Z</time>
      </trkpt>
      <trkpt lat="50.28326" lon="3.64586">
        <ele>120.302124</ele>
        <time>2012-05-07T12:51:25Z</time>
      </trkpt>
      <trkpt lat="50.2833" lon="3.64584">
        <ele>120.302124</ele>
        <time>2012-05-07T12:51:27Z</time>
      </trkpt>
      <trkpt lat="50.28342" lon="3.64563">
        <ele>119.3408203</ele>
        <time>2012-05-07T12:51:33Z</time>
      </trkpt>
      <trkpt lat="50.28342" lon="3.64561">
        <ele>118.8601074</ele>
        <time>2012-05-07T12:51:36Z</time>
      </trkpt>
      <trkpt lat="50.28351" lon="3.64548">
        <ele>118.3793945</ele>
        <time>2012-05-07T12:53:36Z</time>
      </trkpt>
      <trkpt lat="50.28363" lon="3.64528">
        <ele>117.4182129</ele>
        <time>2012-05-07T12:53:40Z</time>
      </trkpt>
      <trkpt lat="50.28383" lon="3.64493">
        <ele>116.4567871</ele>
        <time>2012-05-07T12:53:47Z</time>
      </trkpt>
      <trkpt lat="50.28386" lon="3.64488">
        <ele>115.9761963</ele>
        <time>2012-05-07T12:53:48Z</time>
      </trkpt>
      <trkpt lat="50.28394" lon="3.6447">
        <ele>115.4956055</ele>
        <time>2012-05-07T12:53:51Z</time>
      </trkpt>
      <trkpt lat="50.28412" lon="3.64437">
        <ele>115.0148926</ele>
        <time>2012-05-07T12:53:57Z</time>
      </trkpt>
      <trkpt lat="50.28422" lon="3.64415">
        <ele>114.5341797</ele>
        <time>2012-05-07T12:54:01Z</time>
      </trkpt>
      <trkpt lat="50.28451" lon="3.64361">
        <ele>113.0922852</ele>
        <time>2012-05-07T12:54:10Z</time>
      </trkpt>
      <trkpt lat="50.28458" lon="3.64351">
        <ele>113.0922852</ele>
        <time>2012-05-07T12:54:12Z</time>
      </trkpt>
      <trkpt lat="50.28472" lon="3.64352">
        <ele>112.6115723</ele>
        <time>2012-05-07T12:54:16Z</time>
      </trkpt>
      <trkpt lat="50.28475" lon="3.64364">
        <ele>112.1309814</ele>
        <time>2012-05-07T12:54:18Z</time>
      </trkpt>
      <trkpt lat="50.28485" lon="3.64413">
        <ele>111.6502686</ele>
        <time>2012-05-07T12:54:26Z</time>
      </trkpt>
      <trkpt lat="50.28494" lon="3.64453">
        <ele>111.1695557</ele>
        <time>2012-05-07T12:54:34Z</time>
      </trkpt>
      <trkpt lat="50.28504" lon="3.64497">
        <ele>110.6888428</ele>
        <time>2012-05-07T12:54:42Z</time>
      </trkpt>
      <trkpt lat="50.2851" lon="3.64524">
        <ele>110.208252</ele>
        <time>2012-05-07T12:54:46Z</time>
      </trkpt>
      <trkpt lat="50.28512" lon="3.64538">
        <ele>110.6888428</ele>
        <time>2012-05-07T12:54:48Z</time>
      </trkpt>
      <trkpt lat="50.28523" lon="3.646">
        <ele>110.208252</ele>
        <time>2012-05-07T12:54:56Z</time>
      </trkpt>
      <trkpt lat="50.28532" lon="3.64655">
        <ele>111.1695557</ele>
        <time>2012-05-07T12:55:03Z</time>
      </trkpt>
      <trkpt lat="50.28545" lon="3.64725">
        <ele>114.5341797</ele>
        <time>2012-05-07T12:55:12Z</time>
      </trkpt>
      <trkpt lat="50.28557" lon="3.64786">
        <ele>115.9761963</ele>
        <time>2012-05-07T12:55:20Z</time>
      </trkpt>
      <trkpt lat="50.28573" lon="3.64855">
        <ele>119.8214111</ele>
        <time>2012-05-07T12:55:29Z</time>
      </trkpt>
      <trkpt lat="50.28586" lon="3.64922">
        <ele>120.7828369</ele>
        <time>2012-05-07T12:55:38Z</time>
      </trkpt>
      <trkpt lat="50.28587" lon="3.6493">
        <ele>120.302124</ele>
        <time>2012-05-07T12:55:39Z</time>
      </trkpt>
      <trkpt lat="50.28595" lon="3.64972">
        <ele>119.8214111</ele>
        <time>2012-05-07T12:55:45Z</time>
      </trkpt>
      <trkpt lat="50.28608" lon="3.65035">
        <ele>121.7441406</ele>
        <time>2012-05-07T12:55:53Z</time>
      </trkpt>
      <trkpt lat="50.28621" lon="3.65088">
        <ele>123.1861572</ele>
        <time>2012-05-07T12:56:00Z</time>
      </trkpt>
      <trkpt lat="50.28628" lon="3.65119">
        <ele>123.1861572</ele>
        <time>2012-05-07T12:56:04Z</time>
      </trkpt>
      <trkpt lat="50.28637" lon="3.65156">
        <ele>123.1861572</ele>
        <time>2012-05-07T12:56:10Z</time>
      </trkpt>
      <trkpt lat="50.28643" lon="3.65178">
        <ele>124.1473389</ele>
        <time>2012-05-07T12:56:16Z</time>
      </trkpt>
      <trkpt lat="50.28648" lon="3.65193">
        <ele>123.1861572</ele>
        <time>2012-05-07T12:56:21Z</time>
      </trkpt>
      <trkpt lat="50.28656" lon="3.65225">
        <ele>122.7054443</ele>
        <time>2012-05-07T12:56:27Z</time>
      </trkpt>
      <trkpt lat="50.28667" lon="3.65266">
        <ele>122.2247314</ele>
        <time>2012-05-07T12:56:33Z</time>
      </trkpt>
      <trkpt lat="50.28669" lon="3.65273">
        <ele>122.2247314</ele>
        <time>2012-05-07T12:56:34Z</time>
      </trkpt>
      <trkpt lat="50.28678" lon="3.65325">
        <ele>121.7441406</ele>
        <time>2012-05-07T12:56:41Z</time>
      </trkpt>
      <trkpt lat="50.28684" lon="3.6536">
        <ele>122.2247314</ele>
        <time>2012-05-07T12:56:46Z</time>
      </trkpt>
      <trkpt lat="50.28693" lon="3.65408">
        <ele>122.2247314</ele>
        <time>2012-05-07T12:56:52Z</time>
      </trkpt>
      <trkpt lat="50.28695" lon="3.65417">
        <ele>122.2247314</ele>
        <time>2012-05-07T12:56:53Z</time>
      </trkpt>
      <trkpt lat="50.28702" lon="3.65441">
        <ele>122.2247314</ele>
        <time>2012-05-07T12:56:56Z</time>
      </trkpt>
      <trkpt lat="50.28721" lon="3.65488">
        <ele>121.7441406</ele>
        <time>2012-05-07T12:57:03Z</time>
      </trkpt>
      <trkpt lat="50.28728" lon="3.65511">
        <ele>122.2247314</ele>
        <time>2012-05-07T12:57:06Z</time>
      </trkpt>
      <trkpt lat="50.2874" lon="3.65584">
        <ele>122.2247314</ele>
        <time>2012-05-07T12:57:15Z</time>
      </trkpt>
      <trkpt lat="50.28758" lon="3.65671">
        <ele>123.666748</ele>
        <time>2012-05-07T12:57:25Z</time>
      </trkpt>
      <trkpt lat="50.2877" lon="3.6575">
        <ele>125.1087646</ele>
        <time>2012-05-07T12:57:34Z</time>
      </trkpt>
      <trkpt lat="50.28781" lon="3.65811">
        <ele>125.1087646</ele>
        <time>2012-05-07T12:57:41Z</time>
      </trkpt>
      <trkpt lat="50.28796" lon="3.65881">
        <ele>124.6280518</ele>
        <time>2012-05-07T12:57:49Z</time>
      </trkpt>
      <trkpt lat="50.28812" lon="3.65957">
        <ele>126.0699463</ele>
        <time>2012-05-07T12:57:58Z</time>
      </trkpt>
      <trkpt lat="50.2883" lon="3.6603">
        <ele>127.0313721</ele>
        <time>2012-05-07T12:58:07Z</time>
      </trkpt>
      <trkpt lat="50.28846" lon="3.66087">
        <ele>124.1473389</ele>
        <time>2012-05-07T12:58:14Z</time>
      </trkpt>
      <trkpt lat="50.28868" lon="3.66144">
        <ele>121.7441406</ele>
        <time>2012-05-07T12:58:20Z</time>
      </trkpt>
      <trkpt lat="50.28876" lon="3.66164">
        <ele>121.2635498</ele>
        <time>2012-05-07T12:58:22Z</time>
      </trkpt>
      <trkpt lat="50.28886" lon="3.66233">
        <ele>118.3793945</ele>
        <time>2012-05-07T12:58:28Z</time>
      </trkpt>
      <trkpt lat="50.28888" lon="3.66244">
        <ele>118.3793945</ele>
        <time>2012-05-07T12:58:29Z</time>
      </trkpt>
      <trkpt lat="50.28899" lon="3.66286">
        <ele>115.9761963</ele>
        <time>2012-05-07T12:58:33Z</time>
      </trkpt>
      <trkpt lat="50.28911" lon="3.66314">
        <ele>113.572998</ele>
        <time>2012-05-07T12:58:36Z</time>
      </trkpt>
      <trkpt lat="50.28957" lon="3.66371">
        <ele>111.1695557</ele>
        <time>2012-05-07T12:58:43Z</time>
      </trkpt>
      <trkpt lat="50.29007" lon="3.66428">
        <ele>107.3243408</ele>
        <time>2012-05-07T12:58:50Z</time>
      </trkpt>
      <trkpt lat="50.29034" lon="3.66478">
        <ele>106.3630371</ele>
        <time>2012-05-07T12:58:55Z</time>
      </trkpt>
      <trkpt lat="50.29067" lon="3.66569">
        <ele>104.4404297</ele>
        <time>2012-05-07T12:59:03Z</time>
      </trkpt>
      <trkpt lat="50.29078" lon="3.66618">
        <ele>103.9597168</ele>
        <time>2012-05-07T12:59:08Z</time>
      </trkpt>
      <trkpt lat="50.2909" lon="3.66634">
        <ele>104.4404297</ele>
        <time>2012-05-07T12:59:12Z</time>
      </trkpt>
      <trkpt lat="50.29095" lon="3.66621">
        <ele>104.9210205</ele>
        <time>2012-05-07T12:59:15Z</time>
      </trkpt>
      <trkpt lat="50.29096" lon="3.66616">
        <ele>104.9210205</ele>
        <time>2012-05-07T12:59:16Z</time>
      </trkpt>
      <trkpt lat="50.29098" lon="3.66604">
        <ele>105.4017334</ele>
        <time>2012-05-07T12:59:18Z</time>
      </trkpt>
      <trkpt lat="50.29118" lon="3.66551">
        <ele>105.8824463</ele>
        <time>2012-05-07T12:59:26Z</time>
      </trkpt>
      <trkpt lat="50.29142" lon="3.66492">
        <ele>106.8436279</ele>
        <time>2012-05-07T12:59:34Z</time>
      </trkpt>
      <trkpt lat="50.29171" lon="3.66424">
        <ele>106.8436279</ele>
        <time>2012-05-07T12:59:43Z</time>
      </trkpt>
      <trkpt lat="50.29196" lon="3.66365">
        <ele>106.8436279</ele>
        <time>2012-05-07T12:59:51Z</time>
      </trkpt>
      <trkpt lat="50.2922" lon="3.66307">
        <ele>107.3243408</ele>
        <time>2012-05-07T12:59:59Z</time>
      </trkpt>
      <trkpt lat="50.29243" lon="3.66255">
        <ele>108.2856445</ele>
        <time>2012-05-07T13:00:07Z</time>
      </trkpt>
      <trkpt lat="50.29273" lon="3.66202">
        <ele>107.8050537</ele>
        <time>2012-05-07T13:00:16Z</time>
      </trkpt>
      <trkpt lat="50.29296" lon="3.6616">
        <ele>108.2856445</ele>
        <time>2012-05-07T13:00:23Z</time>
      </trkpt>
      <trkpt lat="50.2931" lon="3.66129">
        <ele>107.8050537</ele>
        <time>2012-05-07T13:00:28Z</time>
      </trkpt>
      <trkpt lat="50.29324" lon="3.66101">
        <ele>107.8050537</ele>
        <time>2012-05-07T13:00:33Z</time>
      </trkpt>
      <trkpt lat="50.2933" lon="3.66087">
        <ele>107.8050537</ele>
        <time>2012-05-07T13:00:36Z</time>
      </trkpt>
      <trkpt lat="50.29348" lon="3.66056">
        <ele>108.7662354</ele>
        <time>2012-05-07T13:00:44Z</time>
      </trkpt>
      <trkpt lat="50.29358" lon="3.66041">
        <ele>110.208252</ele>
        <time>2012-05-07T13:00:50Z</time>
      </trkpt>
      <trkpt lat="50.29372" lon="3.66024">
        <ele>111.6502686</ele>
        <time>2012-05-07T13:00:57Z</time>
      </trkpt>
      <trkpt lat="50.29388" lon="3.66016">
        <ele>112.6115723</ele>
        <time>2012-05-07T13:01:04Z</time>
      </trkpt>
      <trkpt lat="50.29398" lon="3.66026">
        <ele>113.572998</ele>
        <time>2012-05-07T13:01:09Z</time>
      </trkpt>
      <trkpt lat="50.29406" lon="3.66051">
        <ele>113.572998</ele>
        <time>2012-05-07T13:01:15Z</time>
      </trkpt>
      <trkpt lat="50.29414" lon="3.66087">
        <ele>113.572998</ele>
        <time>2012-05-07T13:01:20Z</time>
      </trkpt>
      <trkpt lat="50.29424" lon="3.66133">
        <ele>112.6115723</ele>
        <time>2012-05-07T13:01:25Z</time>
      </trkpt>
      <trkpt lat="50.29439" lon="3.66207">
        <ele>109.2469482</ele>
        <time>2012-05-07T13:01:32Z</time>
      </trkpt>
      <trkpt lat="50.29449" lon="3.66284">
        <ele>106.3630371</ele>
        <time>2012-05-07T13:01:38Z</time>
      </trkpt>
      <trkpt lat="50.29461" lon="3.66395">
        <ele>101.0756836</ele>
        <time>2012-05-07T13:01:46Z</time>
      </trkpt>
      <trkpt lat="50.29463" lon="3.66487">
        <ele>98.1918945</ele>
        <time>2012-05-07T13:01:52Z</time>
      </trkpt>
      <trkpt lat="50.29465" lon="3.66518">
        <ele>97.7111816</ele>
        <time>2012-05-07T13:01:54Z</time>
      </trkpt>
      <trkpt lat="50.29474" lon="3.66589">
        <ele>96.7498779</ele>
        <time>2012-05-07T13:01:58Z</time>
      </trkpt>
      <trkpt lat="50.2948" lon="3.66696">
        <ele>92.904541</ele>
        <time>2012-05-07T13:02:04Z</time>
      </trkpt>
      <trkpt lat="50.29474" lon="3.66767">
        <ele>90.0206299</ele>
        <time>2012-05-07T13:02:08Z</time>
      </trkpt>
      <trkpt lat="50.2946" lon="3.66811">
        <ele>87.6171875</ele>
        <time>2012-05-07T13:02:11Z</time>
      </trkpt>
      <trkpt lat="50.29452" lon="3.66886">
        <ele>88.0980225</ele>
        <time>2012-05-07T13:02:16Z</time>
      </trkpt>
      <trkpt lat="50.29454" lon="3.66899">
        <ele>88.5787354</ele>
        <time>2012-05-07T13:02:17Z</time>
      </trkpt>
      <trkpt lat="50.29462" lon="3.66953">
        <ele>88.5787354</ele>
        <time>2012-05-07T13:02:22Z</time>
      </trkpt>
      <trkpt lat="50.29472" lon="3.67">
        <ele>89.539917</ele>
        <time>2012-05-07T13:02:28Z</time>
      </trkpt>
      <trkpt lat="50.29482" lon="3.67034">
        <ele>91.4625244</ele>
        <time>2012-05-07T13:02:34Z</time>
      </trkpt>
      <trkpt lat="50.29499" lon="3.67082">
        <ele>94.8271484</ele>
        <time>2012-05-07T13:02:44Z</time>
      </trkpt>
      <trkpt lat="50.29509" lon="3.67107">
        <ele>96.2692871</ele>
        <time>2012-05-07T13:02:50Z</time>
      </trkpt>
      <trkpt lat="50.2952" lon="3.6713">
        <ele>97.2304688</ele>
        <time>2012-05-07T13:02:56Z</time>
      </trkpt>
      <trkpt lat="50.2953" lon="3.6715">
        <ele>96.7498779</ele>
        <time>2012-05-07T13:03:03Z</time>
      </trkpt>
      <trkpt lat="50.29533" lon="3.67159">
        <ele>97.7111816</ele>
        <time>2012-05-07T13:03:06Z</time>
      </trkpt>
      <trkpt lat="50.29538" lon="3.6718">
        <ele>99.6337891</ele>
        <time>2012-05-07T13:03:12Z</time>
      </trkpt>
      <trkpt lat="50.29543" lon="3.67208">
        <ele>100.5950928</ele>
        <time>2012-05-07T13:03:18Z</time>
      </trkpt>
      <trkpt lat="50.29548" lon="3.67243">
        <ele>101.5563965</ele>
        <time>2012-05-07T13:03:25Z</time>
      </trkpt>
      <trkpt lat="50.29554" lon="3.67277">
        <ele>107.3243408</ele>
        <time>2012-05-07T13:03:32Z</time>
      </trkpt>
      <trkpt lat="50.29557" lon="3.67311">
        <ele>109.7276611</ele>
        <time>2012-05-07T13:03:39Z</time>
      </trkpt>
      <trkpt lat="50.29558" lon="3.67351">
        <ele>111.6502686</ele>
        <time>2012-05-07T13:03:47Z</time>
      </trkpt>
      <trkpt lat="50.29561" lon="3.6739">
        <ele>111.6502686</ele>
        <time>2012-05-07T13:03:54Z</time>
      </trkpt>
      <trkpt lat="50.29563" lon="3.67427">
        <ele>112.6115723</ele>
        <time>2012-05-07T13:04:01Z</time>
      </trkpt>
      <trkpt lat="50.29565" lon="3.67475">
        <ele>113.0922852</ele>
        <time>2012-05-07T13:04:10Z</time>
      </trkpt>
      <trkpt lat="50.29569" lon="3.67514">
        <ele>113.572998</ele>
        <time>2012-05-07T13:04:17Z</time>
      </trkpt>
      <trkpt lat="50.29574" lon="3.6756">
        <ele>114.5341797</ele>
        <time>2012-05-07T13:04:25Z</time>
      </trkpt>
      <trkpt lat="50.29577" lon="3.67596">
        <ele>115.4956055</ele>
        <time>2012-05-07T13:04:31Z</time>
      </trkpt>
      <trkpt lat="50.29582" lon="3.67627">
        <ele>115.0148926</ele>
        <time>2012-05-07T13:04:36Z</time>
      </trkpt>
      <trkpt lat="50.29584" lon="3.67632">
        <ele>115.0148926</ele>
        <time>2012-05-07T13:04:37Z</time>
      </trkpt>
      <trkpt lat="50.29607" lon="3.67655">
        <ele>114.0535889</ele>
        <time>2012-05-07T13:04:43Z</time>
      </trkpt>
      <trkpt lat="50.29641" lon="3.67671">
        <ele>115.0148926</ele>
        <time>2012-05-07T13:04:51Z</time>
      </trkpt>
      <trkpt lat="50.29657" lon="3.67675">
        <ele>115.4956055</ele>
        <time>2012-05-07T13:04:55Z</time>
      </trkpt>
      <trkpt lat="50.29676" lon="3.67672">
        <ele>115.0148926</ele>
        <time>2012-05-07T13:05:02Z</time>
      </trkpt>
      <trkpt lat="50.29677" lon="3.67672">
        <ele>115.0148926</ele>
        <time>2012-05-07T13:05:04Z</time>
      </trkpt>
      <trkpt lat="50.29687" lon="3.67671">
        <ele>111.6502686</ele>
        <time>2012-05-07T13:05:21Z</time>
      </trkpt>
      <trkpt lat="50.29699" lon="3.67672">
        <ele>113.572998</ele>
        <time>2012-05-07T13:05:26Z</time>
      </trkpt>
      <trkpt lat="50.2972" lon="3.6767">
        <ele>115.9761963</ele>
        <time>2012-05-07T13:05:33Z</time>
      </trkpt>
      <trkpt lat="50.29739" lon="3.67669">
        <ele>116.4567871</ele>
        <time>2012-05-07T13:05:39Z</time>
      </trkpt>
      <trkpt lat="50.29761" lon="3.67666">
        <ele>116.4567871</ele>
        <time>2012-05-07T13:05:46Z</time>
      </trkpt>
      <trkpt lat="50.29785" lon="3.67664">
        <ele>115.9761963</ele>
        <time>2012-05-07T13:05:54Z</time>
      </trkpt>
      <trkpt lat="50.2981" lon="3.67659">
        <ele>116.9375</ele>
        <time>2012-05-07T13:06:01Z</time>
      </trkpt>
      <trkpt lat="50.29837" lon="3.67651">
        <ele>115.4956055</ele>
        <time>2012-05-07T13:06:09Z</time>
      </trkpt>
      <trkpt lat="50.2984" lon="3.6765">
        <ele>115.0148926</ele>
        <time>2012-05-07T13:06:11Z</time>
      </trkpt>
      <trkpt lat="50.29844" lon="3.67649">
        <ele>112.6115723</ele>
        <time>2012-05-07T13:06:17Z</time>
      </trkpt>
      <trkpt lat="50.29854" lon="3.67641">
        <ele>111.6502686</ele>
        <time>2012-05-07T13:06:21Z</time>
      </trkpt>
      <trkpt lat="50.29882" lon="3.67631">
        <ele>110.208252</ele>
        <time>2012-05-07T13:06:28Z</time>
      </trkpt>
      <trkpt lat="50.29891" lon="3.67633">
        <ele>110.208252</ele>
        <time>2012-05-07T13:06:30Z</time>
      </trkpt>
      <trkpt lat="50.29903" lon="3.67653">
        <ele>110.208252</ele>
        <time>2012-05-07T13:06:34Z</time>
      </trkpt>
      <trkpt lat="50.29919" lon="3.67729">
        <ele>112.6115723</ele>
        <time>2012-05-07T13:06:46Z</time>
      </trkpt>
      <trkpt lat="50.29927" lon="3.67748">
        <ele>114.0535889</ele>
        <time>2012-05-07T13:06:51Z</time>
      </trkpt>
      <trkpt lat="50.29939" lon="3.67775">
        <ele>113.572998</ele>
        <time>2012-05-07T13:06:56Z</time>
      </trkpt>
      <trkpt lat="50.29956" lon="3.67804">
        <ele>112.6115723</ele>
        <time>2012-05-07T13:07:01Z</time>
      </trkpt>
      <trkpt lat="50.29963" lon="3.67814">
        <ele>112.1309814</ele>
        <time>2012-05-07T13:07:03Z</time>
      </trkpt>
      <trkpt lat="50.29985" lon="3.67831">
        <ele>111.6502686</ele>
        <time>2012-05-07T13:07:08Z</time>
      </trkpt>
      <trkpt lat="50.30035" lon="3.67847">
        <ele>112.1309814</ele>
        <time>2012-05-07T13:07:18Z</time>
      </trkpt>
      <trkpt lat="50.30075" lon="3.67858">
        <ele>112.6115723</ele>
        <time>2012-05-07T13:07:26Z</time>
      </trkpt>
      <trkpt lat="50.30117" lon="3.67861">
        <ele>111.6502686</ele>
        <time>2012-05-07T13:07:34Z</time>
      </trkpt>
      <trkpt lat="50.30143" lon="3.67859">
        <ele>111.6502686</ele>
        <time>2012-05-07T13:07:39Z</time>
      </trkpt>
      <trkpt lat="50.30164" lon="3.67848">
        <ele>110.6888428</ele>
        <time>2012-05-07T13:07:43Z</time>
      </trkpt>
      <trkpt lat="50.30191" lon="3.67851">
        <ele>113.0922852</ele>
        <time>2012-05-07T13:07:49Z</time>
      </trkpt>
      <trkpt lat="50.3021" lon="3.67853">
        <ele>115.0148926</ele>
        <time>2012-05-07T13:07:53Z</time>
      </trkpt>
      <trkpt lat="50.30251" lon="3.67854">
        <ele>115.0148926</ele>
        <time>2012-05-07T13:08:02Z</time>
      </trkpt>
      <trkpt lat="50.30293" lon="3.67855">
        <ele>114.0535889</ele>
        <time>2012-05-07T13:08:10Z</time>
      </trkpt>
      <trkpt lat="50.30327" lon="3.67858">
        <ele>114.0535889</ele>
        <time>2012-05-07T13:08:16Z</time>
      </trkpt>
      <trkpt lat="50.30376" lon="3.67863">
        <ele>114.0535889</ele>
        <time>2012-05-07T13:08:24Z</time>
      </trkpt>
      <trkpt lat="50.30423" lon="3.67879">
        <ele>114.0535889</ele>
        <time>2012-05-07T13:08:31Z</time>
      </trkpt>
      <trkpt lat="50.30455" lon="3.67894">
        <ele>113.572998</ele>
        <time>2012-05-07T13:08:36Z</time>
      </trkpt>
      <trkpt lat="50.30474" lon="3.67888">
        <ele>113.0922852</ele>
        <time>2012-05-07T13:08:39Z</time>
      </trkpt>
      <trkpt lat="50.30483" lon="3.67862">
        <ele>114.0535889</ele>
        <time>2012-05-07T13:08:42Z</time>
      </trkpt>
      <trkpt lat="50.30491" lon="3.6779">
        <ele>115.0148926</ele>
        <time>2012-05-07T13:08:50Z</time>
      </trkpt>
      <trkpt lat="50.30496" lon="3.67728">
        <ele>115.0148926</ele>
        <time>2012-05-07T13:08:57Z</time>
      </trkpt>
      <trkpt lat="50.3051" lon="3.6765">
        <ele>114.0535889</ele>
        <time>2012-05-07T13:09:06Z</time>
      </trkpt>
      <trkpt lat="50.30518" lon="3.67573">
        <ele>115.9761963</ele>
        <time>2012-05-07T13:09:15Z</time>
      </trkpt>
      <trkpt lat="50.30529" lon="3.67517">
        <ele>116.4567871</ele>
        <time>2012-05-07T13:09:22Z</time>
      </trkpt>
      <trkpt lat="50.30546" lon="3.67442">
        <ele>114.5341797</ele>
        <time>2012-05-07T13:09:31Z</time>
      </trkpt>
      <trkpt lat="50.30569" lon="3.6734">
        <ele>114.0535889</ele>
        <time>2012-05-07T13:09:43Z</time>
      </trkpt>
      <trkpt lat="50.30589" lon="3.67254">
        <ele>114.5341797</ele>
        <time>2012-05-07T13:09:53Z</time>
      </trkpt>
      <trkpt lat="50.30595" lon="3.67198">
        <ele>114.5341797</ele>
        <time>2012-05-07T13:09:59Z</time>
      </trkpt>
      <trkpt lat="50.30603" lon="3.67118">
        <ele>113.0922852</ele>
        <time>2012-05-07T13:10:07Z</time>
      </trkpt>
      <trkpt lat="50.30611" lon="3.67024">
        <ele>112.1309814</ele>
        <time>2012-05-07T13:10:16Z</time>
      </trkpt>
      <trkpt lat="50.30622" lon="3.66941">
        <ele>111.1695557</ele>
        <time>2012-05-07T13:10:23Z</time>
      </trkpt>
      <trkpt lat="50.30628" lon="3.66864">
        <ele>108.2856445</ele>
        <time>2012-05-07T13:10:29Z</time>
      </trkpt>
      <trkpt lat="50.30631" lon="3.66792">
        <ele>104.4404297</ele>
        <time>2012-05-07T13:10:34Z</time>
      </trkpt>
      <trkpt lat="50.30633" lon="3.66764">
        <ele>103.9597168</ele>
        <time>2012-05-07T13:10:36Z</time>
      </trkpt>
      <trkpt lat="50.30629" lon="3.66675">
        <ele>98.1918945</ele>
        <time>2012-05-07T13:10:43Z</time>
      </trkpt>
      <trkpt lat="50.30625" lon="3.66651">
        <ele>95.7884521</ele>
        <time>2012-05-07T13:10:45Z</time>
      </trkpt>
      <trkpt lat="50.30615" lon="3.66606">
        <ele>96.2692871</ele>
        <time>2012-05-07T13:10:49Z</time>
      </trkpt>
      <trkpt lat="50.30593" lon="3.66547">
        <ele>94.8271484</ele>
        <time>2012-05-07T13:10:55Z</time>
      </trkpt>
      <trkpt lat="50.30568" lon="3.66496">
        <ele>101.5563965</ele>
        <time>2012-05-07T13:11:00Z</time>
      </trkpt>
      <trkpt lat="50.30554" lon="3.6644">
        <ele>101.5563965</ele>
        <time>2012-05-07T13:11:05Z</time>
      </trkpt>
      <trkpt lat="50.30549" lon="3.66397">
        <ele>95.7884521</ele>
        <time>2012-05-07T13:11:09Z</time>
      </trkpt>
      <trkpt lat="50.30554" lon="3.66366">
        <ele>94.3465576</ele>
        <time>2012-05-07T13:11:12Z</time>
      </trkpt>
      <trkpt lat="50.30552" lon="3.66327">
        <ele>95.7884521</ele>
        <time>2012-05-07T13:11:16Z</time>
      </trkpt>
      <trkpt lat="50.3055" lon="3.66318">
        <ele>96.2692871</ele>
        <time>2012-05-07T13:11:17Z</time>
      </trkpt>
      <trkpt lat="50.30546" lon="3.66301">
        <ele>95.7884521</ele>
        <time>2012-05-07T13:11:19Z</time>
      </trkpt>
      <trkpt lat="50.30527" lon="3.66235">
        <ele>95.7884521</ele>
        <time>2012-05-07T13:11:26Z</time>
      </trkpt>
      <trkpt lat="50.30521" lon="3.66205">
        <ele>94.8271484</ele>
        <time>2012-05-07T13:11:29Z</time>
      </trkpt>
      <trkpt lat="50.30524" lon="3.66174">
        <ele>93.3851318</ele>
        <time>2012-05-07T13:11:33Z</time>
      </trkpt>
      <trkpt lat="50.30539" lon="3.66164">
        <ele>91.9432373</ele>
        <time>2012-05-07T13:11:36Z</time>
      </trkpt>
      <trkpt lat="50.30581" lon="3.66146">
        <ele>90.5013428</ele>
        <time>2012-05-07T13:11:43Z</time>
      </trkpt>
      <trkpt lat="50.30619" lon="3.66137">
        <ele>90.9819336</ele>
        <time>2012-05-07T13:11:49Z</time>
      </trkpt>
      <trkpt lat="50.30657" lon="3.66113">
        <ele>91.4625244</ele>
        <time>2012-05-07T13:11:55Z</time>
      </trkpt>
      <trkpt lat="50.3067" lon="3.66101">
        <ele>92.4239502</ele>
        <time>2012-05-07T13:11:57Z</time>
      </trkpt>
      <trkpt lat="50.30692" lon="3.66056">
        <ele>90.9819336</ele>
        <time>2012-05-07T13:12:02Z</time>
      </trkpt>
      <trkpt lat="50.30704" lon="3.66003">
        <ele>90.0206299</ele>
        <time>2012-05-07T13:12:07Z</time>
      </trkpt>
      <trkpt lat="50.30724" lon="3.65969">
        <ele>88.0980225</ele>
        <time>2012-05-07T13:12:11Z</time>
      </trkpt>
      <trkpt lat="50.30751" lon="3.65945">
        <ele>86.6560059</ele>
        <time>2012-05-07T13:12:15Z</time>
      </trkpt>
      <trkpt lat="50.30771" lon="3.65938">
        <ele>86.6560059</ele>
        <time>2012-05-07T13:12:18Z</time>
      </trkpt>
      <trkpt lat="50.30781" lon="3.65957">
        <ele>86.6560059</ele>
        <time>2012-05-07T13:12:21Z</time>
      </trkpt>
      <trkpt lat="50.30786" lon="3.65971">
        <ele>87.1365967</ele>
        <time>2012-05-07T13:12:24Z</time>
      </trkpt>
      <trkpt lat="50.30791" lon="3.65998">
        <ele>89.0593262</ele>
        <time>2012-05-07T13:12:30Z</time>
      </trkpt>
      <trkpt lat="50.30796" lon="3.66021">
        <ele>90.5013428</ele>
        <time>2012-05-07T13:12:35Z</time>
      </trkpt>
      <trkpt lat="50.30803" lon="3.66042">
        <ele>91.9432373</ele>
        <time>2012-05-07T13:12:39Z</time>
      </trkpt>
      <trkpt lat="50.30812" lon="3.66073">
        <ele>93.8658447</ele>
        <time>2012-05-07T13:12:45Z</time>
      </trkpt>
      <trkpt lat="50.30826" lon="3.66076">
        <ele>93.3851318</ele>
        <time>2012-05-07T13:12:49Z</time>
      </trkpt>
      <trkpt lat="50.30831" lon="3.66074">
        <ele>93.3851318</ele>
        <time>2012-05-07T13:12:50Z</time>
      </trkpt>
      <trkpt lat="50.30839" lon="3.66068">
        <ele>92.904541</ele>
        <time>2012-05-07T13:12:52Z</time>
      </trkpt>
      <trkpt lat="50.30853" lon="3.66061">
        <ele>92.4239502</ele>
        <time>2012-05-07T13:12:55Z</time>
      </trkpt>
      <trkpt lat="50.30859" lon="3.6604">
        <ele>92.4239502</ele>
        <time>2012-05-07T13:12:59Z</time>
      </trkpt>
      <trkpt lat="50.30852" lon="3.66007">
        <ele>93.3851318</ele>
        <time>2012-05-07T13:13:03Z</time>
      </trkpt>
      <trkpt lat="50.3085" lon="3.65997">
        <ele>93.3851318</ele>
        <time>2012-05-07T13:13:04Z</time>
      </trkpt>
      <trkpt lat="50.30844" lon="3.65977">
        <ele>92.4239502</ele>
        <time>2012-05-07T13:13:06Z</time>
      </trkpt>
      <trkpt lat="50.30836" lon="3.65943">
        <ele>90.5013428</ele>
        <time>2012-05-07T13:13:09Z</time>
      </trkpt>
      <trkpt lat="50.3082" lon="3.65857">
        <ele>84.7333984</ele>
        <time>2012-05-07T13:13:15Z</time>
      </trkpt>
      <trkpt lat="50.30808" lon="3.65759">
        <ele>80.4074707</ele>
        <time>2012-05-07T13:13:21Z</time>
      </trkpt>
      <trkpt lat="50.30806" lon="3.65742">
        <ele>79.4460449</ele>
        <time>2012-05-07T13:13:22Z</time>
      </trkpt>
      <trkpt lat="50.30791" lon="3.65685">
        <ele>77.5234375</ele>
        <time>2012-05-07T13:13:26Z</time>
      </trkpt>
      <trkpt lat="50.30765" lon="3.65617">
        <ele>76.5621338</ele>
        <time>2012-05-07T13:13:32Z</time>
      </trkpt>
      <trkpt lat="50.30743" lon="3.65558">
        <ele>77.5234375</ele>
        <time>2012-05-07T13:13:38Z</time>
      </trkpt>
      <trkpt lat="50.30726" lon="3.65514">
        <ele>75.6008301</ele>
        <time>2012-05-07T13:13:44Z</time>
      </trkpt>
      <trkpt lat="50.30711" lon="3.65486">
        <ele>76.0814209</ele>
        <time>2012-05-07T13:13:49Z</time>
      </trkpt>
      <trkpt lat="50.30687" lon="3.65451">
        <ele>76.5621338</ele>
        <time>2012-05-07T13:13:57Z</time>
      </trkpt>
      <trkpt lat="50.30666" lon="3.65423">
        <ele>78.4847412</ele>
        <time>2012-05-07T13:14:05Z</time>
      </trkpt>
      <trkpt lat="50.30651" lon="3.65401">
        <ele>80.8881836</ele>
        <time>2012-05-07T13:14:12Z</time>
      </trkpt>
      <trkpt lat="50.3064" lon="3.65385">
        <ele>81.3687744</ele>
        <time>2012-05-07T13:14:17Z</time>
      </trkpt>
      <trkpt lat="50.30639" lon="3.65364">
        <ele>81.3687744</ele>
        <time>2012-05-07T13:14:22Z</time>
      </trkpt>
      <trkpt lat="50.3064" lon="3.65346">
        <ele>80.8881836</ele>
        <time>2012-05-07T13:14:28Z</time>
      </trkpt>
      <trkpt lat="50.3064" lon="3.65346">
        <ele>80.8881836</ele>
        <time>2012-05-07T13:14:29Z</time>
      </trkpt>
      <trkpt lat="50.30634" lon="3.65336">
        <ele>87.1365967</ele>
        <time>2012-05-07T13:16:08Z</time>
      </trkpt>
      <trkpt lat="50.30635" lon="3.65311">
        <ele>86.175293</ele>
        <time>2012-05-07T13:16:13Z</time>
      </trkpt>
      <trkpt lat="50.30639" lon="3.65272">
        <ele>87.1365967</ele>
        <time>2012-05-07T13:16:20Z</time>
      </trkpt>
      <trkpt lat="50.30643" lon="3.65245">
        <ele>87.6171875</ele>
        <time>2012-05-07T13:16:25Z</time>
      </trkpt>
      <trkpt lat="50.30656" lon="3.6524">
        <ele>88.0980225</ele>
        <time>2012-05-07T13:16:29Z</time>
      </trkpt>
      <trkpt lat="50.30675" lon="3.65242">
        <ele>89.0593262</ele>
        <time>2012-05-07T13:16:34Z</time>
      </trkpt>
      <trkpt lat="50.3068" lon="3.65223">
        <ele>88.5787354</ele>
        <time>2012-05-07T13:16:38Z</time>
      </trkpt>
      <trkpt lat="50.30687" lon="3.65184">
        <ele>87.1365967</ele>
        <time>2012-05-07T13:16:45Z</time>
      </trkpt>
      <trkpt lat="50.30694" lon="3.65119">
        <ele>85.2139893</ele>
        <time>2012-05-07T13:16:53Z</time>
      </trkpt>
      <trkpt lat="50.307" lon="3.65076">
        <ele>83.2913818</ele>
        <time>2012-05-07T13:16:58Z</time>
      </trkpt>
      <trkpt lat="50.30703" lon="3.65041">
        <ele>82.810791</ele>
        <time>2012-05-07T13:17:02Z</time>
      </trkpt>
      <trkpt lat="50.30701" lon="3.65015">
        <ele>82.810791</ele>
        <time>2012-05-07T13:17:05Z</time>
      </trkpt>
      <trkpt lat="50.30696" lon="3.64967">
        <ele>83.2913818</ele>
        <time>2012-05-07T13:17:11Z</time>
      </trkpt>
      <trkpt lat="50.30692" lon="3.64933">
        <ele>85.6945801</ele>
        <time>2012-05-07T13:17:16Z</time>
      </trkpt>
      <trkpt lat="50.30685" lon="3.64876">
        <ele>87.1365967</ele>
        <time>2012-05-07T13:17:23Z</time>
      </trkpt>
      <trkpt lat="50.30683" lon="3.6485">
        <ele>87.1365967</ele>
        <time>2012-05-07T13:17:26Z</time>
      </trkpt>
      <trkpt lat="50.30681" lon="3.64833">
        <ele>87.1365967</ele>
        <time>2012-05-07T13:17:28Z</time>
      </trkpt>
      <trkpt lat="50.30677" lon="3.64779">
        <ele>89.539917</ele>
        <time>2012-05-07T13:17:34Z</time>
      </trkpt>
      <trkpt lat="50.30684" lon="3.64724">
        <ele>88.5787354</ele>
        <time>2012-05-07T13:17:40Z</time>
      </trkpt>
      <trkpt lat="50.30698" lon="3.64634">
        <ele>86.6560059</ele>
        <time>2012-05-07T13:17:50Z</time>
      </trkpt>
      <trkpt lat="50.30704" lon="3.6459">
        <ele>86.6560059</ele>
        <time>2012-05-07T13:17:55Z</time>
      </trkpt>
      <trkpt lat="50.30705" lon="3.64572">
        <ele>86.175293</ele>
        <time>2012-05-07T13:17:57Z</time>
      </trkpt>
      <trkpt lat="50.30706" lon="3.64542">
        <ele>85.2139893</ele>
        <time>2012-05-07T13:18:01Z</time>
      </trkpt>
      <trkpt lat="50.30716" lon="3.6448">
        <ele>84.2526855</ele>
        <time>2012-05-07T13:18:08Z</time>
      </trkpt>
      <trkpt lat="50.30726" lon="3.64427">
        <ele>82.810791</ele>
        <time>2012-05-07T13:18:14Z</time>
      </trkpt>
      <trkpt lat="50.30732" lon="3.64407">
        <ele>82.3300781</ele>
        <time>2012-05-07T13:18:17Z</time>
      </trkpt>
      <trkpt lat="50.30744" lon="3.64356">
        <ele>82.3300781</ele>
        <time>2012-05-07T13:18:24Z</time>
      </trkpt>
      <trkpt lat="50.30754" lon="3.6431">
        <ele>82.810791</ele>
        <time>2012-05-07T13:18:30Z</time>
      </trkpt>
      <trkpt lat="50.30769" lon="3.64258">
        <ele>81.8493652</ele>
        <time>2012-05-07T13:18:36Z</time>
      </trkpt>
      <trkpt lat="50.30786" lon="3.642">
        <ele>80.4074707</ele>
        <time>2012-05-07T13:18:43Z</time>
      </trkpt>
      <trkpt lat="50.30809" lon="3.64124">
        <ele>81.3687744</ele>
        <time>2012-05-07T13:18:53Z</time>
      </trkpt>
      <trkpt lat="50.30818" lon="3.64098">
        <ele>80.8881836</ele>
        <time>2012-05-07T13:18:57Z</time>
      </trkpt>
      <trkpt lat="50.30836" lon="3.64052">
        <ele>80.8881836</ele>
        <time>2012-05-07T13:19:04Z</time>
      </trkpt>
      <trkpt lat="50.30842" lon="3.64033">
        <ele>81.3687744</ele>
        <time>2012-05-07T13:19:07Z</time>
      </trkpt>
      <trkpt lat="50.30856" lon="3.63998">
        <ele>82.3300781</ele>
        <time>2012-05-07T13:19:13Z</time>
      </trkpt>
      <trkpt lat="50.30859" lon="3.63988">
        <ele>82.3300781</ele>
        <time>2012-05-07T13:19:15Z</time>
      </trkpt>
      <trkpt lat="50.30865" lon="3.63964">
        <ele>81.8493652</ele>
        <time>2012-05-07T13:19:21Z</time>
      </trkpt>
      <trkpt lat="50.30868" lon="3.63954">
        <ele>80.8881836</ele>
        <time>2012-05-07T13:19:26Z</time>
      </trkpt>
      <trkpt lat="50.30871" lon="3.63946">
        <ele>81.3687744</ele>
        <time>2012-05-07T13:19:31Z</time>
      </trkpt>
      <trkpt lat="50.30875" lon="3.63933">
        <ele>80.4074707</ele>
        <time>2012-05-07T13:19:36Z</time>
      </trkpt>
      <trkpt lat="50.30882" lon="3.63915">
        <ele>78.9654541</ele>
        <time>2012-05-07T13:19:40Z</time>
      </trkpt>
      <trkpt lat="50.30895" lon="3.63883">
        <ele>73.6782227</ele>
        <time>2012-05-07T13:19:46Z</time>
      </trkpt>
      <trkpt lat="50.30906" lon="3.63856">
        <ele>71.2749023</ele>
        <time>2012-05-07T13:19:51Z</time>
      </trkpt>
      <trkpt lat="50.30911" lon="3.63841">
        <ele>70.7941895</ele>
        <time>2012-05-07T13:19:54Z</time>
      </trkpt>
      <trkpt lat="50.30919" lon="3.63825">
        <ele>69.3522949</ele>
        <time>2012-05-07T13:19:59Z</time>
      </trkpt>
      <trkpt lat="50.30926" lon="3.63811">
        <ele>67.4296875</ele>
        <time>2012-05-07T13:20:04Z</time>
      </trkpt>
      <trkpt lat="50.30937" lon="3.63781">
        <ele>71.2749023</ele>
        <time>2012-05-07T13:20:10Z</time>
      </trkpt>
      <trkpt lat="50.30947" lon="3.63753">
        <ele>75.6008301</ele>
        <time>2012-05-07T13:20:15Z</time>
      </trkpt>
      <trkpt lat="50.30956" lon="3.63722">
        <ele>80.8881836</ele>
        <time>2012-05-07T13:20:20Z</time>
      </trkpt>
      <trkpt lat="50.30966" lon="3.63692">
        <ele>82.810791</ele>
        <time>2012-05-07T13:20:25Z</time>
      </trkpt>
      <trkpt lat="50.30972" lon="3.63679">
        <ele>81.3687744</ele>
        <time>2012-05-07T13:20:27Z</time>
      </trkpt>
      <trkpt lat="50.30976" lon="3.63666">
        <ele>80.8881836</ele>
        <time>2012-05-07T13:20:29Z</time>
      </trkpt>
      <trkpt lat="50.30985" lon="3.63642">
        <ele>80.8881836</ele>
        <time>2012-05-07T13:20:33Z</time>
      </trkpt>
      <trkpt lat="50.30998" lon="3.63621">
        <ele>74.6395264</ele>
        <time>2012-05-07T13:20:37Z</time>
      </trkpt>
      <trkpt lat="50.31004" lon="3.63613">
        <ele>72.2362061</ele>
        <time>2012-05-07T13:20:39Z</time>
      </trkpt>
      <trkpt lat="50.31017" lon="3.63582">
        <ele>72.2362061</ele>
        <time>2012-05-07T13:20:45Z</time>
      </trkpt>
      <trkpt lat="50.31024" lon="3.6356">
        <ele>73.6782227</ele>
        <time>2012-05-07T13:20:50Z</time>
      </trkpt>
      <trkpt lat="50.31039" lon="3.63531">
        <ele>73.1976318</ele>
        <time>2012-05-07T13:20:57Z</time>
      </trkpt>
      <trkpt lat="50.31047" lon="3.63514">
        <ele>72.7169189</ele>
        <time>2012-05-07T13:21:02Z</time>
      </trkpt>
      <trkpt lat="50.31053" lon="3.63498">
        <ele>73.6782227</ele>
        <time>2012-05-07T13:21:06Z</time>
      </trkpt>
      <trkpt lat="50.31062" lon="3.6348">
        <ele>77.5234375</ele>
        <time>2012-05-07T13:21:11Z</time>
      </trkpt>
      <trkpt lat="50.31064" lon="3.63478">
        <ele>77.0428467</ele>
        <time>2012-05-07T13:21:12Z</time>
      </trkpt>
      <trkpt lat="50.31064" lon="3.63472">
        <ele>78.9654541</ele>
        <time>2012-05-07T13:21:15Z</time>
      </trkpt>
      <trkpt lat="50.31059" lon="3.63467">
        <ele>81.3687744</ele>
        <time>2012-05-07T13:21:20Z</time>
      </trkpt>
      <trkpt lat="50.31057" lon="3.63455">
        <ele>84.2526855</ele>
        <time>2012-05-07T13:21:24Z</time>
      </trkpt>
      <trkpt lat="50.31056" lon="3.63447">
        <ele>84.7333984</ele>
        <time>2012-05-07T13:21:26Z</time>
      </trkpt>
      <trkpt lat="50.3105" lon="3.63401">
        <ele>87.1365967</ele>
        <time>2012-05-07T13:21:36Z</time>
      </trkpt>
      <trkpt lat="50.31044" lon="3.63359">
        <ele>84.7333984</ele>
        <time>2012-05-07T13:21:45Z</time>
      </trkpt>
      <trkpt lat="50.31042" lon="3.63344">
        <ele>84.2526855</ele>
        <time>2012-05-07T13:21:49Z</time>
      </trkpt>
      <trkpt lat="50.31039" lon="3.63322">
        <ele>85.6945801</ele>
        <time>2012-05-07T13:21:55Z</time>
      </trkpt>
      <trkpt lat="50.31038" lon="3.63297">
        <ele>84.2526855</ele>
        <time>2012-05-07T13:22:01Z</time>
      </trkpt>
      <trkpt lat="50.31033" lon="3.6327">
        <ele>82.810791</ele>
        <time>2012-05-07T13:22:07Z</time>
      </trkpt>
      <trkpt lat="50.3103" lon="3.63257">
        <ele>82.810791</ele>
        <time>2012-05-07T13:22:10Z</time>
      </trkpt>
      <trkpt lat="50.31033" lon="3.63248">
        <ele>85.2139893</ele>
        <time>2012-05-07T13:22:14Z</time>
      </trkpt>
      <trkpt lat="50.31052" lon="3.6323">
        <ele>88.0980225</ele>
        <time>2012-05-07T13:22:20Z</time>
      </trkpt>
      <trkpt lat="50.31063" lon="3.6322">
        <ele>87.6171875</ele>
        <time>2012-05-07T13:22:23Z</time>
      </trkpt>
      <trkpt lat="50.31065" lon="3.63201">
        <ele>88.0980225</ele>
        <time>2012-05-07T13:22:27Z</time>
      </trkpt>
      <trkpt lat="50.31065" lon="3.63178">
        <ele>85.6945801</ele>
        <time>2012-05-07T13:22:32Z</time>
      </trkpt>
      <trkpt lat="50.3106" lon="3.63156">
        <ele>87.1365967</ele>
        <time>2012-05-07T13:22:36Z</time>
      </trkpt>
      <trkpt lat="50.31056" lon="3.63131">
        <ele>87.6171875</ele>
        <time>2012-05-07T13:22:41Z</time>
      </trkpt>
      <trkpt lat="50.31066" lon="3.63121">
        <ele>85.6945801</ele>
        <time>2012-05-07T13:22:45Z</time>
      </trkpt>
      <trkpt lat="50.31077" lon="3.63111">
        <ele>85.6945801</ele>
        <time>2012-05-07T13:22:48Z</time>
      </trkpt>
      <trkpt lat="50.31098" lon="3.63089">
        <ele>85.2139893</ele>
        <time>2012-05-07T13:22:54Z</time>
      </trkpt>
      <trkpt lat="50.31105" lon="3.63082">
        <ele>84.7333984</ele>
        <time>2012-05-07T13:22:56Z</time>
      </trkpt>
      <trkpt lat="50.31117" lon="3.63064">
        <ele>83.2913818</ele>
        <time>2012-05-07T13:23:01Z</time>
      </trkpt>
      <trkpt lat="50.31131" lon="3.63033">
        <ele>84.7333984</ele>
        <time>2012-05-07T13:23:08Z</time>
      </trkpt>
      <trkpt lat="50.31133" lon="3.63009">
        <ele>88.5787354</ele>
        <time>2012-05-07T13:23:12Z</time>
      </trkpt>
      <trkpt lat="50.31127" lon="3.62972">
        <ele>90.5013428</ele>
        <time>2012-05-07T13:23:19Z</time>
      </trkpt>
      <trkpt lat="50.31125" lon="3.6294">
        <ele>92.4239502</ele>
        <time>2012-05-07T13:23:26Z</time>
      </trkpt>
      <trkpt lat="50.31124" lon="3.62911">
        <ele>95.7884521</ele>
        <time>2012-05-07T13:23:32Z</time>
      </trkpt>
      <trkpt lat="50.31125" lon="3.62878">
        <ele>99.6337891</ele>
        <time>2012-05-07T13:23:39Z</time>
      </trkpt>
      <trkpt lat="50.31126" lon="3.62865">
        <ele>99.1530762</ele>
        <time>2012-05-07T13:23:42Z</time>
      </trkpt>
      <trkpt lat="50.31133" lon="3.62862">
        <ele>99.1530762</ele>
        <time>2012-05-07T13:23:46Z</time>
      </trkpt>
      <trkpt lat="50.31134" lon="3.62861">
        <ele>98.6724854</ele>
        <time>2012-05-07T13:23:50Z</time>
      </trkpt>
      <trkpt lat="50.31137" lon="3.62855">
        <ele>104.9210205</ele>
        <time>2012-05-07T13:24:34Z</time>
      </trkpt>
      <trkpt lat="50.31139" lon="3.62853">
        <ele>104.9210205</ele>
        <time>2012-05-07T13:24:39Z</time>
      </trkpt>
      <trkpt lat="50.31137" lon="3.62854">
        <ele>103.4790039</ele>
        <time>2012-05-07T13:24:42Z</time>
      </trkpt>
      <trkpt lat="50.31142" lon="3.62854">
        <ele>102.0371094</ele>
        <time>2012-05-07T13:24:46Z</time>
      </trkpt>
      <trkpt lat="50.3116" lon="3.6285">
        <ele>101.0756836</ele>
        <time>2012-05-07T13:24:51Z</time>
      </trkpt>
      <trkpt lat="50.3119" lon="3.62848">
        <ele>101.0756836</ele>
        <time>2012-05-07T13:24:59Z</time>
      </trkpt>
      <trkpt lat="50.31223" lon="3.62847">
        <ele>102.0371094</ele>
        <time>2012-05-07T13:25:07Z</time>
      </trkpt>
      <trkpt lat="50.31239" lon="3.62836">
        <ele>102.998291</ele>
        <time>2012-05-07T13:25:11Z</time>
      </trkpt>
      <trkpt lat="50.31259" lon="3.62805">
        <ele>102.0371094</ele>
        <time>2012-05-07T13:25:17Z</time>
      </trkpt>
      <trkpt lat="50.31288" lon="3.62751">
        <ele>99.1530762</ele>
        <time>2012-05-07T13:25:26Z</time>
      </trkpt>
      <trkpt lat="50.31291" lon="3.62745">
        <ele>99.1530762</ele>
        <time>2012-05-07T13:25:27Z</time>
      </trkpt>
      <trkpt lat="50.31296" lon="3.6272">
        <ele>99.6337891</ele>
        <time>2012-05-07T13:25:31Z</time>
      </trkpt>
      <trkpt lat="50.31291" lon="3.62675">
        <ele>101.5563965</ele>
        <time>2012-05-07T13:25:37Z</time>
      </trkpt>
      <trkpt lat="50.31291" lon="3.62651">
        <ele>103.4790039</ele>
        <time>2012-05-07T13:25:40Z</time>
      </trkpt>
      <trkpt lat="50.31294" lon="3.62593">
        <ele>104.4404297</ele>
        <time>2012-05-07T13:25:48Z</time>
      </trkpt>
      <trkpt lat="50.31298" lon="3.62542">
        <ele>106.3630371</ele>
        <time>2012-05-07T13:25:55Z</time>
      </trkpt>
      <trkpt lat="50.31306" lon="3.62486">
        <ele>107.8050537</ele>
        <time>2012-05-07T13:26:02Z</time>
      </trkpt>
      <trkpt lat="50.31311" lon="3.62425">
        <ele>106.8436279</ele>
        <time>2012-05-07T13:26:09Z</time>
      </trkpt>
      <trkpt lat="50.31317" lon="3.62339">
        <ele>106.3630371</ele>
        <time>2012-05-07T13:26:18Z</time>
      </trkpt>
      <trkpt lat="50.31323" lon="3.62299">
        <ele>106.3630371</ele>
        <time>2012-05-07T13:26:22Z</time>
      </trkpt>
      <trkpt lat="50.31344" lon="3.62225">
        <ele>105.4017334</ele>
        <time>2012-05-07T13:26:30Z</time>
      </trkpt>
      <trkpt lat="50.3135" lon="3.62207">
        <ele>104.9210205</ele>
        <time>2012-05-07T13:26:32Z</time>
      </trkpt>
      <trkpt lat="50.31355" lon="3.62181">
        <ele>103.9597168</ele>
        <time>2012-05-07T13:26:35Z</time>
      </trkpt>
      <trkpt lat="50.31366" lon="3.62137">
        <ele>102.998291</ele>
        <time>2012-05-07T13:26:42Z</time>
      </trkpt>
      <trkpt lat="50.31379" lon="3.62095">
        <ele>101.5563965</ele>
        <time>2012-05-07T13:26:49Z</time>
      </trkpt>
      <trkpt lat="50.31394" lon="3.62045">
        <ele>99.6337891</ele>
        <time>2012-05-07T13:26:56Z</time>
      </trkpt>
      <trkpt lat="50.31412" lon="3.61979">
        <ele>101.0756836</ele>
        <time>2012-05-07T13:27:05Z</time>
      </trkpt>
      <trkpt lat="50.31425" lon="3.61921">
        <ele>101.5563965</ele>
        <time>2012-05-07T13:27:12Z</time>
      </trkpt>
      <trkpt lat="50.31439" lon="3.61846">
        <ele>102.5177002</ele>
        <time>2012-05-07T13:27:21Z</time>
      </trkpt>
      <trkpt lat="50.31449" lon="3.6178">
        <ele>102.0371094</ele>
        <time>2012-05-07T13:27:29Z</time>
      </trkpt>
      <trkpt lat="50.31459" lon="3.61716">
        <ele>102.998291</ele>
        <time>2012-05-07T13:27:37Z</time>
      </trkpt>
      <trkpt lat="50.31462" lon="3.61683">
        <ele>102.5177002</ele>
        <time>2012-05-07T13:27:41Z</time>
      </trkpt>
      <trkpt lat="50.31465" lon="3.61652">
        <ele>102.0371094</ele>
        <time>2012-05-07T13:27:45Z</time>
      </trkpt>
      <trkpt lat="50.31468" lon="3.61614">
        <ele>101.0756836</ele>
        <time>2012-05-07T13:27:50Z</time>
      </trkpt>
      <trkpt lat="50.31466" lon="3.61565">
        <ele>101.0756836</ele>
        <time>2012-05-07T13:27:57Z</time>
      </trkpt>
      <trkpt lat="50.31461" lon="3.61508">
        <ele>101.0756836</ele>
        <time>2012-05-07T13:28:05Z</time>
      </trkpt>
      <trkpt lat="50.31456" lon="3.61437">
        <ele>98.1918945</ele>
        <time>2012-05-07T13:28:15Z</time>
      </trkpt>
      <trkpt lat="50.31456" lon="3.61379">
        <ele>102.5177002</ele>
        <time>2012-05-07T13:28:23Z</time>
      </trkpt>
      <trkpt lat="50.31454" lon="3.61323">
        <ele>106.3630371</ele>
        <time>2012-05-07T13:28:31Z</time>
      </trkpt>
      <trkpt lat="50.31451" lon="3.61297">
        <ele>107.3243408</ele>
        <time>2012-05-07T13:28:35Z</time>
      </trkpt>
      <trkpt lat="50.31444" lon="3.61273">
        <ele>109.2469482</ele>
        <time>2012-05-07T13:28:39Z</time>
      </trkpt>
      <trkpt lat="50.31439" lon="3.6126">
        <ele>110.6888428</ele>
        <time>2012-05-07T13:28:41Z</time>
      </trkpt>
      <trkpt lat="50.31419" lon="3.6123">
        <ele>108.7662354</ele>
        <time>2012-05-07T13:28:47Z</time>
      </trkpt>
      <trkpt lat="50.31409" lon="3.61219">
        <ele>103.9597168</ele>
        <time>2012-05-07T13:28:51Z</time>
      </trkpt>
      <trkpt lat="50.31402" lon="3.61201">
        <ele>101.0756836</ele>
        <time>2012-05-07T13:28:56Z</time>
      </trkpt>
      <trkpt lat="50.31399" lon="3.61194">
        <ele>99.1530762</ele>
        <time>2012-05-07T13:29:01Z</time>
      </trkpt>
      <trkpt lat="50.31394" lon="3.61171">
        <ele>101.5563965</ele>
        <time>2012-05-07T13:29:06Z</time>
      </trkpt>
      <trkpt lat="50.31394" lon="3.6114">
        <ele>103.9597168</ele>
        <time>2012-05-07T13:29:12Z</time>
      </trkpt>
      <trkpt lat="50.31387" lon="3.61114">
        <ele>104.9210205</ele>
        <time>2012-05-07T13:29:16Z</time>
      </trkpt>
      <trkpt lat="50.31372" lon="3.61053">
        <ele>104.4404297</ele>
        <time>2012-05-07T13:29:24Z</time>
      </trkpt>
      <trkpt lat="50.31365" lon="3.61022">
        <ele>103.4790039</ele>
        <time>2012-05-07T13:29:28Z</time>
      </trkpt>
      <trkpt lat="50.3136" lon="3.60999">
        <ele>102.998291</ele>
        <time>2012-05-07T13:29:31Z</time>
      </trkpt>
      <trkpt lat="50.31341" lon="3.60923">
        <ele>102.5177002</ele>
        <time>2012-05-07T13:29:41Z</time>
      </trkpt>
      <trkpt lat="50.31321" lon="3.60849">
        <ele>102.5177002</ele>
        <time>2012-05-07T13:29:50Z</time>
      </trkpt>
      <trkpt lat="50.31299" lon="3.60787">
        <ele>99.1530762</ele>
        <time>2012-05-07T13:29:57Z</time>
      </trkpt>
      <trkpt lat="50.31276" lon="3.60712">
        <ele>95.3077393</ele>
        <time>2012-05-07T13:30:05Z</time>
      </trkpt>
      <trkpt lat="50.31252" lon="3.60619">
        <ele>93.3851318</ele>
        <time>2012-05-07T13:30:14Z</time>
      </trkpt>
      <trkpt lat="50.31234" lon="3.6054">
        <ele>93.8658447</ele>
        <time>2012-05-07T13:30:22Z</time>
      </trkpt>
      <trkpt lat="50.31228" lon="3.60501">
        <ele>93.3851318</ele>
        <time>2012-05-07T13:30:26Z</time>
      </trkpt>
      <trkpt lat="50.3122" lon="3.60401">
        <ele>98.1918945</ele>
        <time>2012-05-07T13:30:36Z</time>
      </trkpt>
      <trkpt lat="50.31219" lon="3.60357">
        <ele>100.114502</ele>
        <time>2012-05-07T13:30:41Z</time>
      </trkpt>
      <trkpt lat="50.31226" lon="3.60338">
        <ele>98.1918945</ele>
        <time>2012-05-07T13:30:45Z</time>
      </trkpt>
      <trkpt lat="50.31231" lon="3.60338">
        <ele>97.7111816</ele>
        <time>2012-05-07T13:30:46Z</time>
      </trkpt>
      <trkpt lat="50.31265" lon="3.60345">
        <ele>96.7498779</ele>
        <time>2012-05-07T13:30:53Z</time>
      </trkpt>
      <trkpt lat="50.31314" lon="3.60352">
        <ele>96.7498779</ele>
        <time>2012-05-07T13:31:02Z</time>
      </trkpt>
      <trkpt lat="50.31364" lon="3.60359">
        <ele>97.2304688</ele>
        <time>2012-05-07T13:31:11Z</time>
      </trkpt>
      <trkpt lat="50.31427" lon="3.60365">
        <ele>97.7111816</ele>
        <time>2012-05-07T13:31:22Z</time>
      </trkpt>
      <trkpt lat="50.31455" lon="3.60367">
        <ele>98.1918945</ele>
        <time>2012-05-07T13:31:27Z</time>
      </trkpt>
      <trkpt lat="50.31494" lon="3.60371">
        <ele>99.1530762</ele>
        <time>2012-05-07T13:31:34Z</time>
      </trkpt>
      <trkpt lat="50.31504" lon="3.60369">
        <ele>99.6337891</ele>
        <time>2012-05-07T13:31:36Z</time>
      </trkpt>
      <trkpt lat="50.31521" lon="3.6035">
        <ele>100.5950928</ele>
        <time>2012-05-07T13:31:41Z</time>
      </trkpt>
      <trkpt lat="50.31525" lon="3.60339">
        <ele>100.5950928</ele>
        <time>2012-05-07T13:31:43Z</time>
      </trkpt>
      <trkpt lat="50.31538" lon="3.60305">
        <ele>101.0756836</ele>
        <time>2012-05-07T13:31:49Z</time>
      </trkpt>
      <trkpt lat="50.31562" lon="3.60251">
        <ele>101.0756836</ele>
        <time>2012-05-07T13:31:58Z</time>
      </trkpt>
      <trkpt lat="50.31585" lon="3.602">
        <ele>101.0756836</ele>
        <time>2012-05-07T13:32:06Z</time>
      </trkpt>
      <trkpt lat="50.31611" lon="3.60141">
        <ele>99.6337891</ele>
        <time>2012-05-07T13:32:15Z</time>
      </trkpt>
      <trkpt lat="50.31634" lon="3.60087">
        <ele>99.1530762</ele>
        <time>2012-05-07T13:32:23Z</time>
      </trkpt>
      <trkpt lat="50.3166" lon="3.60025">
        <ele>100.114502</ele>
        <time>2012-05-07T13:32:32Z</time>
      </trkpt>
      <trkpt lat="50.31666" lon="3.60012">
        <ele>100.5950928</ele>
        <time>2012-05-07T13:32:34Z</time>
      </trkpt>
      <trkpt lat="50.31689" lon="3.59999">
        <ele>102.5177002</ele>
        <time>2012-05-07T13:32:39Z</time>
      </trkpt>
      <trkpt lat="50.317" lon="3.60003">
        <ele>103.4790039</ele>
        <time>2012-05-07T13:32:41Z</time>
      </trkpt>
      <trkpt lat="50.31754" lon="3.60032">
        <ele>105.8824463</ele>
        <time>2012-05-07T13:32:52Z</time>
      </trkpt>
      <trkpt lat="50.31799" lon="3.60055">
        <ele>105.8824463</ele>
        <time>2012-05-07T13:33:01Z</time>
      </trkpt>
      <trkpt lat="50.31804" lon="3.60057">
        <ele>105.8824463</ele>
        <time>2012-05-07T13:33:02Z</time>
      </trkpt>
      <trkpt lat="50.31825" lon="3.6007">
        <ele>104.9210205</ele>
        <time>2012-05-07T13:33:06Z</time>
      </trkpt>
      <trkpt lat="50.31878" lon="3.60094">
        <ele>102.0371094</ele>
        <time>2012-05-07T13:33:14Z</time>
      </trkpt>
      <trkpt lat="50.31934" lon="3.60123">
        <ele>99.1530762</ele>
        <time>2012-05-07T13:33:22Z</time>
      </trkpt>
      <trkpt lat="50.31998" lon="3.60154">
        <ele>95.3077393</ele>
        <time>2012-05-07T13:33:30Z</time>
      </trkpt>
      <trkpt lat="50.32025" lon="3.60161">
        <ele>92.904541</ele>
        <time>2012-05-07T13:33:33Z</time>
      </trkpt>
      <trkpt lat="50.32069" lon="3.60144">
        <ele>93.3851318</ele>
        <time>2012-05-07T13:33:38Z</time>
      </trkpt>
      <trkpt lat="50.32078" lon="3.6014">
        <ele>93.3851318</ele>
        <time>2012-05-07T13:33:39Z</time>
      </trkpt>
      <trkpt lat="50.32105" lon="3.60136">
        <ele>93.3851318</ele>
        <time>2012-05-07T13:33:42Z</time>
      </trkpt>
      <trkpt lat="50.32146" lon="3.60138">
        <ele>91.9432373</ele>
        <time>2012-05-07T13:33:47Z</time>
      </trkpt>
      <trkpt lat="50.32159" lon="3.60124">
        <ele>91.4625244</ele>
        <time>2012-05-07T13:33:49Z</time>
      </trkpt>
      <trkpt lat="50.32207" lon="3.60053">
        <ele>92.904541</ele>
        <time>2012-05-07T13:33:57Z</time>
      </trkpt>
      <trkpt lat="50.3225" lon="3.59994">
        <ele>94.8271484</ele>
        <time>2012-05-07T13:34:04Z</time>
      </trkpt>
      <trkpt lat="50.323" lon="3.59926">
        <ele>95.3077393</ele>
        <time>2012-05-07T13:34:12Z</time>
      </trkpt>
      <trkpt lat="50.32337" lon="3.59883">
        <ele>95.7884521</ele>
        <time>2012-05-07T13:34:18Z</time>
      </trkpt>
      <trkpt lat="50.32347" lon="3.5987">
        <ele>95.7884521</ele>
        <time>2012-05-07T13:34:20Z</time>
      </trkpt>
      <trkpt lat="50.32377" lon="3.59834">
        <ele>94.3465576</ele>
        <time>2012-05-07T13:34:26Z</time>
      </trkpt>
      <trkpt lat="50.32393" lon="3.59817">
        <ele>92.904541</ele>
        <time>2012-05-07T13:34:29Z</time>
      </trkpt>
      <trkpt lat="50.32413" lon="3.5978">
        <ele>92.904541</ele>
        <time>2012-05-07T13:34:34Z</time>
      </trkpt>
      <trkpt lat="50.32433" lon="3.5974">
        <ele>93.8658447</ele>
        <time>2012-05-07T13:34:40Z</time>
      </trkpt>
      <trkpt lat="50.3245" lon="3.5969">
        <ele>93.8658447</ele>
        <time>2012-05-07T13:34:46Z</time>
      </trkpt>
      <trkpt lat="50.32455" lon="3.59673">
        <ele>93.3851318</ele>
        <time>2012-05-07T13:34:48Z</time>
      </trkpt>
      <trkpt lat="50.32474" lon="3.59629">
        <ele>95.7884521</ele>
        <time>2012-05-07T13:34:54Z</time>
      </trkpt>
      <trkpt lat="50.32491" lon="3.59586">
        <ele>98.1918945</ele>
        <time>2012-05-07T13:35:01Z</time>
      </trkpt>
      <trkpt lat="50.32499" lon="3.59569">
        <ele>98.6724854</ele>
        <time>2012-05-07T13:35:04Z</time>
      </trkpt>
      <trkpt lat="50.32522" lon="3.59503">
        <ele>97.7111816</ele>
        <time>2012-05-07T13:35:14Z</time>
      </trkpt>
      <trkpt lat="50.32544" lon="3.5944">
        <ele>96.7498779</ele>
        <time>2012-05-07T13:35:23Z</time>
      </trkpt>
      <trkpt lat="50.32565" lon="3.5938">
        <ele>92.4239502</ele>
        <time>2012-05-07T13:35:30Z</time>
      </trkpt>
      <trkpt lat="50.32598" lon="3.59286">
        <ele>89.539917</ele>
        <time>2012-05-07T13:35:39Z</time>
      </trkpt>
      <trkpt lat="50.32619" lon="3.59227">
        <ele>88.0980225</ele>
        <time>2012-05-07T13:35:45Z</time>
      </trkpt>
      <trkpt lat="50.32622" lon="3.5922">
        <ele>88.0980225</ele>
        <time>2012-05-07T13:35:46Z</time>
      </trkpt>
      <trkpt lat="50.32647" lon="3.59162">
        <ele>87.6171875</ele>
        <time>2012-05-07T13:35:53Z</time>
      </trkpt>
      <trkpt lat="50.32658" lon="3.59136">
        <ele>87.6171875</ele>
        <time>2012-05-07T13:35:56Z</time>
      </trkpt>
      <trkpt lat="50.32675" lon="3.59124">
        <ele>88.5787354</ele>
        <time>2012-05-07T13:36:00Z</time>
      </trkpt>
      <trkpt lat="50.32679" lon="3.59127">
        <ele>88.5787354</ele>
        <time>2012-05-07T13:36:01Z</time>
      </trkpt>
      <trkpt lat="50.32716" lon="3.59146">
        <ele>87.1365967</ele>
        <time>2012-05-07T13:36:08Z</time>
      </trkpt>
      <trkpt lat="50.32758" lon="3.59157">
        <ele>84.7333984</ele>
        <time>2012-05-07T13:36:16Z</time>
      </trkpt>
      <trkpt lat="50.32767" lon="3.59158">
        <ele>84.2526855</ele>
        <time>2012-05-07T13:36:18Z</time>
      </trkpt>
      <trkpt lat="50.32775" lon="3.59159">
        <ele>83.7719727</ele>
        <time>2012-05-07T13:36:20Z</time>
      </trkpt>
      <trkpt lat="50.32788" lon="3.59162">
        <ele>82.810791</ele>
        <time>2012-05-07T13:36:25Z</time>
      </trkpt>
      <trkpt lat="50.32805" lon="3.59163">
        <ele>80.8881836</ele>
        <time>2012-05-07T13:36:31Z</time>
      </trkpt>
      <trkpt lat="50.32826" lon="3.59171">
        <ele>78.4847412</ele>
        <time>2012-05-07T13:36:38Z</time>
      </trkpt>
      <trkpt lat="50.32848" lon="3.5918">
        <ele>78.4847412</ele>
        <time>2012-05-07T13:36:43Z</time>
      </trkpt>
      <trkpt lat="50.32857" lon="3.59176">
        <ele>79.4460449</ele>
        <time>2012-05-07T13:36:45Z</time>
      </trkpt>
      <trkpt lat="50.3287" lon="3.59147">
        <ele>82.3300781</ele>
        <time>2012-05-07T13:36:51Z</time>
      </trkpt>
      <trkpt lat="50.32883" lon="3.59103">
        <ele>86.175293</ele>
        <time>2012-05-07T13:36:58Z</time>
      </trkpt>
      <trkpt lat="50.32895" lon="3.5904">
        <ele>88.0980225</ele>
        <time>2012-05-07T13:37:07Z</time>
      </trkpt>
      <trkpt lat="50.32898" lon="3.59026">
        <ele>87.6171875</ele>
        <time>2012-05-07T13:37:09Z</time>
      </trkpt>
      <trkpt lat="50.32905" lon="3.58982">
        <ele>88.5787354</ele>
        <time>2012-05-07T13:37:15Z</time>
      </trkpt>
      <trkpt lat="50.32909" lon="3.58952">
        <ele>89.0593262</ele>
        <time>2012-05-07T13:37:19Z</time>
      </trkpt>
      <trkpt lat="50.32911" lon="3.58938">
        <ele>89.539917</ele>
        <time>2012-05-07T13:37:21Z</time>
      </trkpt>
      <trkpt lat="50.32913" lon="3.58914">
        <ele>90.0206299</ele>
        <time>2012-05-07T13:37:26Z</time>
      </trkpt>
      <trkpt lat="50.32912" lon="3.5889">
        <ele>90.0206299</ele>
        <time>2012-05-07T13:37:31Z</time>
      </trkpt>
      <trkpt lat="50.32906" lon="3.58857">
        <ele>88.5787354</ele>
        <time>2012-05-07T13:37:36Z</time>
      </trkpt>
      <trkpt lat="50.32897" lon="3.58817">
        <ele>89.539917</ele>
        <time>2012-05-07T13:37:42Z</time>
      </trkpt>
      <trkpt lat="50.32895" lon="3.5881">
        <ele>89.0593262</ele>
        <time>2012-05-07T13:37:43Z</time>
      </trkpt>
      <trkpt lat="50.32882" lon="3.58762">
        <ele>88.5787354</ele>
        <time>2012-05-07T13:37:50Z</time>
      </trkpt>
      <trkpt lat="50.32865" lon="3.58707">
        <ele>88.5787354</ele>
        <time>2012-05-07T13:37:58Z</time>
      </trkpt>
      <trkpt lat="50.32857" lon="3.58679">
        <ele>88.5787354</ele>
        <time>2012-05-07T13:38:02Z</time>
      </trkpt>
      <trkpt lat="50.32852" lon="3.58636">
        <ele>90.0206299</ele>
        <time>2012-05-07T13:38:08Z</time>
      </trkpt>
      <trkpt lat="50.32851" lon="3.58628">
        <ele>90.5013428</ele>
        <time>2012-05-07T13:38:09Z</time>
      </trkpt>
      <trkpt lat="50.32845" lon="3.58568">
        <ele>94.3465576</ele>
        <time>2012-05-07T13:38:17Z</time>
      </trkpt>
      <trkpt lat="50.32836" lon="3.58503">
        <ele>97.7111816</ele>
        <time>2012-05-07T13:38:24Z</time>
      </trkpt>
      <trkpt lat="50.32827" lon="3.58429">
        <ele>98.1918945</ele>
        <time>2012-05-07T13:38:31Z</time>
      </trkpt>
      <trkpt lat="50.32809" lon="3.58341">
        <ele>94.8271484</ele>
        <time>2012-05-07T13:38:39Z</time>
      </trkpt>
      <trkpt lat="50.32787" lon="3.58245">
        <ele>88.5787354</ele>
        <time>2012-05-07T13:38:48Z</time>
      </trkpt>
      <trkpt lat="50.32774" lon="3.58158">
        <ele>85.2139893</ele>
        <time>2012-05-07T13:38:56Z</time>
      </trkpt>
      <trkpt lat="50.32775" lon="3.5808">
        <ele>83.2913818</ele>
        <time>2012-05-07T13:39:03Z</time>
      </trkpt>
      <trkpt lat="50.32781" lon="3.57974">
        <ele>83.7719727</ele>
        <time>2012-05-07T13:39:13Z</time>
      </trkpt>
      <trkpt lat="50.32784" lon="3.57935">
        <ele>84.7333984</ele>
        <time>2012-05-07T13:39:17Z</time>
      </trkpt>
      <trkpt lat="50.32788" lon="3.57879">
        <ele>86.175293</ele>
        <time>2012-05-07T13:39:23Z</time>
      </trkpt>
      <trkpt lat="50.32791" lon="3.57783">
        <ele>90.0206299</ele>
        <time>2012-05-07T13:39:33Z</time>
      </trkpt>
      <trkpt lat="50.32794" lon="3.577">
        <ele>92.4239502</ele>
        <time>2012-05-07T13:39:42Z</time>
      </trkpt>
      <trkpt lat="50.32799" lon="3.57652">
        <ele>92.904541</ele>
        <time>2012-05-07T13:39:48Z</time>
      </trkpt>
      <trkpt lat="50.32799" lon="3.57603">
        <ele>93.3851318</ele>
        <time>2012-05-07T13:39:54Z</time>
      </trkpt>
      <trkpt lat="50.32799" lon="3.57564">
        <ele>92.904541</ele>
        <time>2012-05-07T13:39:59Z</time>
      </trkpt>
      <trkpt lat="50.32802" lon="3.57532">
        <ele>92.4239502</ele>
        <time>2012-05-07T13:40:03Z</time>
      </trkpt>
      <trkpt lat="50.32801" lon="3.57517">
        <ele>92.904541</ele>
        <time>2012-05-07T13:40:05Z</time>
      </trkpt>
      <trkpt lat="50.32798" lon="3.57493">
        <ele>92.904541</ele>
        <time>2012-05-07T13:40:08Z</time>
      </trkpt>
      <trkpt lat="50.32793" lon="3.57428">
        <ele>91.9432373</ele>
        <time>2012-05-07T13:40:15Z</time>
      </trkpt>
      <trkpt lat="50.3279" lon="3.57353">
        <ele>90.5013428</ele>
        <time>2012-05-07T13:40:22Z</time>
      </trkpt>
      <trkpt lat="50.32783" lon="3.57281">
        <ele>91.4625244</ele>
        <time>2012-05-07T13:40:29Z</time>
      </trkpt>
      <trkpt lat="50.32775" lon="3.57165">
        <ele>92.4239502</ele>
        <time>2012-05-07T13:40:40Z</time>
      </trkpt>
      <trkpt lat="50.32765" lon="3.57072">
        <ele>91.4625244</ele>
        <time>2012-05-07T13:40:49Z</time>
      </trkpt>
      <trkpt lat="50.32758" lon="3.57005">
        <ele>91.9432373</ele>
        <time>2012-05-07T13:40:56Z</time>
      </trkpt>
      <trkpt lat="50.3275" lon="3.56945">
        <ele>92.4239502</ele>
        <time>2012-05-07T13:41:03Z</time>
      </trkpt>
      <trkpt lat="50.32742" lon="3.56879">
        <ele>90.9819336</ele>
        <time>2012-05-07T13:41:10Z</time>
      </trkpt>
      <trkpt lat="50.32728" lon="3.56782">
        <ele>90.5013428</ele>
        <time>2012-05-07T13:41:20Z</time>
      </trkpt>
      <trkpt lat="50.32718" lon="3.56699">
        <ele>89.539917</ele>
        <time>2012-05-07T13:41:29Z</time>
      </trkpt>
      <trkpt lat="50.32706" lon="3.56611">
        <ele>88.0980225</ele>
        <time>2012-05-07T13:41:38Z</time>
      </trkpt>
      <trkpt lat="50.327" lon="3.56555">
        <ele>88.5787354</ele>
        <time>2012-05-07T13:41:44Z</time>
      </trkpt>
      <trkpt lat="50.32692" lon="3.56501">
        <ele>90.5013428</ele>
        <time>2012-05-07T13:41:51Z</time>
      </trkpt>
      <trkpt lat="50.32684" lon="3.56445">
        <ele>91.9432373</ele>
        <time>2012-05-07T13:41:58Z</time>
      </trkpt>
      <trkpt lat="50.32679" lon="3.56402">
        <ele>91.4625244</ele>
        <time>2012-05-07T13:42:04Z</time>
      </trkpt>
      <trkpt lat="50.3267" lon="3.56343">
        <ele>91.4625244</ele>
        <time>2012-05-07T13:42:12Z</time>
      </trkpt>
      <trkpt lat="50.32667" lon="3.56321">
        <ele>91.9432373</ele>
        <time>2012-05-07T13:42:15Z</time>
      </trkpt>
      <trkpt lat="50.3266" lon="3.5626">
        <ele>91.4625244</ele>
        <time>2012-05-07T13:42:23Z</time>
      </trkpt>
      <trkpt lat="50.32651" lon="3.56199">
        <ele>90.9819336</ele>
        <time>2012-05-07T13:42:32Z</time>
      </trkpt>
      <trkpt lat="50.32648" lon="3.56176">
        <ele>89.539917</ele>
        <time>2012-05-07T13:42:36Z</time>
      </trkpt>
      <trkpt lat="50.32646" lon="3.56145">
        <ele>87.1365967</ele>
        <time>2012-05-07T13:42:41Z</time>
      </trkpt>
      <trkpt lat="50.32658" lon="3.56134">
        <ele>86.175293</ele>
        <time>2012-05-07T13:42:44Z</time>
      </trkpt>
      <trkpt lat="50.32696" lon="3.56098">
        <ele>84.2526855</ele>
        <time>2012-05-07T13:42:52Z</time>
      </trkpt>
      <trkpt lat="50.32746" lon="3.56053">
        <ele>82.810791</ele>
        <time>2012-05-07T13:43:01Z</time>
      </trkpt>
      <trkpt lat="50.32796" lon="3.56013">
        <ele>81.8493652</ele>
        <time>2012-05-07T13:43:09Z</time>
      </trkpt>
      <trkpt lat="50.3286" lon="3.55969">
        <ele>80.8881836</ele>
        <time>2012-05-07T13:43:19Z</time>
      </trkpt>
      <trkpt lat="50.32883" lon="3.55954">
        <ele>79.9266357</ele>
        <time>2012-05-07T13:43:23Z</time>
      </trkpt>
      <trkpt lat="50.32892" lon="3.55948">
        <ele>79.9266357</ele>
        <time>2012-05-07T13:43:25Z</time>
      </trkpt>
      <trkpt lat="50.32905" lon="3.55932">
        <ele>79.4460449</ele>
        <time>2012-05-07T13:43:30Z</time>
      </trkpt>
      <trkpt lat="50.32904" lon="3.55927">
        <ele>79.9266357</ele>
        <time>2012-05-07T13:43:31Z</time>
      </trkpt>
      <trkpt lat="50.32902" lon="3.55895">
        <ele>79.9266357</ele>
        <time>2012-05-07T13:43:36Z</time>
      </trkpt>
      <trkpt lat="50.32903" lon="3.55888">
        <ele>79.9266357</ele>
        <time>2012-05-07T13:43:37Z</time>
      </trkpt>
      <trkpt lat="50.32907" lon="3.55867">
        <ele>80.8881836</ele>
        <time>2012-05-07T13:43:42Z</time>
      </trkpt>
      <trkpt lat="50.32908" lon="3.55867">
        <ele>81.3687744</ele>
        <time>2012-05-07T13:43:44Z</time>
      </trkpt>
      <trkpt lat="50.32909" lon="3.55862">
        <ele>83.7719727</ele>
        <time>2012-05-07T13:45:01Z</time>
      </trkpt>
      <trkpt lat="50.32911" lon="3.55839">
        <ele>82.810791</ele>
        <time>2012-05-07T13:45:05Z</time>
      </trkpt>
      <trkpt lat="50.32918" lon="3.55795">
        <ele>81.3687744</ele>
        <time>2012-05-07T13:45:12Z</time>
      </trkpt>
      <trkpt lat="50.32927" lon="3.55736">
        <ele>78.4847412</ele>
        <time>2012-05-07T13:45:20Z</time>
      </trkpt>
      <trkpt lat="50.32939" lon="3.55678">
        <ele>76.5621338</ele>
        <time>2012-05-07T13:45:28Z</time>
      </trkpt>
      <trkpt lat="50.32954" lon="3.55611">
        <ele>74.6395264</ele>
        <time>2012-05-07T13:45:36Z</time>
      </trkpt>
      <trkpt lat="50.32962" lon="3.55555">
        <ele>73.1976318</ele>
        <time>2012-05-07T13:45:42Z</time>
      </trkpt>
      <trkpt lat="50.32976" lon="3.55451">
        <ele>71.7554932</ele>
        <time>2012-05-07T13:45:52Z</time>
      </trkpt>
      <trkpt lat="50.32985" lon="3.55383">
        <ele>70.3134766</ele>
        <time>2012-05-07T13:45:58Z</time>
      </trkpt>
      <trkpt lat="50.32996" lon="3.55289">
        <ele>70.3134766</ele>
        <time>2012-05-07T13:46:06Z</time>
      </trkpt>
      <trkpt lat="50.33004" lon="3.55197">
        <ele>71.7554932</ele>
        <time>2012-05-07T13:46:14Z</time>
      </trkpt>
      <trkpt lat="50.33011" lon="3.55122">
        <ele>72.7169189</ele>
        <time>2012-05-07T13:46:21Z</time>
      </trkpt>
      <trkpt lat="50.33018" lon="3.55039">
        <ele>74.6395264</ele>
        <time>2012-05-07T13:46:29Z</time>
      </trkpt>
      <trkpt lat="50.33029" lon="3.54951">
        <ele>75.6008301</ele>
        <time>2012-05-07T13:46:38Z</time>
      </trkpt>
      <trkpt lat="50.33032" lon="3.54925">
        <ele>75.1202393</ele>
        <time>2012-05-07T13:46:41Z</time>
      </trkpt>
      <trkpt lat="50.33027" lon="3.54895">
        <ele>75.6008301</ele>
        <time>2012-05-07T13:46:45Z</time>
      </trkpt>
      <trkpt lat="50.32999" lon="3.54856">
        <ele>77.0428467</ele>
        <time>2012-05-07T13:46:53Z</time>
      </trkpt>
      <trkpt lat="50.3297" lon="3.54813">
        <ele>79.4460449</ele>
        <time>2012-05-07T13:47:02Z</time>
      </trkpt>
      <trkpt lat="50.32934" lon="3.54765">
        <ele>79.9266357</ele>
        <time>2012-05-07T13:47:12Z</time>
      </trkpt>
      <trkpt lat="50.32914" lon="3.54737">
        <ele>79.9266357</ele>
        <time>2012-05-07T13:47:18Z</time>
      </trkpt>
      <trkpt lat="50.32887" lon="3.547">
        <ele>81.8493652</ele>
        <time>2012-05-07T13:47:27Z</time>
      </trkpt>
      <trkpt lat="50.32862" lon="3.54666">
        <ele>84.7333984</ele>
        <time>2012-05-07T13:47:36Z</time>
      </trkpt>
      <trkpt lat="50.32839" lon="3.54635">
        <ele>86.6560059</ele>
        <time>2012-05-07T13:47:45Z</time>
      </trkpt>
      <trkpt lat="50.32817" lon="3.54606">
        <ele>86.6560059</ele>
        <time>2012-05-07T13:47:53Z</time>
      </trkpt>
      <trkpt lat="50.32796" lon="3.54578">
        <ele>88.0980225</ele>
        <time>2012-05-07T13:48:01Z</time>
      </trkpt>
      <trkpt lat="50.32771" lon="3.54544">
        <ele>89.0593262</ele>
        <time>2012-05-07T13:48:10Z</time>
      </trkpt>
      <trkpt lat="50.32742" lon="3.54505">
        <ele>89.0593262</ele>
        <time>2012-05-07T13:48:20Z</time>
      </trkpt>
      <trkpt lat="50.32716" lon="3.54469">
        <ele>88.0980225</ele>
        <time>2012-05-07T13:48:29Z</time>
      </trkpt>
      <trkpt lat="50.32693" lon="3.54437">
        <ele>88.0980225</ele>
        <time>2012-05-07T13:48:37Z</time>
      </trkpt>
      <trkpt lat="50.32668" lon="3.54407">
        <ele>85.6945801</ele>
        <time>2012-05-07T13:48:44Z</time>
      </trkpt>
      <trkpt lat="50.32644" lon="3.54375">
        <ele>85.2139893</ele>
        <time>2012-05-07T13:48:51Z</time>
      </trkpt>
      <trkpt lat="50.32625" lon="3.54353">
        <ele>85.2139893</ele>
        <time>2012-05-07T13:48:56Z</time>
      </trkpt>
      <trkpt lat="50.326" lon="3.54318">
        <ele>84.7333984</ele>
        <time>2012-05-07T13:49:03Z</time>
      </trkpt>
      <trkpt lat="50.32568" lon="3.54275">
        <ele>88.0980225</ele>
        <time>2012-05-07T13:49:12Z</time>
      </trkpt>
      <trkpt lat="50.32532" lon="3.54226">
        <ele>88.5787354</ele>
        <time>2012-05-07T13:49:21Z</time>
      </trkpt>
      <trkpt lat="50.32508" lon="3.54191">
        <ele>88.0980225</ele>
        <time>2012-05-07T13:49:27Z</time>
      </trkpt>
      <trkpt lat="50.32495" lon="3.54176">
        <ele>87.1365967</ele>
        <time>2012-05-07T13:49:30Z</time>
      </trkpt>
      <trkpt lat="50.32486" lon="3.54166">
        <ele>86.6560059</ele>
        <time>2012-05-07T13:49:32Z</time>
      </trkpt>
      <trkpt lat="50.32458" lon="3.5413">
        <ele>84.2526855</ele>
        <time>2012-05-07T13:49:40Z</time>
      </trkpt>
      <trkpt lat="50.32437" lon="3.541">
        <ele>84.2526855</ele>
        <time>2012-05-07T13:49:47Z</time>
      </trkpt>
      <trkpt lat="50.3241" lon="3.54064">
        <ele>85.2139893</ele>
        <time>2012-05-07T13:49:55Z</time>
      </trkpt>
      <trkpt lat="50.32388" lon="3.54033">
        <ele>86.175293</ele>
        <time>2012-05-07T13:50:02Z</time>
      </trkpt>
      <trkpt lat="50.32354" lon="3.53987">
        <ele>87.1365967</ele>
        <time>2012-05-07T13:50:11Z</time>
      </trkpt>
      <trkpt lat="50.3233" lon="3.53954">
        <ele>86.6560059</ele>
        <time>2012-05-07T13:50:17Z</time>
      </trkpt>
      <trkpt lat="50.32304" lon="3.53919">
        <ele>85.2139893</ele>
        <time>2012-05-07T13:50:23Z</time>
      </trkpt>
      <trkpt lat="50.32265" lon="3.53866">
        <ele>83.7719727</ele>
        <time>2012-05-07T13:50:32Z</time>
      </trkpt>
      <trkpt lat="50.32222" lon="3.53807">
        <ele>81.8493652</ele>
        <time>2012-05-07T13:50:41Z</time>
      </trkpt>
      <trkpt lat="50.32182" lon="3.5375">
        <ele>80.4074707</ele>
        <time>2012-05-07T13:50:49Z</time>
      </trkpt>
      <trkpt lat="50.32134" lon="3.53688">
        <ele>78.9654541</ele>
        <time>2012-05-07T13:50:58Z</time>
      </trkpt>
      <trkpt lat="50.32129" lon="3.53682">
        <ele>78.9654541</ele>
        <time>2012-05-07T13:50:59Z</time>
      </trkpt>
      <trkpt lat="50.32096" lon="3.53632">
        <ele>77.5234375</ele>
        <time>2012-05-07T13:51:06Z</time>
      </trkpt>
      <trkpt lat="50.32059" lon="3.53576">
        <ele>76.5621338</ele>
        <time>2012-05-07T13:51:14Z</time>
      </trkpt>
      <trkpt lat="50.32019" lon="3.53513">
        <ele>75.1202393</ele>
        <time>2012-05-07T13:51:23Z</time>
      </trkpt>
      <trkpt lat="50.32005" lon="3.53492">
        <ele>74.1588135</ele>
        <time>2012-05-07T13:51:26Z</time>
      </trkpt>
      <trkpt lat="50.31963" lon="3.53438">
        <ele>70.3134766</ele>
        <time>2012-05-07T13:51:34Z</time>
      </trkpt>
      <trkpt lat="50.31928" lon="3.53395">
        <ele>68.3908691</ele>
        <time>2012-05-07T13:51:41Z</time>
      </trkpt>
      <trkpt lat="50.31884" lon="3.53342">
        <ele>65.5070801</ele>
        <time>2012-05-07T13:51:49Z</time>
      </trkpt>
      <trkpt lat="50.31873" lon="3.53326">
        <ele>63.5843506</ele>
        <time>2012-05-07T13:51:51Z</time>
      </trkpt>
      <trkpt lat="50.31842" lon="3.53263">
        <ele>60.7003174</ele>
        <time>2012-05-07T13:51:58Z</time>
      </trkpt>
      <trkpt lat="50.31805" lon="3.53176">
        <ele>61.1810303</ele>
        <time>2012-05-07T13:52:07Z</time>
      </trkpt>
      <trkpt lat="50.31775" lon="3.53106">
        <ele>63.5843506</ele>
        <time>2012-05-07T13:52:15Z</time>
      </trkpt>
      <trkpt lat="50.31746" lon="3.53042">
        <ele>63.1036377</ele>
        <time>2012-05-07T13:52:23Z</time>
      </trkpt>
      <trkpt lat="50.31735" lon="3.53013">
        <ele>62.6229248</ele>
        <time>2012-05-07T13:52:27Z</time>
      </trkpt>
      <trkpt lat="50.31722" lon="3.5299">
        <ele>57.8165283</ele>
        <time>2012-05-07T13:52:30Z</time>
      </trkpt>
      <trkpt lat="50.31713" lon="3.52945">
        <ele>57.8165283</ele>
        <time>2012-05-07T13:52:36Z</time>
      </trkpt>
      <trkpt lat="50.31712" lon="3.52938">
        <ele>57.8165283</ele>
        <time>2012-05-07T13:52:37Z</time>
      </trkpt>
      <trkpt lat="50.31705" lon="3.52908">
        <ele>57.8165283</ele>
        <time>2012-05-07T13:52:42Z</time>
      </trkpt>
      <trkpt lat="50.31689" lon="3.5287">
        <ele>58.2971191</ele>
        <time>2012-05-07T13:52:50Z</time>
      </trkpt>
      <trkpt lat="50.31677" lon="3.52846">
        <ele>56.3745117</ele>
        <time>2012-05-07T13:52:55Z</time>
      </trkpt>
      <trkpt lat="50.31668" lon="3.52825">
        <ele>57.8165283</ele>
        <time>2012-05-07T13:53:00Z</time>
      </trkpt>
      <trkpt lat="50.31662" lon="3.52801">
        <ele>59.2584229</ele>
        <time>2012-05-07T13:53:05Z</time>
      </trkpt>
      <trkpt lat="50.31659" lon="3.52775">
        <ele>61.1810303</ele>
        <time>2012-05-07T13:53:10Z</time>
      </trkpt>
      <trkpt lat="50.31652" lon="3.52739">
        <ele>61.6617432</ele>
        <time>2012-05-07T13:53:17Z</time>
      </trkpt>
      <trkpt lat="50.31646" lon="3.52718">
        <ele>60.2197266</ele>
        <time>2012-05-07T13:53:21Z</time>
      </trkpt>
      <trkpt lat="50.31635" lon="3.52685">
        <ele>60.2197266</ele>
        <time>2012-05-07T13:53:28Z</time>
      </trkpt>
      <trkpt lat="50.31631" lon="3.52661">
        <ele>59.7391357</ele>
        <time>2012-05-07T13:53:33Z</time>
      </trkpt>
      <trkpt lat="50.31629" lon="3.5265">
        <ele>59.7391357</ele>
        <time>2012-05-07T13:53:38Z</time>
      </trkpt>
      <trkpt lat="50.31627" lon="3.52646">
        <ele>60.7003174</ele>
        <time>2012-05-07T13:53:41Z</time>
      </trkpt>
      <trkpt lat="50.31626" lon="3.52622">
        <ele>64.5456543</ele>
        <time>2012-05-07T13:53:49Z</time>
      </trkpt>
      <trkpt lat="50.31626" lon="3.5262">
        <ele>65.0263672</ele>
        <time>2012-05-07T13:53:50Z</time>
      </trkpt>
      <trkpt lat="50.31621" lon="3.52597">
        <ele>68.871582</ele>
        <time>2012-05-07T13:53:57Z</time>
      </trkpt>
      <trkpt lat="50.31621" lon="3.52591">
        <ele>70.7941895</ele>
        <time>2012-05-07T13:53:59Z</time>
      </trkpt>
      <trkpt lat="50.31616" lon="3.52567">
        <ele>70.3134766</ele>
        <time>2012-05-07T13:54:05Z</time>
      </trkpt>
      <trkpt lat="50.31614" lon="3.52544">
        <ele>70.3134766</ele>
        <time>2012-05-07T13:54:12Z</time>
      </trkpt>
      <trkpt lat="50.31612" lon="3.52541">
        <ele>71.7554932</ele>
        <time>2012-05-07T13:54:13Z</time>
      </trkpt>
      <trkpt lat="50.31603" lon="3.52514">
        <ele>70.3134766</ele>
        <time>2012-05-07T13:54:20Z</time>
      </trkpt>
      <trkpt lat="50.31594" lon="3.52488">
        <ele>69.3522949</ele>
        <time>2012-05-07T13:54:27Z</time>
      </trkpt>
      <trkpt lat="50.31588" lon="3.52466">
        <ele>69.8328857</ele>
        <time>2012-05-07T13:54:33Z</time>
      </trkpt>
      <trkpt lat="50.3158" lon="3.52447">
        <ele>71.2749023</ele>
        <time>2012-05-07T13:54:39Z</time>
      </trkpt>
      <trkpt lat="50.31572" lon="3.52427">
        <ele>72.2362061</ele>
        <time>2012-05-07T13:54:45Z</time>
      </trkpt>
      <trkpt lat="50.31564" lon="3.52406">
        <ele>72.7169189</ele>
        <time>2012-05-07T13:54:51Z</time>
      </trkpt>
      <trkpt lat="50.31557" lon="3.52388">
        <ele>73.6782227</ele>
        <time>2012-05-07T13:54:56Z</time>
      </trkpt>
      <trkpt lat="50.31546" lon="3.52365">
        <ele>69.8328857</ele>
        <time>2012-05-07T13:55:02Z</time>
      </trkpt>
      <trkpt lat="50.3154" lon="3.52349">
        <ele>71.2749023</ele>
        <time>2012-05-07T13:55:07Z</time>
      </trkpt>
      <trkpt lat="50.31531" lon="3.52325">
        <ele>72.2362061</ele>
        <time>2012-05-07T13:55:14Z</time>
      </trkpt>
      <trkpt lat="50.31522" lon="3.52309">
        <ele>71.7554932</ele>
        <time>2012-05-07T13:55:19Z</time>
      </trkpt>
      <trkpt lat="50.31515" lon="3.52291">
        <ele>74.6395264</ele>
        <time>2012-05-07T13:55:25Z</time>
      </trkpt>
      <trkpt lat="50.31509" lon="3.52272">
        <ele>79.9266357</ele>
        <time>2012-05-07T13:55:32Z</time>
      </trkpt>
      <trkpt lat="50.315" lon="3.52249">
        <ele>79.4460449</ele>
        <time>2012-05-07T13:55:39Z</time>
      </trkpt>
      <trkpt lat="50.31491" lon="3.52229">
        <ele>77.5234375</ele>
        <time>2012-05-07T13:55:45Z</time>
      </trkpt>
      <trkpt lat="50.3148" lon="3.52205">
        <ele>78.9654541</ele>
        <time>2012-05-07T13:55:53Z</time>
      </trkpt>
      <trkpt lat="50.31473" lon="3.52182">
        <ele>78.4847412</ele>
        <time>2012-05-07T13:55:59Z</time>
      </trkpt>
      <trkpt lat="50.31465" lon="3.52152">
        <ele>78.9654541</ele>
        <time>2012-05-07T13:56:06Z</time>
      </trkpt>
      <trkpt lat="50.31454" lon="3.52108">
        <ele>78.4847412</ele>
        <time>2012-05-07T13:56:15Z</time>
      </trkpt>
      <trkpt lat="50.31447" lon="3.52073">
        <ele>77.5234375</ele>
        <time>2012-05-07T13:56:22Z</time>
      </trkpt>
      <trkpt lat="50.31442" lon="3.52034">
        <ele>79.9266357</ele>
        <time>2012-05-07T13:56:30Z</time>
      </trkpt>
      <trkpt lat="50.3144" lon="3.52011">
        <ele>82.810791</ele>
        <time>2012-05-07T13:56:36Z</time>
      </trkpt>
      <trkpt lat="50.31441" lon="3.5199">
        <ele>87.6171875</ele>
        <time>2012-05-07T13:56:43Z</time>
      </trkpt>
      <trkpt lat="50.31441" lon="3.51972">
        <ele>87.1365967</ele>
        <time>2012-05-07T13:56:49Z</time>
      </trkpt>
      <trkpt lat="50.31442" lon="3.51959">
        <ele>85.2139893</ele>
        <time>2012-05-07T13:56:53Z</time>
      </trkpt>
      <trkpt lat="50.31444" lon="3.51933">
        <ele>82.3300781</ele>
        <time>2012-05-07T13:56:59Z</time>
      </trkpt>
      <trkpt lat="50.31443" lon="3.519">
        <ele>83.7719727</ele>
        <time>2012-05-07T13:57:05Z</time>
      </trkpt>
      <trkpt lat="50.31442" lon="3.51887">
        <ele>84.7333984</ele>
        <time>2012-05-07T13:57:09Z</time>
      </trkpt>
      <trkpt lat="50.31431" lon="3.5188">
        <ele>86.175293</ele>
        <time>2012-05-07T13:57:13Z</time>
      </trkpt>
      <trkpt lat="50.31399" lon="3.51877">
        <ele>88.0980225</ele>
        <time>2012-05-07T13:57:21Z</time>
      </trkpt>
      <trkpt lat="50.31384" lon="3.51866">
        <ele>88.0980225</ele>
        <time>2012-05-07T13:57:25Z</time>
      </trkpt>
      <trkpt lat="50.31373" lon="3.51853">
        <ele>88.5787354</ele>
        <time>2012-05-07T13:57:30Z</time>
      </trkpt>
      <trkpt lat="50.31359" lon="3.51864">
        <ele>87.6171875</ele>
        <time>2012-05-07T13:57:35Z</time>
      </trkpt>
      <trkpt lat="50.31337" lon="3.5188">
        <ele>89.0593262</ele>
        <time>2012-05-07T13:57:41Z</time>
      </trkpt>
      <trkpt lat="50.31304" lon="3.51892">
        <ele>90.9819336</ele>
        <time>2012-05-07T13:57:49Z</time>
      </trkpt>
      <trkpt lat="50.31299" lon="3.51893">
        <ele>90.5013428</ele>
        <time>2012-05-07T13:57:50Z</time>
      </trkpt>
      <trkpt lat="50.31263" lon="3.5191">
        <ele>89.0593262</ele>
        <time>2012-05-07T13:57:59Z</time>
      </trkpt>
      <trkpt lat="50.31254" lon="3.51913">
        <ele>89.539917</ele>
        <time>2012-05-07T13:58:01Z</time>
      </trkpt>
      <trkpt lat="50.31218" lon="3.5193">
        <ele>90.0206299</ele>
        <time>2012-05-07T13:58:10Z</time>
      </trkpt>
      <trkpt lat="50.31183" lon="3.51952">
        <ele>91.9432373</ele>
        <time>2012-05-07T13:58:19Z</time>
      </trkpt>
      <trkpt lat="50.31136" lon="3.51981">
        <ele>92.904541</ele>
        <time>2012-05-07T13:58:31Z</time>
      </trkpt>
      <trkpt lat="50.31091" lon="3.52007">
        <ele>93.3851318</ele>
        <time>2012-05-07T13:58:42Z</time>
      </trkpt>
      <trkpt lat="50.31049" lon="3.5203">
        <ele>93.8658447</ele>
        <time>2012-05-07T13:58:52Z</time>
      </trkpt>
      <trkpt lat="50.31017" lon="3.52041">
        <ele>94.8271484</ele>
        <time>2012-05-07T13:59:00Z</time>
      </trkpt>
      <trkpt lat="50.30975" lon="3.52054">
        <ele>94.8271484</ele>
        <time>2012-05-07T13:59:10Z</time>
      </trkpt>
      <trkpt lat="50.30945" lon="3.52062">
        <ele>95.3077393</ele>
        <time>2012-05-07T13:59:17Z</time>
      </trkpt>
      <trkpt lat="50.30918" lon="3.52072">
        <ele>95.7884521</ele>
        <time>2012-05-07T13:59:24Z</time>
      </trkpt>
      <trkpt lat="50.30875" lon="3.52087">
        <ele>96.7498779</ele>
        <time>2012-05-07T13:59:34Z</time>
      </trkpt>
      <trkpt lat="50.30841" lon="3.52102">
        <ele>96.7498779</ele>
        <time>2012-05-07T13:59:42Z</time>
      </trkpt>
      <trkpt lat="50.30808" lon="3.52117">
        <ele>97.2304688</ele>
        <time>2012-05-07T13:59:50Z</time>
      </trkpt>
      <trkpt lat="50.30785" lon="3.52128">
        <ele>97.2304688</ele>
        <time>2012-05-07T13:59:56Z</time>
      </trkpt>
      <trkpt lat="50.30761" lon="3.52139">
        <ele>97.2304688</ele>
        <time>2012-05-07T14:00:02Z</time>
      </trkpt>
      <trkpt lat="50.30729" lon="3.52152">
        <ele>98.1918945</ele>
        <time>2012-05-07T14:00:10Z</time>
      </trkpt>
      <trkpt lat="50.30679" lon="3.52176">
        <ele>99.1530762</ele>
        <time>2012-05-07T14:00:22Z</time>
      </trkpt>
      <trkpt lat="50.30639" lon="3.52197">
        <ele>100.5950928</ele>
        <time>2012-05-07T14:00:32Z</time>
      </trkpt>
      <trkpt lat="50.3059" lon="3.52224">
        <ele>101.5563965</ele>
        <time>2012-05-07T14:00:44Z</time>
      </trkpt>
      <trkpt lat="50.30553" lon="3.52245">
        <ele>102.0371094</ele>
        <time>2012-05-07T14:00:53Z</time>
      </trkpt>
      <trkpt lat="50.30513" lon="3.52267">
        <ele>102.5177002</ele>
        <time>2012-05-07T14:01:03Z</time>
      </trkpt>
      <trkpt lat="50.30489" lon="3.5228">
        <ele>102.5177002</ele>
        <time>2012-05-07T14:01:09Z</time>
      </trkpt>
      <trkpt lat="50.30461" lon="3.52292">
        <ele>101.5563965</ele>
        <time>2012-05-07T14:01:17Z</time>
      </trkpt>
      <trkpt lat="50.30434" lon="3.52302">
        <ele>100.5950928</ele>
        <time>2012-05-07T14:01:24Z</time>
      </trkpt>
      <trkpt lat="50.30407" lon="3.52312">
        <ele>100.5950928</ele>
        <time>2012-05-07T14:01:31Z</time>
      </trkpt>
      <trkpt lat="50.30406" lon="3.52313">
        <ele>100.114502</ele>
        <time>2012-05-07T14:01:34Z</time>
      </trkpt>
      <trkpt lat="50.30387" lon="3.52316">
        <ele>91.4625244</ele>
        <time>2012-05-07T14:04:02Z</time>
      </trkpt>
      <trkpt lat="50.30372" lon="3.52322">
        <ele>94.3465576</ele>
        <time>2012-05-07T14:04:06Z</time>
      </trkpt>
      <trkpt lat="50.30348" lon="3.52329">
        <ele>96.7498779</ele>
        <time>2012-05-07T14:04:12Z</time>
      </trkpt>
      <trkpt lat="50.30307" lon="3.5234">
        <ele>98.6724854</ele>
        <time>2012-05-07T14:04:21Z</time>
      </trkpt>
      <trkpt lat="50.30241" lon="3.52357">
        <ele>99.1530762</ele>
        <time>2012-05-07T14:04:34Z</time>
      </trkpt>
      <trkpt lat="50.30206" lon="3.52371">
        <ele>98.6724854</ele>
        <time>2012-05-07T14:04:41Z</time>
      </trkpt>
      <trkpt lat="50.30166" lon="3.52387">
        <ele>98.1918945</ele>
        <time>2012-05-07T14:04:49Z</time>
      </trkpt>
      <trkpt lat="50.30112" lon="3.52411">
        <ele>98.6724854</ele>
        <time>2012-05-07T14:05:00Z</time>
      </trkpt>
      <trkpt lat="50.30053" lon="3.52436">
        <ele>97.2304688</ele>
        <time>2012-05-07T14:05:12Z</time>
      </trkpt>
      <trkpt lat="50.30005" lon="3.52456">
        <ele>96.2692871</ele>
        <time>2012-05-07T14:05:22Z</time>
      </trkpt>
      <trkpt lat="50.2998" lon="3.52466">
        <ele>95.7884521</ele>
        <time>2012-05-07T14:05:28Z</time>
      </trkpt>
      <trkpt lat="50.29963" lon="3.52474">
        <ele>95.3077393</ele>
        <time>2012-05-07T14:05:32Z</time>
      </trkpt>
      <trkpt lat="50.29952" lon="3.52467">
        <ele>95.7884521</ele>
        <time>2012-05-07T14:05:36Z</time>
      </trkpt>
      <trkpt lat="50.29953" lon="3.52463">
        <ele>95.3077393</ele>
        <time>2012-05-07T14:05:37Z</time>
      </trkpt>
      <trkpt lat="50.29962" lon="3.52416">
        <ele>94.8271484</ele>
        <time>2012-05-07T14:05:45Z</time>
      </trkpt>
      <trkpt lat="50.29973" lon="3.52347">
        <ele>92.4239502</ele>
        <time>2012-05-07T14:05:55Z</time>
      </trkpt>
      <trkpt lat="50.29978" lon="3.52282">
        <ele>91.4625244</ele>
        <time>2012-05-07T14:06:03Z</time>
      </trkpt>
      <trkpt lat="50.29981" lon="3.52216">
        <ele>90.5013428</ele>
        <time>2012-05-07T14:06:10Z</time>
      </trkpt>
      <trkpt lat="50.29987" lon="3.5213">
        <ele>88.0980225</ele>
        <time>2012-05-07T14:06:18Z</time>
      </trkpt>
      <trkpt lat="50.29991" lon="3.52055">
        <ele>87.1365967</ele>
        <time>2012-05-07T14:06:25Z</time>
      </trkpt>
      <trkpt lat="50.29994" lon="3.51989">
        <ele>87.1365967</ele>
        <time>2012-05-07T14:06:32Z</time>
      </trkpt>
      <trkpt lat="50.29999" lon="3.51896">
        <ele>89.539917</ele>
        <time>2012-05-07T14:06:42Z</time>
      </trkpt>
      <trkpt lat="50.30005" lon="3.51799">
        <ele>89.0593262</ele>
        <time>2012-05-07T14:06:52Z</time>
      </trkpt>
      <trkpt lat="50.30013" lon="3.5172">
        <ele>87.1365967</ele>
        <time>2012-05-07T14:07:00Z</time>
      </trkpt>
      <trkpt lat="50.30025" lon="3.51668">
        <ele>84.7333984</ele>
        <time>2012-05-07T14:07:06Z</time>
      </trkpt>
      <trkpt lat="50.30017" lon="3.51645">
        <ele>84.7333984</ele>
        <time>2012-05-07T14:07:09Z</time>
      </trkpt>
      <trkpt lat="50.30001" lon="3.51636">
        <ele>84.7333984</ele>
        <time>2012-05-07T14:07:12Z</time>
      </trkpt>
      <trkpt lat="50.29948" lon="3.51623">
        <ele>84.2526855</ele>
        <time>2012-05-07T14:07:20Z</time>
      </trkpt>
      <trkpt lat="50.2989" lon="3.51607">
        <ele>82.810791</ele>
        <time>2012-05-07T14:07:29Z</time>
      </trkpt>
      <trkpt lat="50.29841" lon="3.51593">
        <ele>81.8493652</ele>
        <time>2012-05-07T14:07:37Z</time>
      </trkpt>
      <trkpt lat="50.29835" lon="3.51591">
        <ele>81.8493652</ele>
        <time>2012-05-07T14:07:38Z</time>
      </trkpt>
      <trkpt lat="50.29819" lon="3.51582">
        <ele>83.2913818</ele>
        <time>2012-05-07T14:07:42Z</time>
      </trkpt>
      <trkpt lat="50.29821" lon="3.51569">
        <ele>82.3300781</ele>
        <time>2012-05-07T14:07:45Z</time>
      </trkpt>
      <trkpt lat="50.29824" lon="3.51565">
        <ele>82.3300781</ele>
        <time>2012-05-07T14:07:46Z</time>
      </trkpt>
      <trkpt lat="50.29841" lon="3.51552">
        <ele>81.8493652</ele>
        <time>2012-05-07T14:07:50Z</time>
      </trkpt>
      <trkpt lat="50.29869" lon="3.51522">
        <ele>77.0428467</ele>
        <time>2012-05-07T14:07:56Z</time>
      </trkpt>
      <trkpt lat="50.29903" lon="3.51476">
        <ele>74.1588135</ele>
        <time>2012-05-07T14:08:03Z</time>
      </trkpt>
      <trkpt lat="50.29938" lon="3.51428">
        <ele>71.2749023</ele>
        <time>2012-05-07T14:08:10Z</time>
      </trkpt>
      <trkpt lat="50.29942" lon="3.51422">
        <ele>70.7941895</ele>
        <time>2012-05-07T14:08:11Z</time>
      </trkpt>
      <trkpt lat="50.29969" lon="3.51382">
        <ele>69.8328857</ele>
        <time>2012-05-07T14:08:17Z</time>
      </trkpt>
      <trkpt lat="50.30008" lon="3.51328">
        <ele>67.4296875</ele>
        <time>2012-05-07T14:08:25Z</time>
      </trkpt>
      <trkpt lat="50.3004" lon="3.51284">
        <ele>65.5070801</ele>
        <time>2012-05-07T14:08:32Z</time>
      </trkpt>
      <trkpt lat="50.30069" lon="3.51244">
        <ele>65.9876709</ele>
        <time>2012-05-07T14:08:39Z</time>
      </trkpt>
      <trkpt lat="50.30101" lon="3.51201">
        <ele>65.0263672</ele>
        <time>2012-05-07T14:08:46Z</time>
      </trkpt>
      <trkpt lat="50.30131" lon="3.5116">
        <ele>64.0650635</ele>
        <time>2012-05-07T14:08:53Z</time>
      </trkpt>
      <trkpt lat="50.30171" lon="3.51105">
        <ele>63.1036377</ele>
        <time>2012-05-07T14:09:02Z</time>
      </trkpt>
      <trkpt lat="50.30195" lon="3.51071">
        <ele>62.6229248</ele>
        <time>2012-05-07T14:09:08Z</time>
      </trkpt>
      <trkpt lat="50.30219" lon="3.51036">
        <ele>63.5843506</ele>
        <time>2012-05-07T14:09:15Z</time>
      </trkpt>
      <trkpt lat="50.3024" lon="3.51006">
        <ele>63.5843506</ele>
        <time>2012-05-07T14:09:21Z</time>
      </trkpt>
      <trkpt lat="50.30256" lon="3.50983">
        <ele>67.4296875</ele>
        <time>2012-05-07T14:09:26Z</time>
      </trkpt>
      <trkpt lat="50.30265" lon="3.50972">
        <ele>68.871582</ele>
        <time>2012-05-07T14:09:29Z</time>
      </trkpt>
      <trkpt lat="50.3028" lon="3.50947">
        <ele>68.871582</ele>
        <time>2012-05-07T14:09:36Z</time>
      </trkpt>
      <trkpt lat="50.30282" lon="3.50944">
        <ele>69.3522949</ele>
        <time>2012-05-07T14:09:37Z</time>
      </trkpt>
      <trkpt lat="50.30302" lon="3.50922">
        <ele>69.8328857</ele>
        <time>2012-05-07T14:09:44Z</time>
      </trkpt>
      <trkpt lat="50.30321" lon="3.50898">
        <ele>67.9102783</ele>
        <time>2012-05-07T14:09:51Z</time>
      </trkpt>
      <trkpt lat="50.30344" lon="3.50869">
        <ele>65.9876709</ele>
        <time>2012-05-07T14:09:58Z</time>
      </trkpt>
      <trkpt lat="50.30362" lon="3.50845">
        <ele>63.5843506</ele>
        <time>2012-05-07T14:10:04Z</time>
      </trkpt>
      <trkpt lat="50.30382" lon="3.50822">
        <ele>62.142334</ele>
        <time>2012-05-07T14:10:10Z</time>
      </trkpt>
      <trkpt lat="50.30416" lon="3.50789">
        <ele>60.7003174</ele>
        <time>2012-05-07T14:10:18Z</time>
      </trkpt>
      <trkpt lat="50.30433" lon="3.50772">
        <ele>59.7391357</ele>
        <time>2012-05-07T14:10:22Z</time>
      </trkpt>
      <trkpt lat="50.30474" lon="3.50729">
        <ele>59.7391357</ele>
        <time>2012-05-07T14:10:30Z</time>
      </trkpt>
      <trkpt lat="50.30521" lon="3.50676">
        <ele>60.7003174</ele>
        <time>2012-05-07T14:10:38Z</time>
      </trkpt>
      <trkpt lat="50.30574" lon="3.50612">
        <ele>61.1810303</ele>
        <time>2012-05-07T14:10:47Z</time>
      </trkpt>
      <trkpt lat="50.30626" lon="3.50552">
        <ele>58.2971191</ele>
        <time>2012-05-07T14:10:56Z</time>
      </trkpt>
      <trkpt lat="50.30664" lon="3.50508">
        <ele>56.3745117</ele>
        <time>2012-05-07T14:11:03Z</time>
      </trkpt>
      <trkpt lat="50.30686" lon="3.50482">
        <ele>55.8937988</ele>
        <time>2012-05-07T14:11:07Z</time>
      </trkpt>
      <trkpt lat="50.30696" lon="3.5045">
        <ele>57.8165283</ele>
        <time>2012-05-07T14:11:11Z</time>
      </trkpt>
      <trkpt lat="50.30689" lon="3.50425">
        <ele>58.77771</ele>
        <time>2012-05-07T14:11:14Z</time>
      </trkpt>
      <trkpt lat="50.30663" lon="3.50363">
        <ele>58.77771</ele>
        <time>2012-05-07T14:11:22Z</time>
      </trkpt>
      <trkpt lat="50.30645" lon="3.5032">
        <ele>57.3358154</ele>
        <time>2012-05-07T14:11:27Z</time>
      </trkpt>
      <trkpt lat="50.30622" lon="3.50258">
        <ele>53.9711914</ele>
        <time>2012-05-07T14:11:33Z</time>
      </trkpt>
      <trkpt lat="50.30619" lon="3.50247">
        <ele>53.9711914</ele>
        <time>2012-05-07T14:11:34Z</time>
      </trkpt>
      <trkpt lat="50.30616" lon="3.50198">
        <ele>50.1259766</ele>
        <time>2012-05-07T14:11:38Z</time>
      </trkpt>
      <trkpt lat="50.30629" lon="3.50172">
        <ele>46.2806396</ele>
        <time>2012-05-07T14:11:41Z</time>
      </trkpt>
      <trkpt lat="50.30669" lon="3.50128">
        <ele>39.0706787</ele>
        <time>2012-05-07T14:11:48Z</time>
      </trkpt>
      <trkpt lat="50.30691" lon="3.50099">
        <ele>36.1867676</ele>
        <time>2012-05-07T14:11:52Z</time>
      </trkpt>
      <trkpt lat="50.30729" lon="3.50028">
        <ele>32.8222656</ele>
        <time>2012-05-07T14:12:00Z</time>
      </trkpt>
      <trkpt lat="50.30756" lon="3.49976">
        <ele>30.4188232</ele>
        <time>2012-05-07T14:12:06Z</time>
      </trkpt>
      <trkpt lat="50.30766" lon="3.49937">
        <ele>32.3415527</ele>
        <time>2012-05-07T14:12:10Z</time>
      </trkpt>
      <trkpt lat="50.30767" lon="3.49926">
        <ele>33.3028564</ele>
        <time>2012-05-07T14:12:11Z</time>
      </trkpt>
      <trkpt lat="50.30766" lon="3.4986">
        <ele>36.6674805</ele>
        <time>2012-05-07T14:12:18Z</time>
      </trkpt>
      <trkpt lat="50.30773" lon="3.4984">
        <ele>38.109375</ele>
        <time>2012-05-07T14:12:22Z</time>
      </trkpt>
      <trkpt lat="50.30777" lon="3.49837">
        <ele>38.109375</ele>
        <time>2012-05-07T14:12:23Z</time>
      </trkpt>
      <trkpt lat="50.30786" lon="3.49832">
        <ele>38.109375</ele>
        <time>2012-05-07T14:12:25Z</time>
      </trkpt>
      <trkpt lat="50.30827" lon="3.49818">
        <ele>38.109375</ele>
        <time>2012-05-07T14:12:32Z</time>
      </trkpt>
      <trkpt lat="50.30878" lon="3.49797">
        <ele>38.109375</ele>
        <time>2012-05-07T14:12:40Z</time>
      </trkpt>
      <trkpt lat="50.30915" lon="3.49775">
        <ele>36.1867676</ele>
        <time>2012-05-07T14:12:46Z</time>
      </trkpt>
      <trkpt lat="50.3095" lon="3.49742">
        <ele>34.744873</ele>
        <time>2012-05-07T14:12:52Z</time>
      </trkpt>
      <trkpt lat="50.3097" lon="3.49716">
        <ele>34.2641602</ele>
        <time>2012-05-07T14:12:56Z</time>
      </trkpt>
      <trkpt lat="50.3099" lon="3.49715">
        <ele>32.8222656</ele>
        <time>2012-05-07T14:13:00Z</time>
      </trkpt>
      <trkpt lat="50.31002" lon="3.49729">
        <ele>31.8607178</ele>
        <time>2012-05-07T14:13:04Z</time>
      </trkpt>
      <trkpt lat="50.31011" lon="3.49735">
        <ele>30.8995361</ele>
        <time>2012-05-07T14:13:08Z</time>
      </trkpt>
      <trkpt lat="50.31014" lon="3.49735">
        <ele>30.8995361</ele>
        <time>2012-05-07T14:13:09Z</time>
      </trkpt>
      <trkpt lat="50.31035" lon="3.49739">
        <ele>29.9381104</ele>
        <time>2012-05-07T14:13:14Z</time>
      </trkpt>
      <trkpt lat="50.31079" lon="3.49752">
        <ele>30.4188232</ele>
        <time>2012-05-07T14:13:21Z</time>
      </trkpt>
      <trkpt lat="50.31124" lon="3.49758">
        <ele>29.9381104</ele>
        <time>2012-05-07T14:13:28Z</time>
      </trkpt>
      <trkpt lat="50.31156" lon="3.49753">
        <ele>31.380127</ele>
        <time>2012-05-07T14:13:33Z</time>
      </trkpt>
      <trkpt lat="50.3118" lon="3.4975">
        <ele>32.3415527</ele>
        <time>2012-05-07T14:13:37Z</time>
      </trkpt>
      <trkpt lat="50.31204" lon="3.4975">
        <ele>33.3028564</ele>
        <time>2012-05-07T14:13:41Z</time>
      </trkpt>
      <trkpt lat="50.31262" lon="3.49761">
        <ele>35.2254639</ele>
        <time>2012-05-07T14:13:51Z</time>
      </trkpt>
      <trkpt lat="50.31299" lon="3.49766">
        <ele>36.6674805</ele>
        <time>2012-05-07T14:13:58Z</time>
      </trkpt>
      <trkpt lat="50.31339" lon="3.49776">
        <ele>37.6286621</ele>
        <time>2012-05-07T14:14:05Z</time>
      </trkpt>
      <trkpt lat="50.31374" lon="3.49782">
        <ele>38.5900879</ele>
        <time>2012-05-07T14:14:11Z</time>
      </trkpt>
      <trkpt lat="50.31385" lon="3.49784">
        <ele>38.5900879</ele>
        <time>2012-05-07T14:14:13Z</time>
      </trkpt>
      <trkpt lat="50.31418" lon="3.4979">
        <ele>39.5512695</ele>
        <time>2012-05-07T14:14:20Z</time>
      </trkpt>
      <trkpt lat="50.31451" lon="3.49801">
        <ele>39.5512695</ele>
        <time>2012-05-07T14:14:27Z</time>
      </trkpt>
      <trkpt lat="50.31498" lon="3.49824">
        <ele>39.5512695</ele>
        <time>2012-05-07T14:14:36Z</time>
      </trkpt>
      <trkpt lat="50.31525" lon="3.49839">
        <ele>38.5900879</ele>
        <time>2012-05-07T14:14:42Z</time>
      </trkpt>
      <trkpt lat="50.31552" lon="3.49852">
        <ele>39.0706787</ele>
        <time>2012-05-07T14:14:47Z</time>
      </trkpt>
      <trkpt lat="50.31582" lon="3.49869">
        <ele>38.109375</ele>
        <time>2012-05-07T14:14:53Z</time>
      </trkpt>
      <trkpt lat="50.31628" lon="3.49884">
        <ele>38.109375</ele>
        <time>2012-05-07T14:15:02Z</time>
      </trkpt>
      <trkpt lat="50.31672" lon="3.49897">
        <ele>38.109375</ele>
        <time>2012-05-07T14:15:10Z</time>
      </trkpt>
      <trkpt lat="50.31686" lon="3.49902">
        <ele>37.1480713</ele>
        <time>2012-05-07T14:15:13Z</time>
      </trkpt>
      <trkpt lat="50.31724" lon="3.49912">
        <ele>35.2254639</ele>
        <time>2012-05-07T14:15:21Z</time>
      </trkpt>
      <trkpt lat="50.31757" lon="3.49915">
        <ele>32.8222656</ele>
        <time>2012-05-07T14:15:27Z</time>
      </trkpt>
      <trkpt lat="50.31763" lon="3.49915">
        <ele>32.3415527</ele>
        <time>2012-05-07T14:15:28Z</time>
      </trkpt>
      <trkpt lat="50.31784" lon="3.49899">
        <ele>31.8607178</ele>
        <time>2012-05-07T14:15:32Z</time>
      </trkpt>
      <trkpt lat="50.31805" lon="3.49897">
        <ele>31.8607178</ele>
        <time>2012-05-07T14:15:36Z</time>
      </trkpt>
      <trkpt lat="50.31841" lon="3.49895">
        <ele>31.380127</ele>
        <time>2012-05-07T14:15:42Z</time>
      </trkpt>
      <trkpt lat="50.31886" lon="3.49888">
        <ele>30.8995361</ele>
        <time>2012-05-07T14:15:49Z</time>
      </trkpt>
      <trkpt lat="50.31904" lon="3.49885">
        <ele>30.4188232</ele>
        <time>2012-05-07T14:15:52Z</time>
      </trkpt>
      <trkpt lat="50.31951" lon="3.49893">
        <ele>29.9381104</ele>
        <time>2012-05-07T14:16:00Z</time>
      </trkpt>
      <trkpt lat="50.31967" lon="3.49899">
        <ele>28.9769287</ele>
        <time>2012-05-07T14:16:03Z</time>
      </trkpt>
      <trkpt lat="50.32003" lon="3.4991">
        <ele>28.4962158</ele>
        <time>2012-05-07T14:16:10Z</time>
      </trkpt>
      <trkpt lat="50.32018" lon="3.49916">
        <ele>28.4962158</ele>
        <time>2012-05-07T14:16:13Z</time>
      </trkpt>
      <trkpt lat="50.32045" lon="3.49921">
        <ele>30.4188232</ele>
        <time>2012-05-07T14:16:19Z</time>
      </trkpt>
      <trkpt lat="50.32062" lon="3.49927">
        <ele>31.380127</ele>
        <time>2012-05-07T14:16:23Z</time>
      </trkpt>
      <trkpt lat="50.32082" lon="3.49929">
        <ele>31.8607178</ele>
        <time>2012-05-07T14:16:27Z</time>
      </trkpt>
      <trkpt lat="50.32109" lon="3.49942">
        <ele>32.8222656</ele>
        <time>2012-05-07T14:16:32Z</time>
      </trkpt>
      <trkpt lat="50.32122" lon="3.4995">
        <ele>32.3415527</ele>
        <time>2012-05-07T14:16:35Z</time>
      </trkpt>
      <trkpt lat="50.3214" lon="3.49943">
        <ele>32.8222656</ele>
        <time>2012-05-07T14:16:39Z</time>
      </trkpt>
      <trkpt lat="50.32161" lon="3.49939">
        <ele>33.3028564</ele>
        <time>2012-05-07T14:16:43Z</time>
      </trkpt>
      <trkpt lat="50.32188" lon="3.49952">
        <ele>34.2641602</ele>
        <time>2012-05-07T14:16:48Z</time>
      </trkpt>
      <trkpt lat="50.32204" lon="3.49945">
        <ele>34.2641602</ele>
        <time>2012-05-07T14:16:51Z</time>
      </trkpt>
      <trkpt lat="50.32228" lon="3.49938">
        <ele>31.8607178</ele>
        <time>2012-05-07T14:16:55Z</time>
      </trkpt>
      <trkpt lat="50.32241" lon="3.49957">
        <ele>31.8607178</ele>
        <time>2012-05-07T14:16:58Z</time>
      </trkpt>
      <trkpt lat="50.32244" lon="3.49965">
        <ele>32.3415527</ele>
        <time>2012-05-07T14:16:59Z</time>
      </trkpt>
      <trkpt lat="50.32252" lon="3.49979">
        <ele>32.8222656</ele>
        <time>2012-05-07T14:17:01Z</time>
      </trkpt>
      <trkpt lat="50.32272" lon="3.5">
        <ele>33.7834473</ele>
        <time>2012-05-07T14:17:05Z</time>
      </trkpt>
      <trkpt lat="50.32326" lon="3.50021">
        <ele>34.744873</ele>
        <time>2012-05-07T14:17:14Z</time>
      </trkpt>
      <trkpt lat="50.32364" lon="3.50034">
        <ele>33.7834473</ele>
        <time>2012-05-07T14:17:20Z</time>
      </trkpt>
      <trkpt lat="50.32413" lon="3.50044">
        <ele>33.3028564</ele>
        <time>2012-05-07T14:17:27Z</time>
      </trkpt>
      <trkpt lat="50.32464" lon="3.50054">
        <ele>32.3415527</ele>
        <time>2012-05-07T14:17:34Z</time>
      </trkpt>
      <trkpt lat="50.32487" lon="3.50058">
        <ele>31.8607178</ele>
        <time>2012-05-07T14:17:37Z</time>
      </trkpt>
      <trkpt lat="50.32553" lon="3.50049">
        <ele>33.7834473</ele>
        <time>2012-05-07T14:17:46Z</time>
      </trkpt>
      <trkpt lat="50.3261" lon="3.5004">
        <ele>35.2254639</ele>
        <time>2012-05-07T14:17:54Z</time>
      </trkpt>
      <trkpt lat="50.32657" lon="3.50038">
        <ele>36.1867676</ele>
        <time>2012-05-07T14:18:01Z</time>
      </trkpt>
      <trkpt lat="50.3268" lon="3.5003">
        <ele>36.1867676</ele>
        <time>2012-05-07T14:18:05Z</time>
      </trkpt>
      <trkpt lat="50.32695" lon="3.5001">
        <ele>37.6286621</ele>
        <time>2012-05-07T14:18:09Z</time>
      </trkpt>
      <trkpt lat="50.32698" lon="3.49995">
        <ele>37.6286621</ele>
        <time>2012-05-07T14:18:11Z</time>
      </trkpt>
      <trkpt lat="50.32698" lon="3.49985">
        <ele>38.109375</ele>
        <time>2012-05-07T14:18:13Z</time>
      </trkpt>
      <trkpt lat="50.327" lon="3.49972">
        <ele>39.5512695</ele>
        <time>2012-05-07T14:18:16Z</time>
      </trkpt>
      <trkpt lat="50.32705" lon="3.49936">
        <ele>41.473999</ele>
        <time>2012-05-07T14:18:21Z</time>
      </trkpt>
      <trkpt lat="50.32706" lon="3.49928">
        <ele>42.4354248</ele>
        <time>2012-05-07T14:18:22Z</time>
      </trkpt>
      <trkpt lat="50.32712" lon="3.4987">
        <ele>47.7225342</ele>
        <time>2012-05-07T14:18:29Z</time>
      </trkpt>
      <trkpt lat="50.32713" lon="3.49862">
        <ele>47.7225342</ele>
        <time>2012-05-07T14:18:30Z</time>
      </trkpt>
      <trkpt lat="50.32721" lon="3.49818">
        <ele>46.7612305</ele>
        <time>2012-05-07T14:18:36Z</time>
      </trkpt>
      <trkpt lat="50.32729" lon="3.49791">
        <ele>43.8773193</ele>
        <time>2012-05-07T14:18:40Z</time>
      </trkpt>
      <trkpt lat="50.32737" lon="3.49769">
        <ele>41.9547119</ele>
        <time>2012-05-07T14:18:44Z</time>
      </trkpt>
      <trkpt lat="50.3275" lon="3.49735">
        <ele>40.5128174</ele>
        <time>2012-05-07T14:18:50Z</time>
      </trkpt>
      <trkpt lat="50.32747" lon="3.49715">
        <ele>40.9934082</ele>
        <time>2012-05-07T14:18:54Z</time>
      </trkpt>
      <trkpt lat="50.32733" lon="3.49695">
        <ele>40.5128174</ele>
        <time>2012-05-07T14:18:58Z</time>
      </trkpt>
      <trkpt lat="50.3269" lon="3.49669">
        <ele>40.9934082</ele>
        <time>2012-05-07T14:19:05Z</time>
      </trkpt>
      <trkpt lat="50.32683" lon="3.49664">
        <ele>40.5128174</ele>
        <time>2012-05-07T14:19:06Z</time>
      </trkpt>
      <trkpt lat="50.32659" lon="3.4964">
        <ele>39.5512695</ele>
        <time>2012-05-07T14:19:11Z</time>
      </trkpt>
      <trkpt lat="50.32646" lon="3.49628">
        <ele>39.0706787</ele>
        <time>2012-05-07T14:19:15Z</time>
      </trkpt>
      <trkpt lat="50.32635" lon="3.49612">
        <ele>38.5900879</ele>
        <time>2012-05-07T14:19:21Z</time>
      </trkpt>
      <trkpt lat="50.32624" lon="3.49595">
        <ele>37.1480713</ele>
        <time>2012-05-07T14:19:26Z</time>
      </trkpt>
      <trkpt lat="50.32613" lon="3.49573">
        <ele>36.1867676</ele>
        <time>2012-05-07T14:19:30Z</time>
      </trkpt>
      <trkpt lat="50.32605" lon="3.49562">
        <ele>37.6286621</ele>
        <time>2012-05-07T14:19:32Z</time>
      </trkpt>
      <trkpt lat="50.32582" lon="3.49526">
        <ele>39.0706787</ele>
        <time>2012-05-07T14:19:38Z</time>
      </trkpt>
      <trkpt lat="50.32574" lon="3.49514">
        <ele>40.0321045</ele>
        <time>2012-05-07T14:19:40Z</time>
      </trkpt>
      <trkpt lat="50.32563" lon="3.49496">
        <ele>40.0321045</ele>
        <time>2012-05-07T14:19:43Z</time>
      </trkpt>
      <trkpt lat="50.32541" lon="3.49461">
        <ele>40.0321045</ele>
        <time>2012-05-07T14:19:49Z</time>
      </trkpt>
      <trkpt lat="50.32514" lon="3.49416">
        <ele>41.9547119</ele>
        <time>2012-05-07T14:19:57Z</time>
      </trkpt>
      <trkpt lat="50.3251" lon="3.49411">
        <ele>41.9547119</ele>
        <time>2012-05-07T14:19:58Z</time>
      </trkpt>
      <trkpt lat="50.32477" lon="3.4936">
        <ele>40.9934082</ele>
        <time>2012-05-07T14:20:07Z</time>
      </trkpt>
      <trkpt lat="50.32468" lon="3.49338">
        <ele>40.0321045</ele>
        <time>2012-05-07T14:20:11Z</time>
      </trkpt>
      <trkpt lat="50.32463" lon="3.49329">
        <ele>39.5512695</ele>
        <time>2012-05-07T14:20:13Z</time>
      </trkpt>
      <trkpt lat="50.32445" lon="3.49303">
        <ele>39.0706787</ele>
        <time>2012-05-07T14:20:18Z</time>
      </trkpt>
      <trkpt lat="50.3243" lon="3.49285">
        <ele>37.6286621</ele>
        <time>2012-05-07T14:20:22Z</time>
      </trkpt>
      <trkpt lat="50.3241" lon="3.49258">
        <ele>38.109375</ele>
        <time>2012-05-07T14:20:28Z</time>
      </trkpt>
      <trkpt lat="50.32388" lon="3.49222">
        <ele>38.5900879</ele>
        <time>2012-05-07T14:20:35Z</time>
      </trkpt>
      <trkpt lat="50.32381" lon="3.49213">
        <ele>38.109375</ele>
        <time>2012-05-07T14:20:37Z</time>
      </trkpt>
      <trkpt lat="50.32368" lon="3.49193">
        <ele>37.1480713</ele>
        <time>2012-05-07T14:20:41Z</time>
      </trkpt>
      <trkpt lat="50.32341" lon="3.49152">
        <ele>36.6674805</ele>
        <time>2012-05-07T14:20:49Z</time>
      </trkpt>
      <trkpt lat="50.32319" lon="3.4912">
        <ele>37.6286621</ele>
        <time>2012-05-07T14:20:55Z</time>
      </trkpt>
      <trkpt lat="50.32315" lon="3.49114">
        <ele>37.6286621</ele>
        <time>2012-05-07T14:20:56Z</time>
      </trkpt>
      <trkpt lat="50.32286" lon="3.49069">
        <ele>38.5900879</ele>
        <time>2012-05-07T14:21:04Z</time>
      </trkpt>
      <trkpt lat="50.32256" lon="3.49024">
        <ele>38.5900879</ele>
        <time>2012-05-07T14:21:12Z</time>
      </trkpt>
      <trkpt lat="50.32249" lon="3.49013">
        <ele>39.0706787</ele>
        <time>2012-05-07T14:21:14Z</time>
      </trkpt>
      <trkpt lat="50.32231" lon="3.48988">
        <ele>38.5900879</ele>
        <time>2012-05-07T14:21:19Z</time>
      </trkpt>
      <trkpt lat="50.32206" lon="3.4895">
        <ele>38.5900879</ele>
        <time>2012-05-07T14:21:26Z</time>
      </trkpt>
      <trkpt lat="50.32172" lon="3.48894">
        <ele>34.2641602</ele>
        <time>2012-05-07T14:21:35Z</time>
      </trkpt>
      <trkpt lat="50.32168" lon="3.48888">
        <ele>34.2641602</ele>
        <time>2012-05-07T14:21:36Z</time>
      </trkpt>
      <trkpt lat="50.32136" lon="3.48849">
        <ele>25.6123047</ele>
        <time>2012-05-07T14:21:43Z</time>
      </trkpt>
      <trkpt lat="50.32128" lon="3.48837">
        <ele>34.744873</ele>
        <time>2012-05-07T14:21:45Z</time>
      </trkpt>
      <trkpt lat="50.32102" lon="3.48797">
        <ele>39.0706787</ele>
        <time>2012-05-07T14:21:52Z</time>
      </trkpt>
      <trkpt lat="50.32073" lon="3.48751">
        <ele>38.109375</ele>
        <time>2012-05-07T14:22:00Z</time>
      </trkpt>
      <trkpt lat="50.32065" lon="3.4874">
        <ele>38.109375</ele>
        <time>2012-05-07T14:22:02Z</time>
      </trkpt>
      <trkpt lat="50.32051" lon="3.48719">
        <ele>38.109375</ele>
        <time>2012-05-07T14:22:06Z</time>
      </trkpt>
      <trkpt lat="50.32037" lon="3.48695">
        <ele>39.0706787</ele>
        <time>2012-05-07T14:22:10Z</time>
      </trkpt>
      <trkpt lat="50.32016" lon="3.4866">
        <ele>38.5900879</ele>
        <time>2012-05-07T14:22:16Z</time>
      </trkpt>
      <trkpt lat="50.31988" lon="3.48612">
        <ele>38.5900879</ele>
        <time>2012-05-07T14:22:24Z</time>
      </trkpt>
      <trkpt lat="50.31974" lon="3.48589">
        <ele>39.0706787</ele>
        <time>2012-05-07T14:22:28Z</time>
      </trkpt>
      <trkpt lat="50.31968" lon="3.48577">
        <ele>37.6286621</ele>
        <time>2012-05-07T14:22:30Z</time>
      </trkpt>
      <trkpt lat="50.31953" lon="3.48547">
        <ele>35.2254639</ele>
        <time>2012-05-07T14:22:35Z</time>
      </trkpt>
      <trkpt lat="50.31947" lon="3.48535">
        <ele>35.7060547</ele>
        <time>2012-05-07T14:22:37Z</time>
      </trkpt>
      <trkpt lat="50.31941" lon="3.48523">
        <ele>37.1480713</ele>
        <time>2012-05-07T14:22:39Z</time>
      </trkpt>
      <trkpt lat="50.31912" lon="3.48456">
        <ele>42.9160156</ele>
        <time>2012-05-07T14:22:49Z</time>
      </trkpt>
      <trkpt lat="50.319" lon="3.48431">
        <ele>43.8773193</ele>
        <time>2012-05-07T14:22:53Z</time>
      </trkpt>
      <trkpt lat="50.3188" lon="3.48388">
        <ele>44.3580322</ele>
        <time>2012-05-07T14:23:00Z</time>
      </trkpt>
      <trkpt lat="50.31876" lon="3.48374">
        <ele>44.3580322</ele>
        <time>2012-05-07T14:23:02Z</time>
      </trkpt>
      <trkpt lat="50.31869" lon="3.48355">
        <ele>44.3580322</ele>
        <time>2012-05-07T14:23:05Z</time>
      </trkpt>
      <trkpt lat="50.3186" lon="3.48335">
        <ele>41.9547119</ele>
        <time>2012-05-07T14:23:09Z</time>
      </trkpt>
      <trkpt lat="50.31859" lon="3.48312">
        <ele>40.0321045</ele>
        <time>2012-05-07T14:23:13Z</time>
      </trkpt>
      <trkpt lat="50.31855" lon="3.48292">
        <ele>38.109375</ele>
        <time>2012-05-07T14:23:17Z</time>
      </trkpt>
      <trkpt lat="50.31854" lon="3.48282">
        <ele>38.109375</ele>
        <time>2012-05-07T14:23:19Z</time>
      </trkpt>
      <trkpt lat="50.31849" lon="3.48248">
        <ele>38.5900879</ele>
        <time>2012-05-07T14:23:25Z</time>
      </trkpt>
      <trkpt lat="50.31843" lon="3.48224">
        <ele>36.1867676</ele>
        <time>2012-05-07T14:23:29Z</time>
      </trkpt>
      <trkpt lat="50.31833" lon="3.48194">
        <ele>38.109375</ele>
        <time>2012-05-07T14:23:34Z</time>
      </trkpt>
      <trkpt lat="50.3182" lon="3.48174">
        <ele>39.5512695</ele>
        <time>2012-05-07T14:23:40Z</time>
      </trkpt>
      <trkpt lat="50.31807" lon="3.48151">
        <ele>40.0321045</ele>
        <time>2012-05-07T14:23:45Z</time>
      </trkpt>
      <trkpt lat="50.31792" lon="3.4812">
        <ele>38.109375</ele>
        <time>2012-05-07T14:23:50Z</time>
      </trkpt>
      <trkpt lat="50.31773" lon="3.48082">
        <ele>37.1480713</ele>
        <time>2012-05-07T14:23:56Z</time>
      </trkpt>
      <trkpt lat="50.31751" lon="3.48031">
        <ele>37.1480713</ele>
        <time>2012-05-07T14:24:04Z</time>
      </trkpt>
      <trkpt lat="50.3173" lon="3.47984">
        <ele>37.1480713</ele>
        <time>2012-05-07T14:24:12Z</time>
      </trkpt>
      <trkpt lat="50.31717" lon="3.47955">
        <ele>36.6674805</ele>
        <time>2012-05-07T14:24:17Z</time>
      </trkpt>
      <trkpt lat="50.31696" lon="3.47912">
        <ele>37.1480713</ele>
        <time>2012-05-07T14:24:24Z</time>
      </trkpt>
      <trkpt lat="50.31672" lon="3.47859">
        <ele>36.6674805</ele>
        <time>2012-05-07T14:24:32Z</time>
      </trkpt>
      <trkpt lat="50.31647" lon="3.47806">
        <ele>36.6674805</ele>
        <time>2012-05-07T14:24:40Z</time>
      </trkpt>
      <trkpt lat="50.31623" lon="3.47749">
        <ele>39.0706787</ele>
        <time>2012-05-07T14:24:48Z</time>
      </trkpt>
      <trkpt lat="50.3161" lon="3.47716">
        <ele>40.0321045</ele>
        <time>2012-05-07T14:24:53Z</time>
      </trkpt>
      <trkpt lat="50.31588" lon="3.47661">
        <ele>40.5128174</ele>
        <time>2012-05-07T14:25:01Z</time>
      </trkpt>
      <trkpt lat="50.31561" lon="3.47603">
        <ele>41.9547119</ele>
        <time>2012-05-07T14:25:10Z</time>
      </trkpt>
      <trkpt lat="50.31539" lon="3.47556">
        <ele>41.9547119</ele>
        <time>2012-05-07T14:25:17Z</time>
      </trkpt>
      <trkpt lat="50.31536" lon="3.4755">
        <ele>41.9547119</ele>
        <time>2012-05-07T14:25:18Z</time>
      </trkpt>
      <trkpt lat="50.31524" lon="3.47523">
        <ele>42.4354248</ele>
        <time>2012-05-07T14:25:22Z</time>
      </trkpt>
      <trkpt lat="50.31497" lon="3.47464">
        <ele>42.4354248</ele>
        <time>2012-05-07T14:25:31Z</time>
      </trkpt>
      <trkpt lat="50.31483" lon="3.4743">
        <ele>42.9160156</ele>
        <time>2012-05-07T14:25:36Z</time>
      </trkpt>
      <trkpt lat="50.31467" lon="3.47383">
        <ele>43.3966064</ele>
        <time>2012-05-07T14:25:43Z</time>
      </trkpt>
      <trkpt lat="50.3144" lon="3.47328">
        <ele>43.3966064</ele>
        <time>2012-05-07T14:25:52Z</time>
      </trkpt>
      <trkpt lat="50.3143" lon="3.4731">
        <ele>43.3966064</ele>
        <time>2012-05-07T14:25:55Z</time>
      </trkpt>
      <trkpt lat="50.3142" lon="3.47292">
        <ele>43.8773193</ele>
        <time>2012-05-07T14:25:58Z</time>
      </trkpt>
      <trkpt lat="50.31393" lon="3.47253">
        <ele>42.9160156</ele>
        <time>2012-05-07T14:26:05Z</time>
      </trkpt>
      <trkpt lat="50.31372" lon="3.47207">
        <ele>42.9160156</ele>
        <time>2012-05-07T14:26:12Z</time>
      </trkpt>
      <trkpt lat="50.31342" lon="3.4714">
        <ele>42.4354248</ele>
        <time>2012-05-07T14:26:22Z</time>
      </trkpt>
      <trkpt lat="50.31317" lon="3.47078">
        <ele>41.9547119</ele>
        <time>2012-05-07T14:26:31Z</time>
      </trkpt>
      <trkpt lat="50.31305" lon="3.47039">
        <ele>40.0321045</ele>
        <time>2012-05-07T14:26:36Z</time>
      </trkpt>
      <trkpt lat="50.31298" lon="3.47016">
        <ele>40.5128174</ele>
        <time>2012-05-07T14:26:39Z</time>
      </trkpt>
      <trkpt lat="50.31285" lon="3.46962">
        <ele>39.0706787</ele>
        <time>2012-05-07T14:26:46Z</time>
      </trkpt>
      <trkpt lat="50.31282" lon="3.46945">
        <ele>39.0706787</ele>
        <time>2012-05-07T14:26:48Z</time>
      </trkpt>
      <trkpt lat="50.31271" lon="3.46887">
        <ele>38.5900879</ele>
        <time>2012-05-07T14:26:55Z</time>
      </trkpt>
      <trkpt lat="50.31267" lon="3.46862">
        <ele>38.5900879</ele>
        <time>2012-05-07T14:26:58Z</time>
      </trkpt>
      <trkpt lat="50.31264" lon="3.46836">
        <ele>37.6286621</ele>
        <time>2012-05-07T14:27:01Z</time>
      </trkpt>
      <trkpt lat="50.31254" lon="3.46776">
        <ele>39.0706787</ele>
        <time>2012-05-07T14:27:08Z</time>
      </trkpt>
      <trkpt lat="50.31249" lon="3.46736">
        <ele>37.1480713</ele>
        <time>2012-05-07T14:27:13Z</time>
      </trkpt>
      <trkpt lat="50.3124" lon="3.46669">
        <ele>36.1867676</ele>
        <time>2012-05-07T14:27:21Z</time>
      </trkpt>
      <trkpt lat="50.31239" lon="3.46636">
        <ele>35.2254639</ele>
        <time>2012-05-07T14:27:25Z</time>
      </trkpt>
      <trkpt lat="50.31236" lon="3.46571">
        <ele>33.7834473</ele>
        <time>2012-05-07T14:27:33Z</time>
      </trkpt>
      <trkpt lat="50.31234" lon="3.46523">
        <ele>31.380127</ele>
        <time>2012-05-07T14:27:39Z</time>
      </trkpt>
      <trkpt lat="50.3123" lon="3.4647">
        <ele>33.7834473</ele>
        <time>2012-05-07T14:27:46Z</time>
      </trkpt>
      <trkpt lat="50.31229" lon="3.46415">
        <ele>30.8995361</ele>
        <time>2012-05-07T14:27:53Z</time>
      </trkpt>
      <trkpt lat="50.31229" lon="3.46407">
        <ele>30.4188232</ele>
        <time>2012-05-07T14:27:54Z</time>
      </trkpt>
      <trkpt lat="50.31226" lon="3.46361">
        <ele>30.4188232</ele>
        <time>2012-05-07T14:28:00Z</time>
      </trkpt>
      <trkpt lat="50.31225" lon="3.46345">
        <ele>30.8995361</ele>
        <time>2012-05-07T14:28:02Z</time>
      </trkpt>
      <trkpt lat="50.31221" lon="3.46297">
        <ele>29.9381104</ele>
        <time>2012-05-07T14:28:08Z</time>
      </trkpt>
      <trkpt lat="50.31218" lon="3.46242">
        <ele>30.4188232</ele>
        <time>2012-05-07T14:28:15Z</time>
      </trkpt>
      <trkpt lat="50.31216" lon="3.46235">
        <ele>30.4188232</ele>
        <time>2012-05-07T14:28:16Z</time>
      </trkpt>
      <trkpt lat="50.31213" lon="3.46207">
        <ele>31.8607178</ele>
        <time>2012-05-07T14:28:21Z</time>
      </trkpt>
      <trkpt lat="50.31213" lon="3.46195">
        <ele>32.8222656</ele>
        <time>2012-05-07T14:28:23Z</time>
      </trkpt>
      <trkpt lat="50.31208" lon="3.46151">
        <ele>36.1867676</ele>
        <time>2012-05-07T14:28:30Z</time>
      </trkpt>
      <trkpt lat="50.31205" lon="3.46146">
        <ele>35.7060547</ele>
        <time>2012-05-07T14:28:31Z</time>
      </trkpt>
      <trkpt lat="50.31191" lon="3.46131">
        <ele>35.2254639</ele>
        <time>2012-05-07T14:28:34Z</time>
      </trkpt>
      <trkpt lat="50.3118" lon="3.4611">
        <ele>35.2254639</ele>
        <time>2012-05-07T14:28:38Z</time>
      </trkpt>
      <trkpt lat="50.3118" lon="3.46105">
        <ele>34.744873</ele>
        <time>2012-05-07T14:28:39Z</time>
      </trkpt>
      <trkpt lat="50.3119" lon="3.46086">
        <ele>32.3415527</ele>
        <time>2012-05-07T14:28:44Z</time>
      </trkpt>
      <trkpt lat="50.31204" lon="3.4606">
        <ele>31.8607178</ele>
        <time>2012-05-07T14:28:50Z</time>
      </trkpt>
      <trkpt lat="50.31206" lon="3.46036">
        <ele>34.744873</ele>
        <time>2012-05-07T14:28:54Z</time>
      </trkpt>
      <trkpt lat="50.31204" lon="3.46002">
        <ele>34.2641602</ele>
        <time>2012-05-07T14:28:59Z</time>
      </trkpt>
      <trkpt lat="50.31205" lon="3.45972">
        <ele>33.3028564</ele>
        <time>2012-05-07T14:29:03Z</time>
      </trkpt>
      <trkpt lat="50.31205" lon="3.45949">
        <ele>32.3415527</ele>
        <time>2012-05-07T14:29:06Z</time>
      </trkpt>
      <trkpt lat="50.31204" lon="3.45913">
        <ele>30.8995361</ele>
        <time>2012-05-07T14:29:11Z</time>
      </trkpt>
      <trkpt lat="50.31203" lon="3.45882">
        <ele>32.8222656</ele>
        <time>2012-05-07T14:29:15Z</time>
      </trkpt>
      <trkpt lat="50.31204" lon="3.45819">
        <ele>34.2641602</ele>
        <time>2012-05-07T14:29:23Z</time>
      </trkpt>
      <trkpt lat="50.31205" lon="3.45771">
        <ele>31.380127</ele>
        <time>2012-05-07T14:29:29Z</time>
      </trkpt>
      <trkpt lat="50.31208" lon="3.45686">
        <ele>24.1702881</ele>
        <time>2012-05-07T14:29:39Z</time>
      </trkpt>
      <trkpt lat="50.31213" lon="3.45587">
        <ele>19.8443604</ele>
        <time>2012-05-07T14:29:51Z</time>
      </trkpt>
      <trkpt lat="50.31216" lon="3.45512">
        <ele>18.8830566</ele>
        <time>2012-05-07T14:30:00Z</time>
      </trkpt>
      <trkpt lat="50.3122" lon="3.45437">
        <ele>17.9217529</ele>
        <time>2012-05-07T14:30:09Z</time>
      </trkpt>
      <trkpt lat="50.31221" lon="3.45429">
        <ele>17.4411621</ele>
        <time>2012-05-07T14:30:10Z</time>
      </trkpt>
      <trkpt lat="50.31223" lon="3.45405">
        <ele>19.3637695</ele>
        <time>2012-05-07T14:30:13Z</time>
      </trkpt>
      <trkpt lat="50.31223" lon="3.4538">
        <ele>21.7669678</ele>
        <time>2012-05-07T14:30:17Z</time>
      </trkpt>
      <trkpt lat="50.31227" lon="3.45361">
        <ele>26.5736084</ele>
        <time>2012-05-07T14:30:21Z</time>
      </trkpt>
      <trkpt lat="50.31233" lon="3.45325">
        <ele>28.4962158</ele>
        <time>2012-05-07T14:30:26Z</time>
      </trkpt>
      <trkpt lat="50.31235" lon="3.45317">
        <ele>28.0155029</ele>
        <time>2012-05-07T14:30:27Z</time>
      </trkpt>
      <trkpt lat="50.31245" lon="3.45253">
        <ele>26.0928955</ele>
        <time>2012-05-07T14:30:35Z</time>
      </trkpt>
      <trkpt lat="50.31247" lon="3.45197">
        <ele>29.9381104</ele>
        <time>2012-05-07T14:30:42Z</time>
      </trkpt>
      <trkpt lat="50.31247" lon="3.45182">
        <ele>30.4188232</ele>
        <time>2012-05-07T14:30:44Z</time>
      </trkpt>
      <trkpt lat="50.31251" lon="3.45151">
        <ele>29.9381104</ele>
        <time>2012-05-07T14:30:49Z</time>
      </trkpt>
      <trkpt lat="50.31258" lon="3.45156">
        <ele>29.9381104</ele>
        <time>2012-05-07T14:30:52Z</time>
      </trkpt>
      <trkpt lat="50.31271" lon="3.45173">
        <ele>29.9381104</ele>
        <time>2012-05-07T14:30:57Z</time>
      </trkpt>
      <trkpt lat="50.31274" lon="3.45175">
        <ele>29.9381104</ele>
        <time>2012-05-07T14:30:58Z</time>
      </trkpt>
      <trkpt lat="50.31301" lon="3.45193">
        <ele>32.8222656</ele>
        <time>2012-05-07T14:31:06Z</time>
      </trkpt>
      <trkpt lat="50.31321" lon="3.45208">
        <ele>29.4575195</ele>
        <time>2012-05-07T14:31:11Z</time>
      </trkpt>
      <trkpt lat="50.31326" lon="3.4521">
        <ele>29.4575195</ele>
        <time>2012-05-07T14:31:12Z</time>
      </trkpt>
      <trkpt lat="50.31367" lon="3.45238">
        <ele>27.0543213</ele>
        <time>2012-05-07T14:31:20Z</time>
      </trkpt>
      <trkpt lat="50.31383" lon="3.45252">
        <ele>26.0928955</ele>
        <time>2012-05-07T14:31:23Z</time>
      </trkpt>
      <trkpt lat="50.31399" lon="3.45278">
        <ele>24.651001</ele>
        <time>2012-05-07T14:31:27Z</time>
      </trkpt>
      <trkpt lat="50.31424" lon="3.45341">
        <ele>23.2089844</ele>
        <time>2012-05-07T14:31:35Z</time>
      </trkpt>
      <trkpt lat="50.31454" lon="3.45423">
        <ele>25.6123047</ele>
        <time>2012-05-07T14:31:45Z</time>
      </trkpt>
      <trkpt lat="50.3147" lon="3.45471">
        <ele>26.5736084</ele>
        <time>2012-05-07T14:31:52Z</time>
      </trkpt>
      <trkpt lat="50.31476" lon="3.45495">
        <ele>28.0155029</ele>
        <time>2012-05-07T14:31:56Z</time>
      </trkpt>
      <trkpt lat="50.31483" lon="3.45525">
        <ele>28.9769287</ele>
        <time>2012-05-07T14:32:03Z</time>
      </trkpt>
      <trkpt lat="50.31485" lon="3.4553">
        <ele>28.9769287</ele>
        <time>2012-05-07T14:32:04Z</time>
      </trkpt>
      <trkpt lat="50.31503" lon="3.45534">
        <ele>28.9769287</ele>
        <time>2012-05-07T14:32:09Z</time>
      </trkpt>
      <trkpt lat="50.31517" lon="3.45527">
        <ele>29.4575195</ele>
        <time>2012-05-07T14:32:12Z</time>
      </trkpt>
      <trkpt lat="50.31556" lon="3.45489">
        <ele>29.4575195</ele>
        <time>2012-05-07T14:32:20Z</time>
      </trkpt>
      <trkpt lat="50.31579" lon="3.45458">
        <ele>30.8995361</ele>
        <time>2012-05-07T14:32:25Z</time>
      </trkpt>
      <trkpt lat="50.31596" lon="3.45437">
        <ele>31.8607178</ele>
        <time>2012-05-07T14:32:29Z</time>
      </trkpt>
      <trkpt lat="50.31608" lon="3.4542">
        <ele>32.3415527</ele>
        <time>2012-05-07T14:32:32Z</time>
      </trkpt>
      <trkpt lat="50.31638" lon="3.45385">
        <ele>33.7834473</ele>
        <time>2012-05-07T14:32:39Z</time>
      </trkpt>
      <trkpt lat="50.31669" lon="3.45344">
        <ele>32.8222656</ele>
        <time>2012-05-07T14:32:46Z</time>
      </trkpt>
      <trkpt lat="50.31697" lon="3.45308">
        <ele>33.7834473</ele>
        <time>2012-05-07T14:32:52Z</time>
      </trkpt>
      <trkpt lat="50.31727" lon="3.45269">
        <ele>30.8995361</ele>
        <time>2012-05-07T14:32:59Z</time>
      </trkpt>
      <trkpt lat="50.31748" lon="3.45245">
        <ele>30.4188232</ele>
        <time>2012-05-07T14:33:04Z</time>
      </trkpt>
      <trkpt lat="50.31753" lon="3.45239">
        <ele>30.8995361</ele>
        <time>2012-05-07T14:33:05Z</time>
      </trkpt>
      <trkpt lat="50.31764" lon="3.4522">
        <ele>30.4188232</ele>
        <time>2012-05-07T14:33:08Z</time>
      </trkpt>
      <trkpt lat="50.31775" lon="3.45181">
        <ele>32.3415527</ele>
        <time>2012-05-07T14:33:13Z</time>
      </trkpt>
      <trkpt lat="50.31773" lon="3.45158">
        <ele>33.7834473</ele>
        <time>2012-05-07T14:33:16Z</time>
      </trkpt>
      <trkpt lat="50.31764" lon="3.45098">
        <ele>38.109375</ele>
        <time>2012-05-07T14:33:24Z</time>
      </trkpt>
      <trkpt lat="50.31761" lon="3.45059">
        <ele>40.5128174</ele>
        <time>2012-05-07T14:33:29Z</time>
      </trkpt>
      <trkpt lat="50.31758" lon="3.45029">
        <ele>41.473999</ele>
        <time>2012-05-07T14:33:33Z</time>
      </trkpt>
      <trkpt lat="50.31766" lon="3.45002">
        <ele>41.473999</ele>
        <time>2012-05-07T14:33:37Z</time>
      </trkpt>
      <trkpt lat="50.31778" lon="3.44991">
        <ele>40.5128174</ele>
        <time>2012-05-07T14:33:40Z</time>
      </trkpt>
      <trkpt lat="50.31808" lon="3.44981">
        <ele>40.0321045</ele>
        <time>2012-05-07T14:33:47Z</time>
      </trkpt>
      <trkpt lat="50.31839" lon="3.44979">
        <ele>40.9934082</ele>
        <time>2012-05-07T14:33:54Z</time>
      </trkpt>
      <trkpt lat="50.31851" lon="3.44977">
        <ele>41.473999</ele>
        <time>2012-05-07T14:33:57Z</time>
      </trkpt>
      <trkpt lat="50.31873" lon="3.44974">
        <ele>41.9547119</ele>
        <time>2012-05-07T14:34:02Z</time>
      </trkpt>
      <trkpt lat="50.31904" lon="3.44961">
        <ele>42.4354248</ele>
        <time>2012-05-07T14:34:09Z</time>
      </trkpt>
      <trkpt lat="50.31923" lon="3.44947">
        <ele>44.838623</ele>
        <time>2012-05-07T14:34:14Z</time>
      </trkpt>
      <trkpt lat="50.3192" lon="3.44927">
        <ele>45.7999268</ele>
        <time>2012-05-07T14:34:17Z</time>
      </trkpt>
      <trkpt lat="50.31914" lon="3.44915">
        <ele>47.2418213</ele>
        <time>2012-05-07T14:34:19Z</time>
      </trkpt>
      <trkpt lat="50.31906" lon="3.44906">
        <ele>49.1645508</ele>
        <time>2012-05-07T14:34:21Z</time>
      </trkpt>
      <trkpt lat="50.31901" lon="3.44869">
        <ele>47.2418213</ele>
        <time>2012-05-07T14:34:25Z</time>
      </trkpt>
      <trkpt lat="50.31898" lon="3.44817">
        <ele>47.7225342</ele>
        <time>2012-05-07T14:34:30Z</time>
      </trkpt>
      <trkpt lat="50.31896" lon="3.44806">
        <ele>46.2806396</ele>
        <time>2012-05-07T14:34:32Z</time>
      </trkpt>
      <trkpt lat="50.31889" lon="3.44792">
        <ele>46.7612305</ele>
        <time>2012-05-07T14:34:35Z</time>
      </trkpt>
      <trkpt lat="50.31886" lon="3.44781">
        <ele>47.2418213</ele>
        <time>2012-05-07T14:34:37Z</time>
      </trkpt>
      <trkpt lat="50.31891" lon="3.44761">
        <ele>43.3966064</ele>
        <time>2012-05-07T14:34:40Z</time>
      </trkpt>
      <trkpt lat="50.31901" lon="3.44753">
        <ele>41.473999</ele>
        <time>2012-05-07T14:34:42Z</time>
      </trkpt>
      <trkpt lat="50.31945" lon="3.44725">
        <ele>38.5900879</ele>
        <time>2012-05-07T14:34:50Z</time>
      </trkpt>
      <trkpt lat="50.31998" lon="3.44689">
        <ele>37.1480713</ele>
        <time>2012-05-07T14:34:59Z</time>
      </trkpt>
      <trkpt lat="50.32015" lon="3.44675">
        <ele>36.6674805</ele>
        <time>2012-05-07T14:35:02Z</time>
      </trkpt>
      <trkpt lat="50.32046" lon="3.44637">
        <ele>35.7060547</ele>
        <time>2012-05-07T14:35:08Z</time>
      </trkpt>
      <trkpt lat="50.32096" lon="3.44566">
        <ele>30.8995361</ele>
        <time>2012-05-07T14:35:18Z</time>
      </trkpt>
      <trkpt lat="50.32135" lon="3.44509">
        <ele>27.0543213</ele>
        <time>2012-05-07T14:35:26Z</time>
      </trkpt>
      <trkpt lat="50.32178" lon="3.44455">
        <ele>23.6895752</ele>
        <time>2012-05-07T14:35:34Z</time>
      </trkpt>
      <trkpt lat="50.32223" lon="3.44391">
        <ele>22.7282715</ele>
        <time>2012-05-07T14:35:43Z</time>
      </trkpt>
      <trkpt lat="50.32261" lon="3.4433">
        <ele>20.8056641</ele>
        <time>2012-05-07T14:35:51Z</time>
      </trkpt>
      <trkpt lat="50.32301" lon="3.44268">
        <ele>23.2089844</ele>
        <time>2012-05-07T14:35:59Z</time>
      </trkpt>
      <trkpt lat="50.32348" lon="3.44201">
        <ele>26.5736084</ele>
        <time>2012-05-07T14:36:08Z</time>
      </trkpt>
      <trkpt lat="50.32388" lon="3.44138">
        <ele>29.9381104</ele>
        <time>2012-05-07T14:36:16Z</time>
      </trkpt>
      <trkpt lat="50.32409" lon="3.44084">
        <ele>28.4962158</ele>
        <time>2012-05-07T14:36:22Z</time>
      </trkpt>
      <trkpt lat="50.32423" lon="3.44028">
        <ele>26.0928955</ele>
        <time>2012-05-07T14:36:28Z</time>
      </trkpt>
      <trkpt lat="50.32432" lon="3.43961">
        <ele>23.6895752</ele>
        <time>2012-05-07T14:36:35Z</time>
      </trkpt>
      <trkpt lat="50.32439" lon="3.43884">
        <ele>23.6895752</ele>
        <time>2012-05-07T14:36:43Z</time>
      </trkpt>
      <trkpt lat="50.32453" lon="3.4383">
        <ele>21.7669678</ele>
        <time>2012-05-07T14:36:49Z</time>
      </trkpt>
      <trkpt lat="50.32469" lon="3.43803">
        <ele>21.7669678</ele>
        <time>2012-05-07T14:36:53Z</time>
      </trkpt>
      <trkpt lat="50.32487" lon="3.43778">
        <ele>24.1702881</ele>
        <time>2012-05-07T14:36:57Z</time>
      </trkpt>
      <trkpt lat="50.3252" lon="3.43753">
        <ele>23.2089844</ele>
        <time>2012-05-07T14:37:03Z</time>
      </trkpt>
      <trkpt lat="50.32538" lon="3.43727">
        <ele>25.1317139</ele>
        <time>2012-05-07T14:37:07Z</time>
      </trkpt>
      <trkpt lat="50.32566" lon="3.43686">
        <ele>25.6123047</ele>
        <time>2012-05-07T14:37:13Z</time>
      </trkpt>
      <trkpt lat="50.32616" lon="3.43606">
        <ele>24.651001</ele>
        <time>2012-05-07T14:37:24Z</time>
      </trkpt>
      <trkpt lat="50.32657" lon="3.43534">
        <ele>24.1702881</ele>
        <time>2012-05-07T14:37:33Z</time>
      </trkpt>
      <trkpt lat="50.32676" lon="3.43493">
        <ele>25.6123047</ele>
        <time>2012-05-07T14:37:38Z</time>
      </trkpt>
      <trkpt lat="50.32698" lon="3.43437">
        <ele>29.4575195</ele>
        <time>2012-05-07T14:37:43Z</time>
      </trkpt>
      <trkpt lat="50.32742" lon="3.43359">
        <ele>23.6895752</ele>
        <time>2012-05-07T14:37:53Z</time>
      </trkpt>
      <trkpt lat="50.32779" lon="3.43282">
        <ele>23.2089844</ele>
        <time>2012-05-07T14:38:02Z</time>
      </trkpt>
      <trkpt lat="50.32813" lon="3.43197">
        <ele>28.0155029</ele>
        <time>2012-05-07T14:38:11Z</time>
      </trkpt>
      <trkpt lat="50.32846" lon="3.43096">
        <ele>30.8995361</ele>
        <time>2012-05-07T14:38:21Z</time>
      </trkpt>
      <trkpt lat="50.32868" lon="3.43011">
        <ele>33.3028564</ele>
        <time>2012-05-07T14:38:29Z</time>
      </trkpt>
      <trkpt lat="50.32891" lon="3.42904">
        <ele>34.2641602</ele>
        <time>2012-05-07T14:38:39Z</time>
      </trkpt>
      <trkpt lat="50.32916" lon="3.42786">
        <ele>35.2254639</ele>
        <time>2012-05-07T14:38:50Z</time>
      </trkpt>
      <trkpt lat="50.32942" lon="3.42661">
        <ele>36.6674805</ele>
        <time>2012-05-07T14:39:02Z</time>
      </trkpt>
      <trkpt lat="50.32965" lon="3.42551">
        <ele>37.1480713</ele>
        <time>2012-05-07T14:39:13Z</time>
      </trkpt>
      <trkpt lat="50.32981" lon="3.42473">
        <ele>37.6286621</ele>
        <time>2012-05-07T14:39:21Z</time>
      </trkpt>
      <trkpt lat="50.32996" lon="3.42394">
        <ele>36.6674805</ele>
        <time>2012-05-07T14:39:29Z</time>
      </trkpt>
      <trkpt lat="50.33006" lon="3.42316">
        <ele>38.5900879</ele>
        <time>2012-05-07T14:39:36Z</time>
      </trkpt>
      <trkpt lat="50.33008" lon="3.42296">
        <ele>38.109375</ele>
        <time>2012-05-07T14:39:38Z</time>
      </trkpt>
      <trkpt lat="50.33011" lon="3.42251">
        <ele>36.1867676</ele>
        <time>2012-05-07T14:39:43Z</time>
      </trkpt>
      <trkpt lat="50.33015" lon="3.42198">
        <ele>40.0321045</ele>
        <time>2012-05-07T14:39:49Z</time>
      </trkpt>
      <trkpt lat="50.33025" lon="3.42131">
        <ele>40.5128174</ele>
        <time>2012-05-07T14:39:56Z</time>
      </trkpt>
      <trkpt lat="50.33038" lon="3.42043">
        <ele>40.5128174</ele>
        <time>2012-05-07T14:40:05Z</time>
      </trkpt>
      <trkpt lat="50.33052" lon="3.41938">
        <ele>40.9934082</ele>
        <time>2012-05-07T14:40:16Z</time>
      </trkpt>
      <trkpt lat="50.33064" lon="3.41843">
        <ele>40.0321045</ele>
        <time>2012-05-07T14:40:26Z</time>
      </trkpt>
      <trkpt lat="50.33071" lon="3.41779">
        <ele>38.5900879</ele>
        <time>2012-05-07T14:40:33Z</time>
      </trkpt>
      <trkpt lat="50.33074" lon="3.41718">
        <ele>38.109375</ele>
        <time>2012-05-07T14:40:40Z</time>
      </trkpt>
      <trkpt lat="50.33078" lon="3.41642">
        <ele>40.9934082</ele>
        <time>2012-05-07T14:40:48Z</time>
      </trkpt>
      <trkpt lat="50.3308" lon="3.41574">
        <ele>42.4354248</ele>
        <time>2012-05-07T14:40:55Z</time>
      </trkpt>
      <trkpt lat="50.3308" lon="3.41499">
        <ele>44.3580322</ele>
        <time>2012-05-07T14:41:03Z</time>
      </trkpt>
      <trkpt lat="50.33082" lon="3.41421">
        <ele>43.8773193</ele>
        <time>2012-05-07T14:41:11Z</time>
      </trkpt>
      <trkpt lat="50.33082" lon="3.41386">
        <ele>44.3580322</ele>
        <time>2012-05-07T14:41:15Z</time>
      </trkpt>
      <trkpt lat="50.33086" lon="3.41356">
        <ele>42.9160156</ele>
        <time>2012-05-07T14:41:20Z</time>
      </trkpt>
      <trkpt lat="50.3309" lon="3.41343">
        <ele>41.9547119</ele>
        <time>2012-05-07T14:41:24Z</time>
      </trkpt>
      <trkpt lat="50.33095" lon="3.41345">
        <ele>41.9547119</ele>
        <time>2012-05-07T14:41:28Z</time>
      </trkpt>
    </trkseg>
  </trk>
</gpx>